[[{"header":{"parameterUnit":"m.s-1","parameterCategory":1,"la1":31.0,"la2":29.5877,"lo1":-88.7671,"lo2":-86.6584,"dx":0.0162,"dy":0.0185,"nx":115,"ny":88,"refTime":"2022-12-05T06:00:00:Z","depth":0,"parameterNumber":2,"parameterNumberName":"U-component_of_WINDS"},"data":[0.0,0.0,0.0,0.0,0.0,0.0,0.0,0.0,0.0,0.0,0.0,0.0,0.0,0.0,0.0,0.0,0.0,0.0,0.0,0.0,0.0,0.0,0.0,0.0,0.0,0.0,0.0,0.0,0.0,0.0,0.0,0.0,0.0,0.0,0.0,0.0,0.0,0.0,0.0,0.0,0.0,0.0,0.0,0.0,0.0,0.0,0.0,0.0,0.0,0.0,0.0,0.0,0.0,0.0,0.0,0.0,0.0,0.0,0.0,0.0,0.0,0.0,0.0,0.0,0.0,0.0,0.0,0.0,0.0,0.0,0.0,0.0,0.0,0.0,0.0,0.0,0.0,0.0,0.0,0.0,0.0,0.0,0.0,0.0,0.0,0.0,0.0,0.0,0.0,0.0,0.0,0.0,0.0,0.0,0.0,0.0,0.0,0.0,0.0,0.0,0.0,0.0,0.0,0.0,0.0,0.0,0.0,0.0,0.0,0.0,0.0,0.0,0.0,0.0,0.0,0.0,0.0,0.0,0.0,0.0,0.0,0.0,0.0,0.0,0.0,0.0,0.0,0.0,0.0,0.0,0.0,0.0,0.0,0.0,0.0,0.0,0.0,0.0,0.0,0.0,0.0,0.0,0.0,0.0,0.0,0.0,0.0,0.0,0.0,0.0,0.0,0.0,0.0,0.0,0.0,0.0,0.0,0.0,0.0,0.0,0.0,0.0,0.0,0.0,0.0,0.0,0.0,0.0,0.0,0.0,0.0,0.0,0.0,0.0,0.0,0.0,0.0,0.0,0.0,0.0,0.0,0.0,0.0,0.0,0.0,0.0,0.0,0.0,0.0,0.0,0.0,0.0,0.0,0.0,0.0,0.0,0.0,0.0,0.0,0.0,0.0,0.0,0.0,0.0,0.0,0.0,0.0,0.0,0.0,0.0,0.0,0.0,0.0,0.0,0.0,0.0,0.0,0.0,0.0,0.0,0.0,0.0,0.0,0.0,0.0,0.0,0.0,0.0,0.0,0.0,0.0,0.0,0.0,0.0,0.0,0.0,0.0,0.0,0.0,0.0,0.0,0.0,0.0,0.0,0.0,0.0,0.0,0.0,0.0,0.0,0.0,0.0,0.0,0.0,0.0,0.0,0.0,0.0,0.0,0.0,0.0,0.0,0.0,0.0,0.0,0.0,0.0,0.0,0.0,0.0,0.0,0.0,0.0,0.0,0.0,0.0,0.0,0.0,0.0,0.0,0.0,0.0,0.0,0.0,0.0,0.0,0.0,0.0,0.0,0.0,0.0,0.0,0.0,0.0,0.0,0.0,0.0,0.0,0.0,0.0,0.0,0.0,0.0,0.0,0.0,0.0,0.0,0.0,0.0,0.0,0.0,0.0,0.0,0.0,0.0,0.0,0.0,0.0,0.0,0.0,0.0,0.0,0.0,0.0,0.0,0.0,0.0,0.0,0.0,0.0,0.0,0.0,0.0,0.0,0.0,0.0,0.0,0.0,0.0,0.0,0.0,0.0,0.0,0.0,0.0,0.0,0.0,0.0,0.0,0.0,0.0,0.0,0.0,0.0,0.0,0.0,0.0,0.0,0.0,0.0,0.0,0.0,0.0,0.0,0.0,0.0,0.0,0.0,0.0,0.0,0.0,0.0,0.0,0.0,0.0,0.0,0.0,0.0,0.0,0.0,0.0,0.0,0.0,0.0,0.0,0.0,0.0,0.0,0.0,0.0,0.0,0.0,0.0,0.0,0.0,0.0,0.0,0.0,0.0,0.0,0.0,0.0,0.0,0.0,0.0,0.0,0.0,0.0,0.0,0.0,0.0,0.0,0.0,0.0,0.0,0.0,0.0,0.0,0.0,0.0,0.0,0.0,0.0,0.0,0.0,0.0,0.0,0.0,0.0,0.0,0.0,0.0,0.0,0.0,0.0,0.0,0.0,0.0,0.0,0.0,0.0,0.0,0.0,0.0,0.0,0.0,0.0,0.0,0.0,0.0,0.0,0.0,0.0,0.0,0.0,0.0,0.0,0.0,0.0,0.0,0.0,0.0,0.0,0.0,0.0,0.0,0.0,0.0,0.0,0.0,0.0,0.0,0.0,0.0,0.0,0.0,0.0,0.0,0.0,0.0,0.0,0.0,0.0,0.0,0.0,0.0,0.0,0.0,0.0,0.0,0.0,0.0,0.0,0.0,0.0,0.0,0.0,0.0,0.0,0.0,0.0,0.0,0.0,0.0,0.0,0.0,0.0,0.0,0.0,0.0,0.0,0.0,0.0,0.0,0.0,0.0,0.0,0.0,0.0,0.0,0.0,0.0,0.0,0.0,0.0,0.0,0.0,0.0,0.0,0.0,0.0,0.0,0.0,0.0,0.0,0.0,0.0,0.0,0.0,0.0,0.0,0.0,0.0,0.0,0.0,0.0,0.0,0.0,0.0,0.0,0.0,0.0,0.0,0.0,0.0,0.0,0.0,0.0,0.0,0.0,0.0,0.0,0.0,0.0,0.0,0.0,0.0,0.0,0.0,0.0,0.0,0.0,0.0,0.0,0.0,0.0,0.0,0.0,0.0,0.0,0.0,0.0,0.0,0.0,0.0,0.0,0.0,0.0,0.0,0.0,0.0,0.0,0.0,0.0,0.0,0.0,0.0,0.0,0.0,0.0,0.0,0.0,0.0,0.0,0.0,0.0,0.0,0.0,0.0,0.0,0.0,0.0,0.0,0.0,0.0,0.0,0.0,0.0,0.0,0.0,0.0,0.0,0.0,0.0,0.0,0.0,0.0,0.0,0.0,0.0,0.0,0.0,0.0,0.0,0.0,0.0,0.0,0.0,0.0,0.0,0.0,0.0,0.0,0.0,0.0,0.0,0.0,0.0,0.0,0.0,0.0,0.0,0.0,0.0,0.0,0.0,0.0,0.0,0.0,0.0,0.0,0.0,0.0,0.0,0.0,0.0,0.0,0.0,0.0,0.0,0.0,0.0,0.0,0.0,0.0,0.0,0.0,0.0,0.0,0.0,0.0,0.0,0.0,0.0,0.0,0.0,0.0,0.0,0.0,0.0,0.0,0.0,0.0,0.0,0.0,0.0,0.0,0.0,0.0,0.0,0.0,0.0,0.0,0.0,0.0,0.0,0.0,0.0,0.0,0.0,0.0,0.0,0.0,0.0,0.0,0.0,0.0,0.0,0.0,0.0,0.0,0.0,0.0,0.0,0.0,0.0,0.0,0.0,0.0,0.0,0.0,0.0,0.0,0.0,0.0,0.0,0.0,0.0,0.0,0.0,0.0,0.0,0.0,0.0,0.0,0.0,0.0,0.0,0.0,0.0,0.0,0.0,0.0,0.0,0.0,0.0,0.0,0.0,0.0,0.0,0.0,0.0,0.0,0.0,0.0,0.0,0.0,0.0,0.0,0.0,0.0,0.0,0.0,0.0,0.0,0.0,0.0,0.0,0.0,0.0,0.0,0.0,0.0,0.0,0.0,0.0,0.0,0.0,0.0,0.0,0.0,0.0,0.0,0.0,0.0,0.0,0.0,0.0,0.0,0.0,0.0,0.0,0.0,0.0,0.0,0.0,0.0,0.0,0.0,0.0,0.0,0.0,0.0,0.0,0.0,0.0,0.0,0.0,0.0,0.0,0.0,0.0,0.0,0.0,0.0,0.0,0.0,0.0,0.0,0.0,0.0,0.0,0.0,0.0,0.0,0.0,0.0,0.0,0.0,0.0,0.0,0.0,0.0,0.0,0.0,0.0,0.0,0.0,0.0,0.0,0.0,0.0,0.0,0.0,0.0,0.0,0.0,0.0,0.0,0.0,0.0,0.0,0.0,0.0,0.0,0.0,0.0,0.0,0.0,0.0,0.0,0.0,0.0,0.0,0.0,0.0,0.0,0.0,0.0,0.0,0.0,0.0,0.0,0.0,0.0,0.0,0.0,0.0,0.0,0.0,0.0,0.0,0.0,0.0,0.0,0.0,0.0,0.0,0.0,0.0,0.0,0.0,0.0,0.0,0.0,0.0,0.0,0.0,0.0,0.0,0.0,0.0,0.0,0.0,0.0,0.0,0.0,0.0,0.0,0.0,0.0,0.0,0.0,0.0,0.0,0.0,0.0,0.0,0.0,0.0,0.0,0.0,0.0,0.0,0.0,0.0,0.0,0.0,0.0,0.0,0.0,0.0,0.0,0.0,0.0,0.0,0.0,0.0,0.0,0.0,0.0,0.0,0.0,0.0,0.0,0.0,0.0,0.0,0.0,0.0,0.0,0.0,-0.7351,0.0,0.0,0.0,-0.5293,0.0,0.0,0.0,0.0,0.0,0.0,0.0,0.0,0.0,0.0,0.0,0.0,0.0,0.0,0.0,0.0,0.0,0.0,0.0,0.0,0.0,0.0,0.0,0.0,0.0,0.0,0.0,0.0,0.0,0.0,0.0,0.0,0.0,0.0,0.0,0.0,0.0,0.0,0.0,0.0,0.0,0.0,0.0,0.0,0.0,0.0,0.0,0.0,0.0,0.0,0.0,0.0,0.0,0.0,0.0,0.0,0.0,0.0,0.0,0.0,0.0,0.0,0.0,0.0,0.0,0.0,0.0,0.0,0.0,0.0,0.0,0.0,0.0,0.0,0.0,0.0,0.0,0.0,0.0,0.0,0.0,0.0,0.0,0.0,0.0,0.0,0.0,0.0,0.0,0.0,0.0,0.0,0.0,0.0,0.0,0.0,0.0,0.0,0.0,0.0,0.0,0.0,0.0,0.0,0.0,0.0,0.0,0.0,0.0,0.0,-0.7047,-0.6229,-0.6999,-0.6699,-0.5107,0.0,0.0,0.0,0.0,0.0,0.0,0.0,0.0,0.0,0.0,0.0,0.0,0.0,0.0,0.0,0.0,0.0,0.0,0.0,0.0,0.0,0.0,0.0,0.0,0.0,0.0,0.0,0.0,0.0,0.0,0.0,0.0,0.0,0.0,0.0,0.0,0.0,0.0,0.0,0.0,0.0,0.0,0.0,0.0,0.0,0.0,0.0,0.0,0.0,0.0,0.0,0.0,0.0,0.0,0.0,0.0,0.0,0.0,0.0,0.0,0.0,0.0,0.0,0.0,0.0,0.0,0.0,0.0,0.0,0.0,0.0,0.0,0.0,0.0,0.0,0.0,0.0,0.0,0.0,0.0,0.0,0.0,0.0,0.0,0.0,0.0,0.0,0.0,0.0,0.0,0.0,0.0,0.0,0.0,0.0,0.0,0.0,0.0,0.0,0.0,0.0,0.0,0.0,0.0,0.0,0.0,0.0,0.0,0.0,0.0,0.0,0.0,-0.7023,-0.686,-0.5665,0.0,0.0,0.0,0.0,0.0,0.0,0.0,0.0,0.0,0.0,0.0,0.0,0.0,0.0,0.0,0.0,0.0,0.0,0.0,0.0,0.0,0.0,0.0,0.0,0.0,0.0,0.0,0.0,0.0,0.0,0.0,0.0,0.0,0.0,0.0,0.0,0.0,0.0,0.0,0.0,0.0,0.0,0.0,0.0,0.0,0.0,0.0,0.0,0.0,0.0,0.0,0.0,0.0,0.0,0.0,0.0,0.0,0.0,0.0,0.0,0.0,0.0,0.0,0.0,0.0,0.0,0.0,0.0,0.0,0.0,0.0,0.0,0.0,0.0,0.0,0.0,0.0,0.0,0.0,0.0,0.0,0.0,0.0,0.0,0.0,0.0,0.0,0.0,0.0,0.0,0.0,0.0,0.0,0.0,0.0,0.0,0.0,0.0,0.0,0.0,0.0,0.0,0.0,0.0,0.0,0.0,0.0,0.0,0.0,0.0,-0.5548,-0.6276,-0.7107,0.0,-0.7387,0.0,0.0,0.0,0.0,0.0,0.0,0.0,0.0,0.0,0.0,0.0,0.0,0.0,0.0,0.0,0.0,0.0,0.0,0.0,0.0,0.0,0.0,0.0,0.0,0.0,0.0,0.0,0.0,0.0,0.0,0.0,0.0,0.0,0.0,0.0,0.0,0.0,0.0,0.0,0.0,0.0,0.0,0.0,0.0,0.0,0.0,0.0,0.0,0.0,0.0,0.0,0.0,0.0,0.0,0.0,0.0,0.0,0.0,0.0,0.0,0.0,0.0,0.0,0.0,0.0,0.0,0.0,0.0,0.0,0.0,0.0,0.0,0.0,0.0,0.0,0.0,0.0,0.0,0.0,0.0,0.0,0.0,0.0,0.0,0.0,0.0,0.0,0.0,0.0,0.0,0.0,0.0,0.0,0.0,0.0,0.0,0.0,0.0,0.0,0.0,0.0,0.0,0.0,0.0,0.0,0.0,0.0,0.0,0.0,0.0,-0.5945,-0.6288,-0.6636,-0.6831,0.0,0.0,0.0,0.0,0.0,0.0,0.0,0.0,0.0,0.0,0.0,0.0,0.0,0.0,0.0,0.0,0.0,0.0,0.0,0.0,0.0,0.0,0.0,0.0,0.0,0.0,0.0,0.0,0.0,0.0,0.0,0.0,0.0,0.0,0.0,0.0,0.0,0.0,0.0,0.0,0.0,0.0,0.0,0.0,0.0,0.0,0.0,0.0,0.0,0.0,0.0,0.0,0.0,0.0,0.0,0.0,0.0,0.0,0.0,0.0,0.0,0.0,0.0,0.0,0.0,0.0,0.0,0.0,0.0,0.0,0.0,0.0,0.0,0.0,0.0,0.0,0.0,0.0,0.0,0.0,0.0,0.0,0.0,0.0,0.0,0.0,0.0,0.0,0.0,0.0,0.0,0.0,0.0,0.0,0.0,0.0,0.0,0.0,0.0,0.0,0.0,0.0,0.0,0.0,0.0,0.0,0.0,0.0,0.0,0.0,-0.6111,-0.6423,-0.6645,-0.6452,-0.632,-0.6322,0.0,0.0,0.0,0.0,0.0,0.0,0.0,0.0,0.0,0.0,0.0,0.0,0.0,0.0,0.0,0.0,0.0,0.0,0.0,0.0,0.0,0.0,0.0,0.0,0.0,0.0,0.0,0.0,0.0,0.0,0.0,0.0,0.0,0.0,0.0,0.0,0.0,0.0,0.0,0.0,0.0,0.0,0.0,0.0,0.0,0.0,0.0,0.0,0.0,0.0,0.0,0.0,0.0,0.0,0.0,0.0,0.0,0.0,0.0,0.0,0.0,0.0,0.0,0.0,0.0,0.0,0.0,0.0,0.0,0.0,0.0,0.0,0.0,0.0,0.0,0.0,0.0,0.0,0.0,0.0,0.0,0.0,0.0,0.0,0.0,0.0,0.0,0.0,0.0,0.0,0.0,0.0,0.0,0.0,0.0,0.0,0.0,0.0,0.0,0.0,0.0,0.0,0.0,0.0,0.0,0.0,0.0,0.0,-0.734,-0.6697,-0.6745,-0.7582,-0.6829,-0.6398,0.0,0.0,0.0,0.0,0.0,0.0,0.0,0.0,0.0,0.0,0.0,0.0,0.0,0.0,0.0,0.0,0.0,0.0,0.0,0.0,0.0,0.0,0.0,0.0,0.0,0.0,0.0,0.0,0.0,0.0,0.0,0.0,0.0,0.0,0.0,0.0,0.0,0.0,0.0,0.0,0.0,0.0,0.0,0.0,0.0,0.0,0.0,0.0,0.0,0.0,0.0,0.0,0.0,0.0,0.0,0.0,0.0,0.0,0.0,0.0,0.0,0.0,0.0,0.0,0.0,0.0,0.0,0.0,0.0,0.0,0.0,0.0,0.0,0.0,0.0,0.0,0.0,0.0,0.0,0.0,0.0,0.0,0.0,0.0,0.0,0.0,0.0,0.0,0.0,0.0,0.0,0.0,0.0,0.0,0.0,0.0,0.0,0.0,0.0,0.0,0.0,0.0,0.0,0.0,0.0,0.0,0.0,0.0,0.0,-0.5975,-0.623,-0.7042,-0.8426,-0.7148,-0.6659,0.0,0.0,0.0,0.0,0.0,0.0,0.0,0.0,0.0,0.0,0.0,0.0,0.0,0.0,0.0,0.0,0.0,0.0,0.0,0.0,0.0,0.0,0.0,0.0,0.0,0.0,0.0,0.0,0.0,0.0,0.0,0.0,0.0,0.0,0.0,0.0,0.0,0.0,0.0,0.0,0.0,0.0,0.0,0.0,0.0,0.0,0.0,0.0,0.0,0.0,0.0,0.0,0.0,0.0,0.0,0.0,0.0,0.0,0.0,0.0,0.0,0.0,0.0,0.0,0.0,0.0,0.0,0.0,0.0,0.0,0.0,0.0,0.0,0.0,0.0,0.0,0.0,0.0,0.0,0.0,0.0,0.0,0.0,0.0,0.0,0.0,0.0,0.0,0.0,0.0,0.0,0.0,0.0,0.0,0.0,0.0,0.0,0.0,0.0,0.0,0.0,0.0,0.0,0.0,0.0,0.0,0.0,0.0,0.0,-0.5946,-0.6792,-0.7675,-0.8481,-0.7184,-0.6556,0.0,0.0,0.0,0.0,0.0,0.0,0.0,0.0,0.0,0.0,0.0,0.0,0.0,0.0,0.0,0.0,0.0,0.0,0.0,0.0,0.0,0.0,0.0,0.0,0.0,0.0,0.0,0.0,0.0,0.0,0.0,0.0,0.0,0.0,0.0,0.0,0.0,0.0,0.0,0.0,0.0,0.0,0.0,0.0,0.0,0.0,0.0,0.0,0.0,0.0,0.0,0.0,0.0,0.0,0.0,0.0,0.0,0.0,0.0,0.0,0.0,0.0,0.0,0.0,0.0,0.0,0.0,0.0,0.0,0.0,0.0,0.0,0.0,0.0,0.0,0.0,0.0,0.0,0.0,0.0,0.0,0.0,0.0,0.0,0.0,0.0,0.0,0.0,0.0,0.0,0.0,0.0,0.0,0.0,0.0,0.0,0.0,0.0,0.0,0.0,0.0,0.0,0.0,0.0,0.0,0.0,0.0,0.0,-0.5949,-0.7567,-0.8455,-0.8475,-0.7729,-0.6871,-0.6008,0.0,0.0,0.0,0.0,0.0,0.0,0.0,0.0,0.0,0.0,0.0,0.0,0.0,0.0,0.0,0.0,0.0,0.0,0.0,0.0,0.0,0.0,0.0,0.0,0.0,0.0,0.0,0.0,0.0,0.0,0.0,0.0,0.0,0.0,0.0,0.0,0.0,0.0,0.0,0.0,0.0,0.0,0.0,0.0,0.0,0.0,0.0,0.0,0.0,0.0,0.0,0.0,0.0,0.0,0.0,0.0,0.0,0.0,0.0,0.0,0.0,0.0,0.0,0.0,0.0,0.0,0.0,0.0,0.0,0.0,0.0,0.0,0.0,0.0,0.0,0.0,0.0,0.0,0.0,0.0,0.0,0.0,0.0,0.0,0.0,0.0,0.0,0.0,0.0,0.0,0.0,0.0,0.0,0.0,0.0,0.0,0.0,0.0,0.0,0.0,0.0,0.0,0.0,0.0,0.0,0.0,0.0,0.0,0.0,-0.5984,-0.7305,-0.7928,-0.7695,-0.6816,-0.6504,0.0,0.0,0.0,0.0,0.0,0.0,0.0,0.0,0.0,0.0,0.0,0.0,0.0,0.0,0.0,0.0,0.0,0.0,0.0,0.0,0.0,0.0,0.0,0.0,0.0,0.0,0.0,0.0,0.0,0.0,0.0,0.0,0.0,0.0,0.0,0.0,0.0,0.0,0.0,0.0,0.0,0.0,0.0,0.0,0.0,0.0,0.0,0.0,0.0,0.0,0.0,0.0,0.0,0.0,0.0,0.0,0.0,0.0,0.0,0.0,0.0,0.0,0.0,0.0,0.0,0.0,0.0,0.0,0.0,0.0,0.0,0.0,0.0,0.0,0.0,0.0,0.0,0.0,0.0,0.0,0.0,0.0,0.0,0.0,0.0,0.0,0.0,0.0,0.0,0.0,0.0,0.0,0.0,0.0,0.0,0.0,0.0,0.0,0.0,0.0,0.0,0.0,0.0,0.0,0.0,0.0,0.0,0.0,0.0,-0.7583,-0.9103,-0.9681,-0.9091,-0.8204,-0.757,-0.7206,0.0,0.0,0.0,0.0,0.0,0.0,0.0,0.0,0.0,0.0,0.0,0.0,0.0,0.0,0.0,0.0,0.0,0.0,0.0,0.0,0.0,0.0,0.0,0.0,0.0,0.0,0.0,0.0,0.0,0.0,0.0,0.0,0.0,0.0,0.0,0.0,0.0,0.0,0.0,0.0,0.0,0.0,0.0,0.0,0.0,0.0,0.0,0.0,0.0,0.0,0.0,0.0,0.0,0.0,0.0,0.0,0.0,0.0,0.0,0.0,0.0,0.0,0.0,0.0,0.0,0.0,0.0,0.0,0.0,0.0,0.0,0.0,0.0,0.0,0.0,0.0,0.0,0.0,0.0,0.0,0.0,0.0,0.0,0.0,0.0,0.0,0.0,0.0,0.0,0.0,0.0,0.0,0.0,0.0,0.0,0.0,0.0,0.0,0.0,0.0,0.0,0.0,0.0,0.0,0.0,0.0,0.0,0.0,-1.1513,-1.3317,-1.3384,-1.1585,-1.0636,-0.9067,0.0,0.0,0.0,0.0,0.0,0.0,0.0,0.0,0.0,0.0,0.0,0.0,0.0,0.0,0.0,0.0,0.0,0.0,0.0,0.0,0.0,0.0,0.0,0.0,0.0,0.0,0.0,0.0,0.0,0.0,0.0,0.0,0.0,0.0,0.0,0.0,0.0,0.0,0.0,0.0,0.0,0.0,0.0,0.0,0.0,0.0,0.0,0.0,0.0,0.0,0.0,0.0,0.0,0.0,0.0,0.0,0.0,0.0,0.0,0.0,0.0,0.0,0.0,0.0,0.0,0.0,0.0,0.0,0.0,0.0,0.0,0.0,0.0,0.0,0.0,0.0,0.0,0.0,0.0,0.0,0.0,0.0,0.0,0.0,0.0,0.0,0.0,0.0,0.0,0.0,0.0,0.0,0.0,0.0,0.0,0.0,0.0,0.0,0.0,0.0,0.0,0.0,0.0,0.0,0.0,0.0,0.0,0.0,0.0,-1.3261,-1.6106,-1.6234,-1.333,-1.1221,-0.9842,0.0,0.0,0.0,0.0,0.0,0.0,0.0,0.0,0.0,0.0,0.0,0.0,0.0,0.0,0.0,0.0,0.0,0.0,0.0,0.0,0.0,0.0,0.0,0.0,0.0,0.0,0.0,0.0,0.0,0.0,0.0,0.0,0.0,0.0,0.0,0.0,0.0,0.0,0.0,0.0,0.0,0.0,0.0,0.0,0.0,0.0,0.0,0.0,0.0,0.0,0.0,0.0,0.0,0.0,0.0,0.0,0.0,0.0,0.0,0.0,0.0,0.0,0.0,0.0,0.0,0.0,0.0,0.0,0.0,0.0,0.0,0.0,0.0,0.0,0.0,0.0,0.0,0.0,0.0,0.0,0.0,0.0,0.0,0.0,0.0,0.0,0.0,0.0,0.0,0.0,0.0,0.0,0.0,0.0,0.0,0.0,0.0,0.0,0.0,0.0,0.0,0.0,0.0,0.0,0.0,0.0,0.0,0.0,-1.3062,-1.5424,-1.8048,-1.8492,-1.6565,-1.3396,-1.1207,0.0,0.0,0.0,0.0,0.0,0.0,0.0,0.0,0.0,0.0,0.0,0.0,0.0,0.0,0.0,0.0,0.0,0.0,0.0,0.0,0.0,0.0,0.0,0.0,0.0,0.0,0.0,0.0,0.0,0.0,0.0,0.0,0.0,0.0,0.0,0.0,0.0,0.0,0.0,0.0,0.0,0.0,0.0,0.0,0.0,0.0,0.0,0.0,0.0,0.0,0.0,0.0,0.0,0.0,0.0,0.0,0.0,0.0,0.0,0.0,0.0,0.0,0.0,0.0,0.0,0.0,0.0,0.0,0.0,0.0,0.0,0.0,0.0,0.0,0.0,0.0,0.0,0.0,0.0,0.0,0.0,0.0,0.0,0.0,0.0,0.0,0.0,0.0,0.0,0.0,0.0,0.0,0.0,0.0,0.0,0.0,0.0,0.0,0.0,0.0,0.0,0.0,0.0,0.0,0.0,0.0,0.0,0.0,-1.4338,-1.7617,-1.9321,-2.0141,-1.9964,-1.6152,-1.2877,0.0,0.0,0.0,0.0,0.0,0.0,0.0,0.0,0.0,0.0,0.0,0.0,0.0,0.0,0.0,0.0,0.0,0.0,0.0,0.0,0.0,0.0,0.0,0.0,0.0,0.0,0.0,0.0,0.0,0.0,0.0,0.0,0.0,0.0,0.0,0.0,0.0,0.0,0.0,0.0,0.0,0.0,0.0,0.0,0.0,0.0,0.0,0.0,0.0,0.0,0.0,0.0,0.0,0.0,0.0,0.0,0.0,0.0,0.0,0.0,0.0,0.0,0.0,0.0,0.0,0.0,0.0,0.0,0.0,0.0,0.0,0.0,0.0,0.0,0.0,0.0,0.0,0.0,0.0,0.0,0.0,0.0,0.0,0.0,0.0,0.0,0.0,0.0,0.0,0.0,0.0,0.0,0.0,0.0,0.0,0.0,0.0,0.0,0.0,0.0,0.0,0.0,0.0,0.0,0.0,0.0,0.0,0.0,-1.5074,-1.8311,-1.9922,-2.0475,-1.9947,-1.6643,-1.3962,0.0,0.0,0.0,0.0,0.0,0.0,0.0,0.0,0.0,0.0,0.0,0.0,0.0,0.0,0.0,0.0,0.0,0.0,0.0,0.0,0.0,0.0,0.0,0.0,0.0,0.0,0.0,0.0,0.0,0.0,0.0,0.0,0.0,0.0,0.0,0.0,0.0,0.0,0.0,0.0,0.0,0.0,0.0,0.0,0.0,0.0,0.0,0.0,-0.6845,0.0,0.0,0.0,0.0,0.0,0.0,0.0,0.0,0.0,0.0,0.0,0.0,0.0,0.0,0.0,0.0,0.0,0.0,0.0,0.0,0.0,0.0,0.0,0.0,0.0,0.0,0.0,0.0,0.0,0.0,0.0,0.0,0.0,0.0,0.0,0.0,0.0,0.0,0.0,0.0,0.0,0.0,0.0,0.0,0.0,0.0,0.0,0.0,0.0,0.0,0.0,0.0,0.0,0.0,0.0,0.0,0.0,0.0,0.0,-1.5584,-1.8482,-2.0089,-2.0546,-1.9786,-1.8156,-1.5801,0.0,0.0,0.0,0.0,0.0,0.0,0.0,0.0,0.0,0.0,0.0,0.0,0.0,0.0,0.0,0.0,0.0,0.0,0.0,0.0,0.0,0.0,0.0,0.0,0.0,0.0,0.0,0.0,0.0,0.0,0.0,0.0,0.0,0.0,0.0,0.0,0.0,0.0,0.0,0.0,0.0,0.0,0.0,0.0,0.0,0.0,0.0,0.0,0.0,0.0,0.0,0.0,0.0,0.0,0.0,0.0,0.0,0.0,0.0,0.0,0.0,0.0,0.0,0.0,0.0,0.0,0.0,0.0,0.0,0.0,0.0,0.0,0.0,0.0,0.0,0.0,0.0,0.0,0.0,0.0,0.0,0.0,0.0,0.0,0.0,0.0,0.0,0.0,0.0,0.0,0.0,0.0,0.0,0.0,0.0,0.0,0.0,0.0,0.0,0.0,0.0,0.0,0.0,0.0,0.0,0.0,0.0,-1.3749,-1.6178,-1.8752,-2.0398,-2.0779,-1.9888,-1.9856,-1.7581,-1.2775,0.0,0.0,0.0,0.0,0.0,0.0,0.0,0.0,0.0,0.0,0.0,0.0,0.0,0.0,0.0,0.0,0.0,0.0,0.0,0.0,0.0,0.0,0.0,0.0,0.0,0.0,0.0,0.0,0.0,0.0,0.0,0.0,0.0,0.0,0.0,0.0,0.0,0.0,-0.5605,-0.6866,0.0,0.0,0.0,0.0,0.0,0.0,0.0,0.0,-0.6993,0.0,0.0,0.0,0.0,0.0,0.0,0.0,0.0,0.0,0.0,0.0,0.0,0.0,0.0,0.0,0.0,0.0,0.0,0.0,0.0,0.0,0.0,0.0,0.0,0.0,0.0,0.0,0.0,0.0,0.0,0.0,0.0,0.0,0.0,0.0,0.0,0.0,0.0,0.0,0.0,0.0,0.0,0.0,0.0,0.0,0.0,0.0,0.0,0.0,0.0,0.0,0.0,0.0,0.0,0.0,0.0,-1.3165,-1.4869,-1.7212,-2.0254,-2.1865,-2.1976,-2.0607,-2.0537,-1.7975,-1.278,0.0,0.0,0.0,0.0,0.0,0.0,0.0,0.0,0.0,0.0,0.0,0.0,0.0,0.0,0.0,0.0,0.0,0.0,0.0,0.0,0.0,0.0,0.0,0.0,0.0,0.0,0.0,0.0,0.0,0.0,0.0,0.0,0.0,0.0,0.0,0.0,0.0,0.0,0.0,-0.8305,-0.85,0.0,0.0,0.0,0.0,0.0,0.0,0.0,0.0,-0.7689,0.0,0.0,0.0,0.0,0.0,0.0,0.0,0.0,0.0,0.0,0.0,0.0,0.0,0.0,0.0,0.0,0.0,0.0,0.0,0.0,0.0,0.0,0.0,0.0,0.0,0.0,0.0,0.0,0.0,0.0,0.0,0.0,0.0,0.0,0.0,0.0,0.0,0.0,0.0,0.0,0.0,0.0,0.0,0.0,0.0,0.0,0.0,0.0,0.0,0.0,0.0,0.0,0.0,0.0,0.0,-1.288,-1.5631,-1.8202,-2.0531,-2.1773,-2.182,-2.0641,-2.0607,-1.7969,0.0,0.0,0.0,0.0,0.0,0.0,0.0,0.0,0.0,0.0,0.0,0.0,0.0,0.0,0.0,0.0,0.0,0.0,0.0,0.0,0.0,0.0,0.0,0.0,0.0,0.0,0.0,0.0,0.0,0.0,0.0,0.0,0.0,0.0,0.0,0.0,0.0,0.0,0.0,0.0,-0.8951,-0.9329,-0.9742,0.0,0.0,0.0,0.0,0.0,0.0,-0.7993,-0.7677,0.0,0.0,0.0,0.0,0.0,0.0,0.0,0.0,0.0,0.0,0.0,0.0,0.0,0.0,0.0,0.0,0.0,0.0,0.0,0.0,0.0,0.0,0.0,0.0,0.0,0.0,0.0,0.0,0.0,0.0,0.0,0.0,0.0,0.0,0.0,0.0,0.0,0.0,0.0,0.0,0.0,0.0,0.0,0.0,0.0,0.0,0.0,0.0,0.0,0.0,0.0,0.0,0.0,0.0,0.0,-1.2521,-1.6336,-1.9036,-2.0441,-2.1631,-2.1686,-2.0533,-2.0315,-1.769,0.0,0.0,0.0,0.0,0.0,0.0,0.0,0.0,0.0,0.0,0.0,0.0,0.0,0.0,0.0,0.0,0.0,0.0,0.0,0.0,0.0,0.0,0.0,0.0,0.0,0.0,0.0,0.0,0.0,0.0,0.0,0.0,0.0,0.0,0.0,0.0,0.0,0.0,0.0,0.0,0.0,-1.0078,-1.0686,-0.9581,0.0,0.0,0.0,0.0,-0.8294,-0.8118,0.0,0.0,0.0,0.0,0.0,0.0,0.0,0.0,0.0,0.0,0.0,0.0,0.0,0.0,0.0,0.0,0.0,0.0,0.0,0.0,0.0,0.0,0.0,0.0,0.0,0.0,0.0,0.0,0.0,0.0,0.0,0.0,0.0,0.0,0.0,0.0,0.0,0.0,0.0,0.0,0.0,0.0,0.0,0.0,0.0,0.0,0.0,0.0,0.0,0.0,0.0,0.0,0.0,0.0,0.0,0.0,-1.3227,-1.7119,-1.9554,-2.0458,-2.2592,-2.2702,-2.0486,-1.9722,-1.7059,0.0,0.0,0.0,0.0,0.0,0.0,0.0,0.0,0.0,0.0,0.0,0.0,0.0,0.0,0.0,0.0,0.0,0.0,0.0,0.0,0.0,0.0,0.0,0.0,0.0,0.0,0.0,0.0,0.0,0.0,0.0,0.0,0.0,0.0,0.0,0.0,0.0,0.0,0.0,0.0,0.0,-1.0477,-1.0685,-0.9761,-0.8725,0.0,0.0,0.0,-0.9528,-0.9899,0.0,0.0,0.0,0.0,0.0,0.0,0.0,0.0,0.0,0.0,0.0,0.0,0.0,0.0,0.0,0.0,0.0,0.0,0.0,0.0,0.0,0.0,0.0,0.0,0.0,0.0,0.0,0.0,0.0,0.0,0.0,0.0,0.0,0.0,0.0,0.0,0.0,0.0,0.0,0.0,0.0,0.0,0.0,0.0,0.0,0.0,0.0,0.0,0.0,0.0,0.0,0.0,0.0,0.0,0.0,-1.1903,-1.3395,-1.7708,-2.0335,-2.1088,-2.2546,-2.2601,-2.1124,-1.986,-1.6965,0.0,0.0,0.0,0.0,0.0,0.0,0.0,0.0,0.0,0.0,0.0,0.0,0.0,0.0,0.0,0.0,0.0,0.0,0.0,0.0,0.0,0.0,0.0,0.0,0.0,0.0,0.0,0.0,0.0,0.0,0.0,0.0,0.0,0.0,0.0,0.0,0.0,0.0,0.0,0.0,0.0,0.0,-1.1039,-1.0645,0.0,0.0,0.0,-1.0079,-0.8953,0.0,0.0,0.0,0.0,0.0,0.0,0.0,0.0,0.0,0.0,0.0,0.0,0.0,0.0,0.0,0.0,0.0,0.0,0.0,0.0,0.0,0.0,0.0,0.0,0.0,0.0,0.0,0.0,0.0,0.0,0.0,0.0,0.0,0.0,0.0,0.0,0.0,0.0,0.0,0.0,0.0,0.0,0.0,0.0,0.0,0.0,0.0,0.0,0.0,0.0,0.0,0.0,0.0,0.0,0.0,0.0,0.0,-1.3644,-1.8338,-2.1067,-2.1607,-2.2582,-2.271,-2.1899,-2.035,0.0,0.0,0.0,0.0,0.0,0.0,0.0,0.0,0.0,0.0,0.0,0.0,0.0,0.0,0.0,0.0,0.0,0.0,0.0,0.0,0.0,0.0,0.0,0.0,0.0,0.0,0.0,-0.5839,0.0,0.0,0.0,0.0,0.0,0.0,0.0,0.0,0.0,0.0,0.0,0.0,0.0,0.0,-1.0802,-1.1211,-1.1165,-1.0924,0.0,0.0,-1.0163,-0.8949,-0.9897,-1.0109,0.0,0.0,0.0,0.0,0.0,0.0,0.0,0.0,0.0,0.0,0.0,0.0,0.0,0.0,0.0,0.0,0.0,0.0,0.0,0.0,0.0,0.0,0.0,0.0,0.0,0.0,0.0,0.0,0.0,0.0,0.0,0.0,0.0,0.0,0.0,0.0,0.0,0.0,0.0,0.0,0.0,0.0,0.0,0.0,0.0,0.0,0.0,0.0,0.0,0.0,0.0,0.0,0.0,0.0,0.0,-1.4447,-1.9146,-2.1624,-2.1662,-2.3121,-2.355,-2.272,-2.116,-1.8456,0.0,0.0,0.0,0.0,0.0,0.0,0.0,0.0,0.0,0.0,0.0,0.0,0.0,0.0,0.0,0.0,0.0,0.0,0.0,0.0,0.0,0.0,0.0,0.0,0.0,0.0,0.0,0.0,0.0,0.0,0.0,0.0,0.0,0.0,0.0,0.0,0.0,0.0,0.0,0.0,0.0,-1.1222,-1.0965,-1.0886,-1.0928,0.0,0.0,-1.0136,-1.047,-1.1068,-1.0708,-0.8378,0.0,0.0,0.0,0.0,0.0,0.0,0.0,0.0,0.0,0.0,0.0,0.0,0.0,0.0,0.0,0.0,0.0,0.0,0.0,0.0,0.0,0.0,0.0,0.0,0.0,0.0,0.0,0.0,0.0,0.0,0.0,0.0,0.0,0.0,0.0,0.0,0.0,0.0,0.0,0.0,0.0,0.0,0.0,0.0,0.0,0.0,0.0,0.0,0.0,0.0,0.0,0.0,0.0,-1.3169,-1.5141,-1.9468,-2.2118,-2.2991,-2.3628,-2.3782,-2.3432,-2.1416,-1.8723,0.0,0.0,0.0,0.0,0.0,0.0,0.0,0.0,0.0,0.0,0.0,0.0,0.0,0.0,0.0,0.0,0.0,0.0,0.0,0.0,0.0,0.0,0.0,0.0,0.0,0.0,0.0,0.0,-1.0425,-1.0375,-0.8888,0.0,0.0,0.0,0.0,0.0,0.0,0.0,0.0,0.0,0.0,-1.0826,-1.1976,-1.2019,0.0,0.0,-1.1348,-1.1156,-1.0763,-1.0853,-1.0367,-0.8594,-0.7884,0.0,0.0,0.0,0.0,0.0,0.0,0.0,0.0,0.0,0.0,0.0,0.0,0.0,0.0,0.0,0.0,0.0,0.0,0.0,0.0,0.0,0.0,0.0,0.0,0.0,0.0,0.0,0.0,0.0,0.0,0.0,0.0,0.0,0.0,0.0,0.0,0.0,0.0,0.0,0.0,0.0,0.0,0.0,0.0,0.0,0.0,0.0,0.0,0.0,0.0,0.0,0.0,-1.3314,-1.559,-1.9598,-2.2392,-2.3921,-2.3937,-2.4026,-2.4198,-2.2169,-1.968,0.0,0.0,0.0,0.0,0.0,0.0,0.0,0.0,0.0,0.0,0.0,0.0,0.0,0.0,0.0,0.0,0.0,0.0,0.0,0.0,0.0,0.0,0.0,0.0,0.0,0.0,0.0,0.0,-1.0838,-1.0606,-0.8899,0.0,0.0,0.0,0.0,0.0,0.0,0.0,0.0,0.0,0.0,-1.1247,-1.231,-1.2338,-1.2123,-1.1681,-1.1602,-1.1371,-1.0686,-1.0608,-1.0156,-0.8835,0.0,0.0,0.0,0.0,0.0,0.0,0.0,0.0,0.0,0.0,0.0,0.0,0.0,0.0,0.0,0.0,0.0,0.0,0.0,0.0,0.0,0.0,0.0,0.0,0.0,0.0,0.0,0.0,0.0,0.0,0.0,0.0,0.0,0.0,0.0,0.0,0.0,0.0,0.0,0.0,0.0,0.0,0.0,0.0,0.0,0.0,0.0,0.0,0.0,0.0,0.0,0.0,0.0,-1.3277,-1.5608,-1.9557,-2.2438,-2.4066,-2.4044,-2.4409,-2.5191,-2.3633,-2.1616,-1.9172,0.0,0.0,0.0,0.0,0.0,0.0,0.0,0.0,0.0,0.0,0.0,0.0,0.0,0.0,0.0,0.0,0.0,0.0,0.0,0.0,0.0,0.0,0.0,0.0,0.0,0.0,-0.5557,-0.7301,-0.8671,0.0,0.0,0.0,0.0,0.0,0.0,0.0,0.0,0.0,0.0,-1.1429,-1.2849,-1.1678,-1.1506,-1.1662,-1.1885,-1.1093,-1.0448,-1.0377,-1.0512,-1.0294,0.0,0.0,0.0,0.0,0.0,0.0,0.0,0.0,0.0,0.0,0.0,0.0,0.0,0.0,0.0,0.0,0.0,0.0,0.0,0.0,0.0,0.0,0.0,0.0,0.0,0.0,0.0,-0.7695,-0.7695,0.0,0.0,0.0,0.0,0.0,0.0,0.0,0.0,0.0,0.0,0.0,-1.2599,-1.3146,0.0,0.0,0.0,0.0,0.0,0.0,0.0,0.0,0.0,0.0,0.0,0.0,-1.3889,-1.6222,-1.971,-2.2786,-2.5317,-2.5029,-2.5171,-2.5936,-2.4361,-2.1616,-1.7701,0.0,0.0,0.0,0.0,0.0,0.0,0.0,0.0,0.0,0.0,0.0,0.0,0.0,0.0,0.0,0.0,0.0,0.0,0.0,0.0,0.0,0.0,0.0,0.0,0.0,-0.8005,0.0,0.0,0.0,0.0,0.0,0.0,0.0,0.0,0.0,0.0,0.0,-1.0115,-1.1181,-1.1713,-1.2316,-1.3126,-1.2667,-1.2485,0.0,0.0,0.0,0.0,0.0,0.0,0.0,0.0,0.0,0.0,0.0,0.0,0.0,0.0,-0.5301,-0.4908,-0.4611,-0.4459,-0.4584,0.0,0.0,0.0,0.0,0.0,0.0,0.0,0.0,0.0,0.0,0.0,0.0,0.0,0.0,0.0,0.0,-1.0882,0.0,0.0,0.0,0.0,0.0,0.0,0.0,0.0,-1.399,-1.5235,-1.5876,-1.6405,-1.6392,0.0,-1.5803,-1.4019,0.0,0.0,0.0,0.0,0.0,0.0,0.0,0.0,-1.4605,-1.6898,-2.0314,-2.335,-2.5805,-2.5622,-2.5835,-2.6548,-2.4791,-2.2338,-1.9274,-1.765,-1.5621,0.0,0.0,0.0,0.0,0.0,0.0,0.0,0.0,0.0,0.0,0.0,0.0,0.0,0.0,0.0,0.0,0.0,0.0,0.0,0.0,0.0,0.0,0.0,-0.8597,0.0,0.0,0.0,0.0,0.0,0.0,0.0,0.0,0.0,-0.8529,-0.9958,-1.1471,-1.2803,-1.275,-1.2973,-1.4014,0.0,0.0,0.0,0.0,0.0,0.0,0.0,-0.9648,-0.9336,-0.8705,-0.8234,-0.8232,-0.7944,-0.7772,-0.794,0.0,0.0,-0.5965,-0.5309,-0.5042,-0.5187,-0.4637,-0.4089,-0.3884,-0.3746,-0.3566,0.0,0.0,0.0,0.0,0.0,0.0,0.0,0.0,-1.5383,-1.4405,0.0,-1.4495,0.0,0.0,0.0,0.0,0.0,0.0,0.0,0.0,-1.9926,-2.1464,-2.0666,-2.0621,-2.0639,-2.0539,-1.9135,-1.8008,-1.7147,-1.5667,0.0,0.0,0.0,0.0,0.0,0.0,-1.5436,-1.77,-2.1299,-2.4021,-2.5628,-2.5849,-2.6342,-2.7074,-2.501,-2.3764,-2.3575,-1.9421,-1.7653,-1.889,-1.2539,0.0,0.0,0.0,0.0,0.0,0.0,0.0,0.0,0.0,0.0,0.0,0.0,0.0,0.0,0.0,0.0,0.0,0.0,0.0,0.0,-0.833,0.0,0.0,0.0,0.0,0.0,0.0,0.0,0.0,0.0,0.0,-0.9888,-1.1661,-1.3181,-1.3604,0.0,0.0,0.0,0.0,-1.378,-1.3413,-1.2468,-1.146,-1.0535,-1.0958,-1.1201,-1.0597,0.0,0.0,-1.1014,-1.0336,-0.9857,-0.9871,-1.001,-0.9555,-0.7315,-0.6327,-0.5732,-0.5595,-0.516,-0.4518,-0.394,-0.3766,-0.3476,-1.6052,0.0,0.0,0.0,0.0,-1.363,-1.5377,-1.8023,-1.8004,-1.7353,-1.6259,-1.6755,0.0,0.0,0.0,0.0,0.0,0.0,-1.6915,-1.9235,-2.0458,-2.2062,-2.3969,-2.3997,-2.3997,-2.3997,-2.4116,-2.3456,-2.2188,-2.2261,-1.8797,-1.205,0.0,0.0,0.0,0.0,-1.7557,-1.922,-2.1914,-2.4034,-2.5469,-2.6193,-2.661,-2.6778,-2.508,-2.3862,-2.3248,-2.1965,-1.9941,-1.7124,-1.5763,0.0,0.0,0.0,0.0,0.0,0.0,0.0,0.0,0.0,0.0,0.0,0.0,0.0,0.0,0.0,0.0,0.0,0.0,0.0,-0.7597,-0.901,-0.9292,0.0,0.0,0.0,0.0,0.0,0.0,0.0,0.0,0.0,-1.2421,-1.3022,-1.3444,0.0,0.0,-1.4232,-1.3813,-1.3997,-1.4237,-1.4368,0.0,0.0,0.0,-1.232,-1.2091,-1.2291,-1.2411,-1.2263,-1.1656,-1.1555,-1.1525,-1.1383,-1.0762,-1.0213,-1.0081,-0.9161,-0.8309,-0.782,-0.7112,-0.6377,-0.5864,-0.5105,-0.4394,-2.0937,-1.8592,-1.6769,-1.6438,-1.712,-1.7427,-1.9073,-2.1555,-2.1552,-2.0834,-1.9692,-2.0365,-1.859,-1.5076,-1.4653,0.0,0.0,0.0,-1.9634,-2.2046,-2.2682,-2.3998,-2.5815,-2.5888,-2.5888,-2.5897,-2.6334,-2.6049,-2.5114,-2.489,-2.2172,-1.7125,0.0,0.0,-1.5323,-1.7584,-1.9453,-2.0894,-2.3103,-2.4839,-2.5968,-2.6772,-2.7024,-2.6633,-2.5425,-2.4369,-2.3546,-2.2957,-2.1502,-1.8989,-1.7684,-1.5933,0.0,0.0,0.0,0.0,0.0,0.0,0.0,0.0,0.0,0.0,0.0,-0.7375,-0.5201,0.0,0.0,0.0,-0.9247,-0.9861,-0.9755,-1.0726,0.0,0.0,0.0,0.0,0.0,0.0,0.0,-1.1096,-1.2192,-1.3183,-1.3864,-1.4101,-1.4307,-1.4637,-1.4642,-1.4567,-1.4443,0.0,-1.451,-1.4521,-1.3917,-1.3377,-1.3189,-1.2821,-1.2664,-1.2893,-1.2859,-1.2483,-1.1784,-1.2107,-1.2357,-1.2001,-1.1666,-1.1507,-1.168,-1.1183,-1.0336,-0.9121,-0.8226,-0.7491,-0.6931,-0.5901,-0.4976,-2.5029,-2.4048,-2.1059,-2.0615,-2.1923,-2.2691,-2.3912,-2.5385,-2.5442,-2.4523,-2.3035,-2.4568,-2.3111,-1.934,-1.841,0.0,0.0,-2.1588,-2.305,-2.4529,-2.6004,-2.672,-2.6793,-2.6775,-2.6775,-2.6775,-2.6681,-2.6622,-2.6465,-2.4925,-2.4125,-2.4064,-2.197,-2.0079,-1.8598,-1.9783,-2.1146,-2.2611,-2.455,-2.6016,-2.6934,-2.749,-2.7465,-2.6766,-2.5944,-2.5134,-2.4331,-2.2914,-2.2364,-2.2769,-1.8786,-1.6827,-1.7527,0.0,0.0,0.0,0.0,0.0,0.0,0.0,0.0,0.0,0.0,0.0,0.0,0.0,0.0,0.0,-1.2029,0.0,-1.3542,-1.2953,0.0,0.0,0.0,-1.043,-1.1307,-1.1621,-1.201,-1.2661,0.0,0.0,0.0,0.0,-1.5555,-1.6645,-1.5993,-1.5468,-1.5546,-1.5065,-1.4646,-1.4133,-1.3455,-1.2849,-1.2735,-1.2942,-1.3099,-1.2952,-1.2917,-1.2638,-1.1838,-1.2231,-1.2544,-1.2166,-1.2616,-1.2931,-1.2368,-1.2339,-1.1831,-0.9706,-0.8821,-0.8146,-0.7467,-0.6363,-0.5376,-2.7086,-2.6816,-2.6063,-2.4881,-2.362,-2.4428,-2.532,-2.6249,-2.6927,-2.6554,-2.5539,-2.5939,-2.5145,-2.3568,-2.3825,-2.4035,-2.4241,-2.5217,-2.6035,-2.6794,-2.7247,-2.7759,-2.8261,-2.8298,-2.8268,-2.8256,-2.8009,-2.7536,-2.6952,-2.6338,-2.5422,-2.4266,-2.369,-2.2769,-2.1532,-2.2078,-2.2806,-2.3643,-2.4681,-2.5925,-2.7315,-2.748,-2.7435,-2.7145,-2.6163,-2.5307,-2.4538,-2.3588,-2.2658,-2.1833,-2.077,-1.9558,-1.8116,-1.4788,0.0,0.0,0.0,0.0,0.0,0.0,0.0,0.0,0.0,-0.8474,-0.5254,0.0,-0.9484,0.0,-1.2075,-1.4397,-1.3863,-1.3564,0.0,0.0,-1.2189,-1.2199,-1.3746,-1.3918,-1.395,-1.3969,-1.4554,-1.5089,-1.5391,-1.5501,-1.5823,-1.6525,-1.6109,-1.5382,-1.4515,-1.4728,-1.4674,-1.3911,-1.3951,-1.4039,-1.3677,-1.3939,-1.3998,-1.3798,-1.3597,-1.3236,-1.2442,-1.2828,-1.3168,-1.2861,-1.2595,-1.2648,-1.2869,-1.2254,-1.1556,-1.0959,-1.0209,-0.9408,-0.8793,-0.7361,-0.5982,-2.7769,-2.7742,-2.7742,-2.7171,-2.6243,-2.6379,-2.6631,-2.7017,-2.7508,-2.7415,-2.6949,-2.6916,-2.6467,-2.5804,-2.6193,-2.6273,-2.6083,-2.6806,-2.7325,-2.7618,-2.8047,-2.8461,-2.8864,-2.9247,-2.918,-2.873,-2.9147,-2.8869,-2.799,-2.807,-2.7689,-2.6796,-2.6317,-2.5589,-2.459,-2.3605,-2.3297,-2.3661,-2.5071,-2.633,-2.7363,-2.7386,-2.7013,-2.6199,-2.5557,-2.4703,-2.368,-2.3195,-2.2295,-2.0845,-2.0504,-1.9682,-1.8222,-1.5384,-1.3611,0.0,0.0,0.0,0.0,0.0,0.0,0.0,0.0,0.0,0.0,0.0,-1.1486,0.0,-1.4272,0.0,-1.4879,-1.496,-1.5062,-1.4954,-1.4453,-1.4598,-1.5839,-1.5836,-1.5687,-1.5485,-1.5817,-1.6117,-1.6237,-1.6082,-1.6103,-1.648,-1.6066,-1.5374,-1.4598,-1.4586,-1.442,-1.3711,-1.3801,-1.3871,-1.3565,-1.3545,-1.3533,-1.3369,-1.3223,-1.2977,-1.2622,-1.2709,-1.2844,-1.2752,-1.2539,-1.2412,-1.2686,-1.2378,-1.1853,-1.1373,-1.0998,-1.0431,-0.967,-0.7927,-0.6362,-2.8082,-2.8026,-2.8007,-2.8421,-2.9013,-2.8313,-2.7974,-2.7895,-2.7889,-2.788,-2.7856,-2.7786,-2.7491,-2.709,-2.7186,-2.7068,-2.6794,-2.747,-2.7769,-2.7789,-2.8541,-2.8918,-2.8998,-2.9722,-2.9642,-2.8879,-3.0004,-3.0045,-2.9122,-2.9588,-2.9753,-2.9615,-2.8624,-2.77,-2.6804,-2.4464,-2.3307,-2.3392,-2.5456,-2.669,-2.6991,-2.6878,-2.613,-2.4778,-2.4611,-2.3954,-2.262,-2.2527,-2.179,-2.0264,-1.9565,-1.896,-1.8411,-1.5606,-1.4101,0.0,-1.2099,0.0,0.0,0.0,0.0,0.0,0.0,0.0,0.0,-1.1785,-1.4406,-1.425,-1.7259,-1.8428,-1.6546,-1.6942,-1.7315,-1.7363,-1.7096,-1.7103,-1.7547,-1.7428,-1.7255,-1.7096,-1.7069,-1.7096,-1.718,-1.6804,-1.6561,-1.6774,-1.6281,-1.5714,-1.5204,-1.4681,-1.416,-1.3632,-1.3369,-1.3243,-1.2922,-1.2627,-1.2489,-1.2447,-1.2442,-1.2401,-1.2522,-1.2401,-1.229,-1.2403,-1.2481,-1.2437,-1.2262,-1.2436,-1.2246,-1.135,-1.1091,-1.077,-0.9917,-0.8389,-0.6956,-2.9735,-2.9726,-2.9733,-2.9803,-2.9937,-2.9803,-2.961,-2.9455,-2.9404,-2.9355,-2.929,-2.913,-2.9073,-2.912,-2.9045,-2.8858,-2.8607,-2.8798,-2.8787,-2.8579,-2.8796,-2.9071,-2.9386,-2.9512,-2.9683,-2.9882,-2.9828,-2.972,-2.9564,-2.9471,-2.9059,-2.8357,-2.7554,-2.6431,-2.5074,0.0,0.0,0.0,-2.5115,-2.5509,-2.5423,-2.499,-2.4555,-2.4102,-2.4366,0.0,-2.334,-2.3231,-2.2553,-2.1151,-2.0878,0.0,0.0,0.0,0.0,0.0,0.0,0.0,0.0,0.0,0.0,0.0,-1.7013,-1.3988,-0.9519,-1.5133,-1.8673,-1.7644,-1.8547,-1.9298,-1.9522,-1.9444,-1.9408,-1.9413,-1.8939,-1.8659,-1.8762,-1.8539,-1.8415,-1.8489,-1.8488,-1.853,-1.8565,-1.8106,-1.7807,-1.8035,-1.736,-1.6578,-1.6055,-1.5105,-1.4287,-1.3898,-1.3547,-1.322,-1.2873,-1.2597,-1.2474,-1.2427,-1.2274,-1.2285,-1.2536,-1.2561,-1.2616,-1.2764,-1.2798,-1.2718,-1.2498,-1.2227,-1.1843,-1.1175,-1.0413,-0.9725,-0.9413,-0.8856,-0.8051,-3.0204,0.0,-3.0204,-3.015,0.0,-3.0049,-2.9888,-2.9626,-2.9855,-2.9822,-2.9589,-2.9502,-2.9394,-2.9304,-2.9272,-2.9366,-2.9549,-2.9351,-2.9424,-2.9679,-2.9516,-2.9547,-2.9751,-3.0157,-3.0201,-2.9972,-3.0455,-3.0438,-2.9988,-3.0131,-3.0002,-2.9591,-2.8844,-2.808,-2.7283,-2.6505,-2.5778,-2.505,-2.5326,-2.5573,-2.5808,-2.559,-2.5038,-2.425,0.0,0.0,0.0,0.0,0.0,0.0,0.0,0.0,0.0,0.0,0.0,-1.8477,-1.7182,-1.5889,-1.4882,-1.6152,-1.8329,-2.1251,-1.9797,-1.7435,-1.4334,-1.8702,-2.1109,-2.0101,-2.0545,-2.0933,-2.098,-2.0709,-2.039,-2.0056,-1.9581,-1.9253,-1.9113,-1.9013,-1.8943,-1.8931,-1.8946,-1.8991,-1.909,-1.8756,-1.8617,-1.8777,-1.8113,-1.7455,-1.7116,-1.592,-1.4774,-1.402,-1.3585,-1.3372,-1.3299,-1.3004,-1.2855,-1.2938,-1.2874,-1.2902,-1.3098,-1.3065,-1.3149,-1.3429,-1.3235,-1.2882,-1.2667,-1.2255,-1.1619,-1.0762,-1.0285,-0.9751,-0.9047,-0.8521,-0.8111,-3.0204,-3.0204,-3.0157,-3.0049,-2.9907,-2.9883,-2.9644,-2.9336,0.0,0.0,0.0,-2.9561,-2.9365,-2.8975,-2.926,-2.9623,-2.9982,-2.9746,-3.0019,-3.0686,-3.0386,-3.0271,-3.0368,-3.0985,-3.0877,-3.0177,-3.12,-3.1258,-3.0481,-3.0983,-3.123,-3.1145,-3.0347,-2.9788,-2.9431,-2.8246,-2.6995,-2.5845,-2.5573,-2.5725,-2.6285,-2.6216,-2.5589,-2.4321,-2.5017,-2.4847,-2.3661,-2.4186,-2.3881,-2.2564,-2.1987,-2.1415,-2.0786,-1.9662,-1.9315,-1.9938,-1.952,-1.9178,-1.9093,-1.9791,-2.1042,-2.2974,-2.1678,-2.0585,-2.0043,-2.1678,-2.2525,-2.2022,-2.2436,-2.244,-2.1837,-2.1472,-2.1059,-2.0454,-2.0043,-1.9745,-1.9529,-1.9472,-1.9479,-1.9359,-1.9408,-1.9419,-1.951,-1.9365,-1.9302,-1.9339,-1.8887,-1.8298,-1.8065,-1.6741,-1.5288,-1.4369,-1.4031,-1.3817,-1.3747,-1.3625,-1.3492,-1.3697,-1.3629,-1.3676,-1.3894,-1.385,-1.3879,-1.4127,-1.3624,-1.3136,-1.2822,-1.2295,-1.1476,-1.032,-1.0303,-1.0131,-0.8811,-0.8123,-0.7904,-3.0204,-3.0178,-3.0011,-2.9921,-2.988,-2.9716,-2.9542,-2.9349,-2.9166,-2.9101,-2.9203,-2.9777,-2.9681,-2.9145,-3.0418,-3.063,-3.005,-3.0641,-3.0997,0.0,-3.1066,-3.1259,-3.1613,-3.1347,-3.1372,-3.1637,-3.1497,-3.1357,-3.1325,-3.1408,-3.1404,-3.1142,-2.9918,-2.8573,-2.7266,-2.6962,-2.6742,-2.6522,-2.5475,-2.4876,-2.4811,-2.4366,-2.394,-2.3611,-2.4305,-2.4575,-2.4355,-2.4474,-2.4118,-2.3291,-2.3212,-2.3136,-2.3034,-2.2907,-2.3223,-2.3913,-2.3936,-2.3721,-2.3292,-2.3829,-2.4319,-2.456,-2.3249,-2.2567,-2.3106,-2.288,-2.2901,-2.3388,-2.306,-2.2664,-2.253,-2.2269,-2.1989,-2.186,-2.136,-2.1017,-2.0906,-2.0687,-2.0528,-2.0544,-2.0735,-2.0767,-2.0732,-2.0391,-2.0262,-2.0604,-1.9925,-1.9182,-1.8487,-1.711,-1.5845,-1.5176,-1.5131,-1.4889,-1.4399,-1.4114,-1.4305,-1.4482,-1.4202,-1.4266,-1.4965,-1.4767,-1.4506,-1.4456,-1.3988,-1.3457,-1.2943,-1.2267,-1.15,-1.0568,-1.0123,-0.951,-0.8778,-0.8521,-0.8282,-3.0034,-3.0019,-2.983,-2.9672,-2.9542,-2.9324,-2.9407,-2.9694,-2.9563,-2.9312,-2.9119,-2.9746,-2.9875,-2.9697,-3.0708,-3.124,-3.13,-3.1193,-3.1392,-3.1801,-3.141,-3.1304,-3.1481,-3.1304,-3.133,-3.1543,-3.1351,-3.1271,-3.1344,-3.1327,-3.1308,-3.1184,-3.0166,-2.8842,-2.7402,-2.73,-2.7097,-2.6691,-2.6128,-2.5789,-2.5692,-2.5466,-2.5296,-2.5186,-2.554,-2.5676,-2.5709,-2.5692,-2.5524,-2.5203,-2.4859,-2.4717,-2.4795,-2.4523,-2.4499,-2.4827,-2.4918,-2.495,-2.4923,-2.5203,-2.5252,-2.4964,-2.4333,-2.4264,-2.4976,-2.5128,-2.4983,-2.4519,-2.4129,-2.3939,-2.3922,-2.3289,-2.2846,-2.2863,-2.2104,-2.1527,-2.1341,-2.1199,-2.1023,-2.091,-2.0958,-2.1038,-2.1183,-2.0957,-2.0859,-2.1134,-2.0559,-1.988,-1.9196,-1.8319,-1.7302,-1.6243,-1.5975,-1.5892,-1.5631,-1.5631,-1.5679,-1.5727,-1.5528,-1.5411,-1.5565,-1.5255,-1.5005,-1.4663,-1.4235,-1.3671,-1.303,-1.2335,-1.1633,-1.104,-1.0533,-0.9976,-0.9354,-0.8837,-0.8256,-2.9872,-2.9822,-2.9617,-2.9415,-2.9188,-2.898,-2.9302,-2.9933,-2.997,-2.9771,-2.9575,-3.0209,-3.0438,-3.0352,-3.1215,-3.1906,-3.2218,-3.1738,-3.1855,-3.2366,-3.1768,-3.1447,-3.1428,-3.1368,-3.1293,-3.1291,-3.1249,-3.119,-3.119,-3.119,-3.1106,-3.0886,-3.0209,-2.9159,-2.7824,-2.7638,-2.7266,-2.6725,-2.6708,-2.6708,-2.6708,-2.6708,-2.6691,-2.6708,-2.6691,-2.6708,-2.6708,-2.6708,-2.6708,-2.6657,-2.6215,-2.6008,-2.6088,-2.5653,-2.5371,-2.5388,-2.5431,-2.5616,-2.5932,-2.6029,-2.5889,-2.55,-2.5493,-2.5764,-2.6331,-2.6924,-2.6725,-2.5498,-2.5074,-2.4954,-2.4824,-2.4176,-2.3642,-2.3562,-2.2748,-2.2047,-2.1616,-2.1472,-2.1279,-2.0973,-2.0893,-2.0974,-2.1087,-2.1167,-2.1183,-2.1198,-2.0909,-2.0412,-1.9892,-1.953,-1.8695,-1.7748,-1.7038,-1.6835,-1.7086,-1.693,-1.6816,-1.6793,-1.6632,-1.6355,-1.6022,-1.5812,-1.549,-1.5039,-1.4548,-1.4084,-1.346,-1.2759,-1.2138,-1.1641,-1.1183,-1.0608,-0.9718,-0.9099,-0.8421,-2.9796,-2.9617,-2.9415,-2.9185,-2.8934,-2.8846,-2.9229,-2.987,-2.9893,-3.028,-3.0848,-3.1769,-3.1678,-3.1274,-3.2551,-3.2849,-3.231,-3.2527,-3.2643,-3.2665,-3.2368,-3.2196,-3.2092,-3.1787,-3.1657,-3.1582,-3.1329,-3.119,-3.119,-3.119,-3.0852,-3.0192,-2.9467,-2.8688,-2.7807,-2.7148,-2.6776,-2.6708,-2.6708,-2.6708,-2.6708,-2.6708,-2.6708,-2.6708,-2.6708,-2.6708,-2.6708,-2.6708,-2.6708,-2.6708,-2.6741,-2.679,-2.6773,-2.6788,-2.6802,-2.6768,-2.6847,-2.6979,-2.7111,-2.7144,-2.7075,-2.7092,-2.7006,-2.704,-2.7144,-2.726,-2.6966,-2.6094,-2.5404,-2.5143,-2.4976,-2.4607,-2.4372,-2.434,-2.367,-2.2976,-2.2361,-2.1981,-2.1571,-2.0874,-2.094,-2.091,-2.0974,-2.1038,-2.1119,-2.1215,-2.1022,-2.0745,-2.0545,-2.015,-1.9693,-1.9261,-1.8899,-1.8181,-1.7557,-1.7244,-1.7341,-1.7377,-1.7017,-1.6849,-1.6759,-1.6441,-1.5949,-1.572,-1.5141,-1.4675,-1.4352,-1.3768,-1.2957,-1.2517,-1.1789,-1.0778,-0.9899,-0.9406,-0.8968,-2.9465,-2.9355,-2.9144,-2.8968,-2.8779,-2.8761,-2.9166,-2.9823,-2.9842,-3.0522,-3.1641,-3.187,-3.1867,-3.1795,-3.2703,-3.2886,-3.254,-3.2277,-3.2162,-3.2127,-3.1822,-3.1673,-3.1637,-3.1504,-3.1408,-3.1408,-3.1252,-3.119,-3.119,-3.119,-3.0598,-2.955,-2.9145,-2.84,-2.7232,-2.6843,-2.6708,-2.6708,-2.6708,-2.6708,-2.6708,-2.6708,-2.6708,-2.6708,-2.6708,-2.6708,-2.6708,-2.6708,-2.6708,-2.6708,-2.6742,-2.6826,-2.6876,-2.6926,-2.6959,-2.6991,-2.7054,-2.7103,-2.7122,-2.7235,-2.7266,-2.7201,-2.7266,-2.7315,-2.7315,-2.7315,-2.7144,-2.6851,-2.6523,-2.635,-2.6266,-2.5783,-2.5415,-2.5285,-2.4572,-2.3786,-2.3309,-2.2959,-2.2444,-2.162,-2.1476,-2.132,-2.1021,-2.1006,-2.1119,-2.1183,-2.1103,-2.1007,-2.0827,-2.0512,-2.0152,-1.9759,-1.9435,-1.897,-1.8238,-1.8144,-1.8112,-1.7978,-1.7764,-1.7658,-1.7328,-1.7214,-1.6833,-1.6471,-1.5918,-1.542,-1.5118,-1.448,-1.3768,-1.3335,-1.2565,-1.155,-1.1091,-1.009,-0.9256,-2.9249,-2.913,-2.8945,-2.8803,-2.8706,-2.8589,-2.9016,-2.9735,-2.9705,-3.0549,-3.1946,-3.1727,-3.1821,-3.2247,-3.2531,-3.2666,-3.2584,-3.1986,-3.1712,-3.1658,-3.1368,-3.119,-3.119,-3.119,-3.119,-3.119,-3.119,-3.119,-3.119,-3.119,-3.0531,-2.945,-2.9111,-2.8333,-2.7131,-2.6826,-2.6708,-2.6708,-2.6708,-2.6708,-2.6708,-2.6708,-2.6708,-2.6708,-2.6708,-2.6708,-2.6708,-2.6708,-2.6708,-2.6708,-2.6708,-2.6725,-2.6825,-2.6842,-2.6893,-2.6958,-2.7023,-2.7055,-2.7023,-2.7169,-2.72,-2.7168,-2.7233,-2.7315,-2.7315,-2.7315,-2.7234,-2.7104,-2.7138,-2.7103,-2.7213,-2.6686,-2.6297,-2.6198,-2.5387,-2.4728,-2.4282,-2.3929,-2.3341,-2.2507,-2.2034,-2.1633,-2.1051,-2.0958,-2.1054,-2.1103,-2.1167,-2.1183,-2.0941,-2.0794,-2.0561,-2.0174,-1.995,-1.95,-1.8954,-1.8712,-1.8669,-1.8567,-1.8344,-1.8153,-1.7781,-1.7679,-1.7496,-1.6959,-1.6621,-1.6256,-1.5842,-1.5197,-1.4525,-1.4143,-1.3426,-1.2502,-1.1929,-1.0762,-0.9935,-2.9185,-2.9005,-2.8858,-2.8785,-2.8761,-2.8347,-2.877,-2.9654,-2.9412,-3.0148,-3.1433,-3.1517,-3.182,-3.2227,-3.2247,-3.2317,-3.2266,-3.186,-3.1675,-3.1638,-3.1349,-3.119,-3.119,-3.119,-3.119,-3.119,-3.119,-3.119,-3.119,-3.1173,-3.0801,-3.0023,-2.9314,-2.8569,-2.762,-2.6945,-2.6691,-2.6657,-2.6657,-2.6691,-2.6708,-2.6708,-2.6708,-2.6708,-2.6708,-2.6708,-2.6708,-2.6708,-2.6708,-2.6708,-2.6708,-2.6708,-2.6725,-2.6725,-2.6758,-2.6876,-2.6892,-2.6975,-2.707,-2.7103,-2.7152,-2.7266,-2.7283,-2.7315,-2.7315,-2.7315,-2.7153,-2.6808,-2.6842,-2.6957,-2.7153,-2.6805,-2.6572,-2.6556,-2.6216,-2.5658,-2.5094,-2.4629,-2.4179,-2.3409,-2.2474,-2.1698,-2.0953,-2.086,-2.0909,-2.0942,-2.1038,-2.1103,-2.1087,-2.1054,-2.1003,-2.0897,-2.0565,-2.01,-1.9213,-1.8969,-1.886,-1.8765,-1.8721,-1.8581,-1.8293,-1.8022,-1.776,-1.7516,-1.7256,-1.6921,-1.6509,-1.5976,-1.5321,-1.4789,-1.426,-1.3511,-1.2623,-1.2086,-1.1141,-2.9003,-2.8858,-2.8724,-2.8538,-2.8378,-2.8391,-2.8527,-2.8681,-2.8568,-2.9133,-3.0027,-3.0173,-3.0575,-3.1237,-3.1487,-3.1712,-3.1878,-3.1543,-3.1353,-3.137,-3.1269,-3.119,-3.119,-3.119,-3.119,-3.119,-3.119,-3.119,-3.119,-3.119,-3.0565,-2.9533,-2.9145,-2.8276,-2.6935,-2.6465,-2.6315,-2.6315,-2.6315,-2.6436,-2.6657,-2.6708,-2.6708,-2.6708,-2.6708,-2.6708,-2.6708,-2.6708,-2.6708,-2.6708,-2.6708,-2.6708,-2.6708,-2.6708,-2.6725,-2.6775,-2.6825,-2.6926,-2.6957,-2.7024,-2.7071,-2.7168,-2.7268,-2.7302,-2.7316,-2.7299,-2.7234,-2.7122,-2.7072,-2.7088,-2.6842,-2.6556,-2.6315,-2.6279,-2.5962,-2.5664,-2.5359,-2.5035,-2.4531,-2.3763,-2.2699,-2.1791,-2.1489,-2.1112,-2.086,-2.0893,-2.0942,-2.1006,-2.107,-2.1087,-2.1021,-2.0804,-2.0605,-2.0306,-1.9777,-1.9376,-1.9176,-1.9124,-1.903,-1.8779,-1.8528,-1.8464,-1.8254,-1.8121,-1.7882,-1.7537,-1.7131,-1.6774,-1.6126,-1.5632,-1.5084,-1.4238,-1.3212,-1.2638,-1.1632,-2.8888,-2.8773,-2.8569,-2.8339,-2.8143,-2.8246,-2.8197,-2.7964,-2.7982,-2.8351,-2.8916,-2.9034,-2.9437,-3.0035,-3.0376,-3.0615,-3.0855,-3.1036,-3.119,-3.119,-3.119,-3.119,-3.119,-3.119,-3.119,-3.119,-3.119,-3.119,-3.119,-3.119,-3.0431,-2.9077,-2.8993,-2.8089,-2.6566,-2.6158,-2.6087,-2.6087,-2.6087,-2.6192,-2.6315,-2.6436,-2.6521,-2.6505,-2.6505,-2.659,-2.6708,-2.6708,-2.6708,-2.6708,-2.6708,-2.6708,-2.6708,-2.6708,-2.6708,-2.6725,-2.6792,-2.6859,-2.6909,-2.6942,-2.6991,-2.7071,-2.717,-2.7235,-2.7233,-2.7266,-2.7234,-2.7137,-2.7072,-2.6892,-2.6367,-2.5997,-2.5888,-2.6015,-2.5854,-2.5707,-2.5687,-2.5368,-2.478,-2.3995,-2.318,-2.2451,-2.1899,-2.1458,-2.1128,-2.0924,-2.086,-2.0925,-2.099,-2.099,-2.0924,-2.0662,-2.0627,-2.0544,-2.022,-1.9839,-1.9457,-1.9347,-1.9254,-1.9007,-1.8893,-1.8831,-1.875,-1.8659,-1.8431,-1.8101,-1.7781,-1.7455,-1.7013,-1.6502,-1.5884,-1.5118,-1.4136,-1.3192,-1.2273,-2.8785,-2.8724,-2.836,-2.8197,-2.8102,-2.7886,-2.773,-2.7728,-2.7716,-2.7919,-2.8257,-2.8318,-2.863,-2.8964,-2.9197,-2.913,-2.9453,-3.0431,-3.0987,-3.1072,-3.1157,-3.119,-3.119,-3.119,-3.119,-3.1173,-3.1157,-3.114,-3.1089,-3.0954,-3.0245,-2.9162,-2.8874,-2.8076,-2.6657,-2.6245,-2.6052,-2.6034,-2.5998,-2.5888,-2.5615,-2.5908,-2.6104,-2.6104,-2.6104,-2.6245,-2.6624,-2.6674,-2.6708,-2.6708,-2.6708,-2.6708,-2.6708,-2.6708,-2.6708,-2.6708,-2.6708,-2.6775,-2.6876,-2.6893,-2.6909,-2.6975,-2.7039,-2.7022,-2.7038,-2.7087,-2.7006,-2.6741,-2.6641,-2.6332,-2.5649,-2.5424,-2.5519,-2.5961,-2.5872,-2.5872,-2.589,-2.5689,-2.5091,-2.4189,-2.3762,-2.3254,-2.2293,-2.1805,-2.1554,-2.1095,-2.0858,-2.0827,-2.0859,-2.0859,-2.0826,-2.0778,-2.0663,-2.0529,-2.0446,-2.0294,-1.9874,-1.953,-1.9435,-1.9284,-1.9221,-1.918,-1.9007,-1.8879,-1.8639,-1.8313,-1.8062,-1.774,-1.7455,-1.6972,-1.6437,-1.5784,-1.4778,-1.3786,-1.3116,-2.8589,-2.8373,-2.821,-2.8006,-2.784,-2.7742,-2.7716,-2.7672,-2.7459,-2.7428,-2.7578,-2.7827,-2.803,-2.8282,-2.8722,-2.8976,-2.9044,-2.9517,-2.9939,-3.0429,-3.0937,-3.1173,-3.1173,-3.1173,-3.119,-3.1089,-3.0666,-3.0427,-3.0342,-2.9956,-2.9145,-2.8366,-2.8161,-2.7498,-2.6365,-2.5908,-2.5672,-2.5654,-2.5408,-2.5332,-2.5484,-2.5615,-2.5689,-2.5689,-2.5689,-2.5762,-2.5906,-2.6401,-2.6674,-2.6674,-2.6708,-2.6708,-2.6691,-2.6708,-2.6708,-2.6708,-2.6708,-2.6708,-2.6759,-2.6758,-2.6809,-2.6842,-2.6708,-2.6607,-2.659,-2.6419,-2.6298,-2.6228,-2.6367,-2.6211,-2.5631,-2.5631,-2.5575,-2.5262,-2.5208,-2.5304,-2.5381,-2.5266,-2.5031,-2.4692,-2.4223,-2.3699,-2.3193,-2.2641,-2.1884,-2.1521,-2.1142,-2.0857,-2.081,-2.081,-2.081,-2.0794,-2.0629,-2.0496,-2.0429,-2.0224,-1.9821,-1.9566,-1.9475,-1.9435,-1.9424,-1.9387,-1.9203,-1.9049,-1.8798,-1.8562,-1.8293,-1.8055,-1.7794,-1.7393,-1.6833,-1.6046,-1.5139,-1.4355,-1.3663,-2.8365,-2.8143,-2.788,-2.7681,-2.7504,-2.7522,-2.7461,-2.7336,-2.7244,-2.7116,-2.7075,-2.725,-2.7384,-2.7503,-2.7943,-2.8147,-2.8163,-2.8417,-2.8805,-2.9397,-3.0378,-3.0784,-3.0762,-3.0628,-3.0387,-3.0079,-2.9546,-2.9268,-2.9235,-2.8784,-2.8148,-2.7478,-2.7361,-2.6977,-2.6117,-2.5559,-2.5349,-2.5424,-2.5121,-2.4962,-2.5063,-2.5198,-2.5291,-2.5291,-2.5275,-2.5351,-2.5521,-2.6015,-2.6245,-2.6245,-2.6263,-2.6315,-2.6453,-2.647,-2.6539,-2.6674,-2.6708,-2.6691,-2.6708,-2.6725,-2.6742,-2.6759,-2.6487,-2.633,-2.6296,-2.5998,-2.5872,-2.5944,-2.607,-2.5962,-2.5481,-2.5443,-2.5307,-2.4806,-2.4822,-2.4862,-2.4966,-2.5005,-2.5005,-2.4859,-2.459,-2.4239,-2.3749,-2.332,-2.239,-2.2011,-2.1505,-2.1015,-2.0921,-2.081,-2.081,-2.0778,-2.0695,-2.0562,-2.0444,-2.0137,-1.9747,-1.9603,-1.9512,-1.9475,-1.946,-1.9402,-1.9269,-1.9143,-1.8936,-1.8716,-1.847,-1.8386,-1.8155,-1.7686,-1.718,-1.6489,-1.5662,-1.4903,-1.4167,-2.8071,-2.7978,-2.7426,-2.7244,-2.7213,-2.7197,-2.7053,-2.6858,-2.7021,-2.6989,-2.6775,-2.6793,-2.6776,-2.6742,-2.6945,-2.6962,-2.686,-2.7452,-2.7773,-2.8213,-2.9159,-2.9886,-2.9966,-2.9641,-2.9164,-2.8608,-2.8046,-2.7785,-2.7809,-2.7593,-2.7283,-2.6568,-2.6528,-2.6409,-2.5914,-2.5256,-2.5102,-2.5313,-2.504,-2.4679,-2.4426,-2.4679,-2.4863,-2.4863,-2.4883,-2.502,-2.5275,-2.5389,-2.5465,-2.5503,-2.5596,-2.5762,-2.598,-2.6052,-2.6244,-2.6521,-2.6607,-2.659,-2.6607,-2.6505,-2.659,-2.6674,-2.6331,-2.6243,-2.6137,-2.5781,-2.5542,-2.5596,-2.5649,-2.5551,-2.5192,-2.5114,-2.4895,-2.4655,-2.4686,-2.4806,-2.4962,-2.4946,-2.4926,-2.4966,-2.4938,-2.4764,-2.4109,-2.3888,-2.3209,-2.2485,-2.2011,-2.1471,-2.1125,-2.0951,-2.0826,-2.0729,-2.0646,-2.0513,-2.0361,-2.0065,-1.969,-1.9439,-1.9369,-1.9369,-1.9387,-1.9328,-1.9176,-1.9068,-1.9011,-1.8817,-1.8625,-1.8503,-1.8293,-1.7868,-1.7374,-1.6883,-1.6145,-1.5253,-1.4433,-2.7837,-2.7411,-2.726,-2.7197,-2.7165,-2.6956,-2.694,-2.7037,-2.6891,-2.6791,-2.6691,-2.6708,-2.6708,-2.6708,-2.6708,-2.6708,-2.6776,-2.6911,-2.6996,-2.7131,-2.7925,-2.8683,-2.894,-2.8627,-2.8277,-2.7958,-2.7073,-2.6687,-2.6635,-2.6194,-2.5808,-2.5603,-2.5651,-2.5669,-2.5481,-2.5118,-2.4962,-2.5001,-2.4659,-2.4446,-2.4343,-2.4405,-2.4451,-2.4451,-2.4472,-2.4513,-2.4619,-2.4619,-2.4922,-2.5465,-2.5519,-2.554,-2.5633,-2.5652,-2.5726,-2.587,-2.5872,-2.5926,-2.605,-2.5944,-2.6104,-2.6539,-2.5852,-2.5406,-2.5687,-2.5082,-2.4819,-2.4855,-2.5052,-2.5111,-2.4831,-2.4895,-2.4835,-2.4605,-2.4605,-2.467,-2.471,-2.471,-2.4746,-2.4842,-2.4862,-2.476,-2.4614,-2.4235,-2.3793,-2.3257,-2.2542,-2.1749,-2.1435,-2.1041,-2.0884,-2.066,-2.0529,-2.0395,-2.0224,-1.9925,-1.9603,-1.9291,-1.9184,-1.9169,-1.9188,-1.9188,-1.8955,-1.8721,-1.8798,-1.8664,-1.8548,-1.8411,-1.8161,-1.7888,-1.7305,-1.6676,-1.6039,-1.5254,-1.4479,-2.7517,-2.7197,-2.7053,-2.6989,-2.6972,-2.6792,-2.6825,-2.694,-2.6791,-2.6708,-2.6708,-2.6708,-2.6708,-2.6708,-2.6708,-2.6708,-2.6708,-2.6708,-2.6708,-2.6742,-2.6956,-2.7542,-2.7988,-2.7709,-2.7179,-2.6717,-2.583,-2.5392,-2.5273,-2.4876,-2.4719,-2.4715,-2.4764,-2.4883,-2.504,-2.4719,-2.4659,-2.4739,-2.4426,-2.4213,-2.4281,-2.4276,-2.4276,-2.4281,-2.4281,-2.4281,-2.4317,-2.4302,-2.4533,-2.4902,-2.5001,-2.5079,-2.5253,-2.5256,-2.5313,-2.5481,-2.5519,-2.5596,-2.567,-2.5577,-2.5726,-2.5944,-2.5332,-2.5102,-2.5102,-2.4643,-2.4343,-2.4462,-2.465,-2.465,-2.4584,-2.4726,-2.4706,-2.4482,-2.4462,-2.4508,-2.4589,-2.4609,-2.4645,-2.4686,-2.4726,-2.4782,-2.4902,-2.4493,-2.4197,-2.3838,-2.3198,-2.2438,-2.179,-2.1332,-2.0889,-2.0631,-2.0556,-2.0489,-2.0308,-2.003,-1.9764,-1.9406,-1.8884,-1.8888,-1.8926,-1.8945,-1.8846,-1.8644,-1.8625,-1.8567,-1.8431,-1.8274,-1.8002,-1.7625,-1.706,-1.6497,-1.5898,-1.5254,-1.4456,-2.7165,-2.7135,-2.6825,-2.6708,-2.6708,-2.6708,-2.6708,-2.6725,-2.6708,-2.6708,-2.6708,-2.6708,-2.6708,-2.6708,-2.6708,-2.6708,-2.6708,-2.6607,-2.6522,-2.6401,-2.6305,-2.6495,-2.7085,-2.6513,-2.5922,-2.529,-2.4374,-2.4118,-2.4149,-2.4061,-2.3988,-2.4036,-2.403,-2.4183,-2.4436,-2.4183,-2.4302,-2.4513,-2.4261,-2.413,-2.4234,-2.425,-2.425,-2.4297,-2.4281,-2.4281,-2.4281,-2.4281,-2.4343,-2.4302,-2.4281,-2.4533,-2.4803,-2.4843,-2.4965,-2.5218,-2.5253,-2.5275,-2.5332,-2.5275,-2.5389,-2.5392,-2.5102,-2.4883,-2.4843,-2.4538,-2.4302,-2.4317,-2.4281,-2.44,-2.4477,-2.4498,-2.4441,-2.4359,-2.4317,-2.4385,-2.4508,-2.4569,-2.4569,-2.4605,-2.4589,-2.465,-2.4726,-2.4755,-2.4602,-2.4253,-2.366,-2.302,-2.2405,-2.1965,-2.1279,-2.0547,-2.0541,-2.0634,-2.0419,-2.0154,-1.9877,-1.9573,-1.8808,-1.8539,-1.8558,-1.8597,-1.8688,-1.8644,-1.8523,-1.8386,-1.8288,-1.8075,-1.7875,-1.7434,-1.6892,-1.6389,-1.5832,-1.5164,-1.4421,-2.7037,-2.6825,-2.6725,-2.6708,-2.6708,-2.6708,-2.6708,-2.6708,-2.6708,-2.6708,-2.6708,-2.6708,-2.6708,-2.6708,-2.6708,-2.6708,-2.6607,-2.6367,-2.6068,-2.5687,-2.5594,-2.5473,-2.559,-2.5147,-2.4815,-2.4456,-2.4,-2.3717,-2.3696,-2.3717,-2.3674,-2.3696,-2.3818,-2.3882,-2.3952,-2.4009,-2.4024,-2.4135,-2.4046,-2.4067,-2.4172,-2.4187,-2.4193,-2.4276,-2.4261,-2.4281,-2.4281,-2.4281,-2.4281,-2.4281,-2.4302,-2.4364,-2.4451,-2.4472,-2.4533,-2.4614,-2.4599,-2.4594,-2.4594,-2.4639,-2.4759,-2.5063,-2.4764,-2.4553,-2.4859,-2.4533,-2.4323,-2.4281,-2.4281,-2.4317,-2.4359,-2.4343,-2.4323,-2.4302,-2.4281,-2.4302,-2.4364,-2.4364,-2.4441,-2.4498,-2.4518,-2.4544,-2.463,-2.4666,-2.4565,-2.4469,-2.4085,-2.3534,-2.3028,-2.2543,-2.1803,-2.0956,-2.1062,-2.1142,-2.0518,-2.0187,-1.9806,-1.9485,-1.8812,-1.8274,-1.8274,-1.826,-1.8352,-1.8366,-1.8321,-1.8222,-1.8129,-1.8029,-1.7848,-1.7289,-1.6735,-1.6246,-1.5684,-1.5017,-1.4559,-2.6858,-2.6691,-2.6708,-2.6708,-2.6708,-2.6708,-2.6708,-2.6708,-2.6708,-2.6708,-2.6708,-2.6708,-2.6708,-2.6708,-2.6657,-2.6572,-2.6297,-2.589,-2.5446,-2.5118,-2.502,-2.4843,-2.4522,-2.4313,-2.4183,-2.4224,-2.3852,-2.3616,-2.3595,-2.3595,-2.3595,-2.3595,-2.3674,-2.3696,-2.3696,-2.3797,-2.3861,-2.3882,-2.3839,-2.3903,-2.4082,-2.4046,-2.4067,-2.4151,-2.4156,-2.4193,-2.4234,-2.4234,-2.4271,-2.4271,-2.4255,-2.4276,-2.4281,-2.4281,-2.4281,-2.4281,-2.4281,-2.4281,-2.4302,-2.4302,-2.4431,-2.4699,-2.4431,-2.4451,-2.4533,-2.4405,-2.4323,-2.4281,-2.4281,-2.4281,-2.4281,-2.4281,-2.4281,-2.4281,-2.4281,-2.4281,-2.4281,-2.4281,-2.4317,-2.44,-2.44,-2.4462,-2.4503,-2.4544,-2.4574,-2.4509,-2.4454,-2.3918,-2.3417,-2.2929,-2.2352,-2.1797,-2.1849,-2.161,-2.0796,-2.0215,-1.966,-1.9266,-1.8774,-1.8299,-1.8089,-1.8049,-1.8029,-1.8063,-1.8083,-1.8063,-1.7983,-1.7902,-1.7624,-1.6994,-1.6433,-1.6035,-1.5636,-1.517,-1.4749,-2.6708,-2.6708,-2.6708,-2.6708,-2.6708,-2.6708,-2.6708,-2.6708,-2.6708,-2.6708,-2.6708,-2.6708,-2.6708,-2.6691,-2.6572,-2.6261,-2.5779,-2.5354,-2.4926,-2.4522,-2.4482,-2.4292,-2.4015,-2.3946,-2.3946,-2.4135,-2.3803,-2.3595,-2.3595,-2.3595,-2.3595,-2.3595,-2.3595,-2.3616,-2.361,-2.3631,-2.3674,-2.3739,-2.3696,-2.3739,-2.3925,-2.3882,-2.3903,-2.4003,-2.4024,-2.4067,-2.4145,-2.4166,-2.4181,-2.4166,-2.4166,-2.4208,-2.4234,-2.4276,-2.4276,-2.4276,-2.4281,-2.4297,-2.4276,-2.4297,-2.4302,-2.4297,-2.4281,-2.4302,-2.4317,-2.4338,-2.4317,-2.4281,-2.4281,-2.4281,-2.4281,-2.4281,-2.4281,-2.4281,-2.4281,-2.4281,-2.4281,-2.4281,-2.4317,-2.4317,-2.4338,-2.4364,-2.4421,-2.4441,-2.4523,-2.4544,-2.4487,-2.4322,-2.3823,-2.3407,-2.2911,-2.2531,-2.254,-2.2075,-2.1272,-2.059,-2.0003,-1.9455,-1.8959,-1.8534,-1.8241,-1.8417,-1.8437,-1.7943,-1.7882,-1.7909,-1.7853,-1.771,-1.7282,-1.6638,-1.6386,-1.6243,-1.5841,-1.5339,-1.5012,-2.6708,-2.6708,-2.6708,-2.6708,-2.6708,-2.6708,-2.6725,-2.6708,-2.6725,-2.6708,-2.6759,-2.6708,-2.6674,-2.6623,-2.6314,-2.576,-2.5137,-2.4764,-2.4405,-2.4042,-2.3979,-2.3846,-2.376,-2.376,-2.3782,-2.3717,-2.3616,-2.3595,-2.3595,-2.3595,-2.3595,-2.3595,-2.3595,-2.3595,-2.3595,-2.3595,-2.3595,-2.3638,-2.3616,-2.3696,-2.376,-2.3818,-2.3839,-2.394,-2.3961,-2.3982,-2.4024,-2.4046,-2.4024,-2.4024,-2.404,-2.404,-2.4046,-2.413,-2.4187,-2.4229,-2.424,-2.4255,-2.4229,-2.424,-2.4255,-2.425,-2.4234,-2.4261,-2.4281,-2.4281,-2.4276,-2.4281,-2.4281,-2.4281,-2.4281,-2.4281,-2.4281,-2.4281,-2.4281,-2.4281,-2.4281,-2.4281,-2.4281,-2.4281,-2.4302,-2.4302,-2.4359,-2.438,-2.4421,-2.4462,-2.4421,-2.4421,-2.4189,-2.3947,-2.3692,-2.338,-2.3163,-2.2522,-2.1767,-2.1128,-2.0521,-1.9976,-1.9481,-1.8998,-1.8839,-1.9079,-1.8953,-1.8235,-1.7929,-1.7963,-1.7815,-1.7622,-1.7345,-1.699,-1.6776,-1.6545,-1.6219,-1.5843,-1.5442,-2.6708,-2.6708,-2.6708,-2.6708,-2.6708,-2.6708,-2.6928,-2.7181,-2.686,-2.7096,-2.7313,-2.6854,-2.653,-2.6504,-2.593,-2.5214,-2.4655,-2.4188,-2.3937,-2.3717,-2.3696,-2.3674,-2.3595,-2.3696,-2.3674,-2.3616,-2.3595,-2.3595,-2.3595,-2.3595,-2.3595,-2.3595,-2.3595,-2.3595,-2.3595,-2.3595,-2.3595,-2.3595,-2.3595,-2.3616,-2.3696,-2.3696,-2.3754,-2.3775,-2.3818,-2.3818,-2.3882,-2.3903,-2.3903,-2.3882,-2.3903,-2.3876,-2.3861,-2.3903,-2.4024,-2.4103,-2.413,-2.413,-2.4103,-2.4114,-2.4109,-2.4103,-2.413,-2.4151,-2.4151,-2.4151,-2.4172,-2.4234,-2.4281,-2.4281,-2.4281,-2.4261,-2.4255,-2.4281,-2.4261,-2.4276,-2.4281,-2.4281,-2.4281,-2.4297,-2.4297,-2.4281,-2.4281,-2.4338,-2.4359,-2.4338,-2.4317,-2.4359,-2.44,-2.4282,-2.4076,-2.3578,-2.3162,-2.2577,-2.1907,-2.1401,-2.0969,-2.0496,-2.0006,-1.9497,-1.917,-1.9268,-1.8868,-1.8196,-1.8081,-1.8244,-1.799,-1.7844,-1.7588,-1.7267,-1.685,-1.6544,-1.6556,-1.6356,-1.5956,-2.6708,-2.6708,-2.6708,-2.6776,-2.6911,-2.6911,-2.7316,-2.7754,-2.7329,-2.7663,-2.8431,-2.723,-2.6726,-2.6733,-2.6046,-2.5163,-2.4422,-2.4029,-2.3876,-2.3616,-2.3595,-2.3595,-2.3595,-2.3595,-2.3595,-2.3595,-2.3595,-2.3595,-2.3595,-2.3595,-2.3595,-2.3595,-2.3595,-2.3595,-2.3595,-2.3595,-2.3595,-2.3595,-2.3595,-2.3595,-2.3595,-2.3595,-2.3595,-2.3595,-2.3595,-2.3674,-2.376,-2.376,-2.376,-2.376,-2.376,-2.3717,-2.3638,-2.3696,-2.3818,-2.3903,-2.3982,-2.3982,-2.3961,-2.4003,-2.4003,-2.3982,-2.3982,-2.4003,-2.4003,-2.4046,-2.4046,-2.413,-2.4193,-2.4219,-2.4198,-2.4172,-2.4172,-2.4193,-2.4187,-2.4187,-2.4213,-2.4234,-2.4234,-2.4234,-2.4276,-2.4276,-2.4255,-2.4213,-2.4213,-2.4276,-2.4255,-2.4281,-2.4338,-2.4338,-2.4065,-2.3473,-2.2964,-2.2462,-2.1932,-2.1541,-2.1225,-2.0957,-2.0502,-2.0027,-1.9575,-1.9244,-1.8765,-1.8404,-1.8732,-1.8818,-1.8455,-1.7934,-1.7586,-1.7164,-1.6741,-1.6632,-1.6824,-1.6726,-1.6399,-2.6708,-2.6708,-2.6708,-2.7063,-2.7587,-2.7585,-2.8004,-2.8609,-2.8397,-2.8423,-2.8717,-2.7951,-2.7568,-2.7324,-2.6698,-2.5746,-2.5014,-2.4558,-2.4229,-2.3789,-2.364,-2.3595,-2.3595,-2.3595,-2.3595,-2.3595,-2.3595,-2.3595,-2.3595,-2.3595,-2.3595,-2.3595,-2.3595,-2.3595,-2.3595,-2.3595,-2.3595,-2.3595,-2.3595,-2.3595,-2.3595,-2.3595,-2.3595,-2.3595,-2.361,-2.3631,-2.3638,-2.3638,-2.3638,-2.3616,-2.3616,-2.3616,-2.3595,-2.3595,-2.3616,-2.3717,-2.3839,-2.3961,-2.3861,-2.3882,-2.3903,-2.3861,-2.3903,-2.3961,-2.3961,-2.3946,-2.3967,-2.4024,-2.4046,-2.4067,-2.4051,-2.4024,-2.4024,-2.4046,-2.4046,-2.4024,-2.4067,-2.4151,-2.4151,-2.413,-2.413,-2.4166,-2.4166,-2.4109,-2.4067,-2.413,-2.4193,-2.4177,-2.4057,-2.3888,-2.3782,-2.3113,-2.2579,-2.2076,-2.1809,-2.1416,-2.1273,-2.1203,-2.0887,-2.0446,-2.0025,-1.9543,-1.9067,-1.8901,-1.9117,-1.8779,-1.8001,-1.7528,-1.7361,-1.7247,-1.708,-1.7108,-1.723,-1.6996,-1.6602,-2.6708,-2.6725,-2.7131,-2.7503,-2.7841,-2.8245,-2.8852,-2.9303,-2.8902,-2.8976,-2.9094,-2.8025,-2.7222,-2.6808,-2.6183,-2.5773,-2.5243,-2.4897,-2.453,-2.4103,-2.3834,-2.361,-2.3595,-2.3595,-2.3595,-2.3595,-2.3595,-2.3595,-2.3595,-2.3595,-2.3595,-2.3595,-2.3595,-2.3595,-2.3595,-2.3595,-2.3595,-2.3595,-2.3595,-2.3595,-2.3595,-2.3595,-2.3595,-2.3595,-2.3595,-2.3595,-2.3595,-2.3595,-2.3595,-2.3595,-2.3595,-2.3595,-2.3595,-2.3595,-2.3595,-2.3595,-2.3696,-2.3739,-2.3696,-2.376,-2.3739,-2.3717,-2.3739,-2.376,-2.376,-2.3788,-2.3831,-2.3882,-2.3961,-2.3982,-2.3961,-2.3925,-2.3961,-2.3961,-2.3903,-2.3897,-2.3919,-2.4024,-2.4067,-2.4024,-2.3961,-2.394,-2.3961,-2.3982,-2.3839,-2.3674,-2.3631,-2.353,-2.3231,-2.2867,-2.2754,-2.2572,-2.2081,-2.1653,-2.1445,-2.1209,-2.1121,-2.104,-2.1016,-2.0641,-2.0357,-1.9914,-1.9317,-1.8655,-1.8392,-1.7955,-1.7364,-1.7445,-1.7614,-1.7571,-1.7507,-1.7295,-1.7032,-1.6634,-1.6089,-2.6708,-2.6759,-2.7486,-2.7908,-2.8162,-2.8906,-2.9631,-3.0184,-2.9421,-2.9439,-2.9463,-2.8301,-2.7039,-2.6431,-2.6288,-2.6156,-2.5839,-2.5307,-2.4889,-2.453,-2.4126,-2.3804,-2.3655,-2.3595,-2.3595,-2.3595,-2.3595,-2.3595,-2.3595,-2.3595,-2.3595,-2.3595,-2.3595,-2.3595,-2.3595,-2.3595,-2.3595,-2.3595,-2.3595,-2.3595,-2.3595,-2.3595,-2.3595,-2.3595,-2.3595,-2.3595,-2.3595,-2.3595,-2.3595,-2.3595,-2.3595,-2.3595,-2.3595,-2.3595,-2.3595,-2.3595,-2.3638,-2.3616,-2.3616,-2.3616,-2.3595,-2.3595,-2.3595,-2.3638,-2.3616,-2.3578,-2.3621,-2.376,-2.3818,-2.3861,-2.3861,-2.3782,-2.3797,-2.3818,-2.3782,-2.3775,-2.3754,-2.3732,-2.3545,-2.3268,-2.3268,-2.3545,-2.3625,-2.3812,-2.3653,-2.3275,-2.3076,-2.292,-2.2558,-2.217,-2.2077,-2.2053,-2.1664,-2.1277,-2.1131,-2.0997,-2.0924,-2.0913,-2.0888,-2.0838,-2.0562,-1.9926,-1.9172,-1.8533,-1.8002,-1.76,-1.7297,-1.7611,-1.7886,-1.7606,-1.7351,-1.6965,-1.6645,-1.6197,-1.5584,-2.6708,-2.6776,-2.7503,-2.8195,-2.8889,-2.9574,-3.0261,-3.0731,-3.0133,-2.9837,-2.9663,-2.8708,-2.778,-2.7455,-2.7205,-2.6971,-2.6512,-2.6467,-2.5689,-2.4948,-2.4485,-2.4103,-2.3804,-2.3595,-2.3595,-2.3595,-2.3595,-2.3595,-2.3595,-2.3595,-2.3595,-2.3595,-2.3595,-2.3595,-2.3595,-2.3595,-2.3595,-2.3595,-2.3595,-2.3595,-2.3595,-2.3595,-2.3595,-2.3595,-2.3595,-2.3595,-2.3595,-2.3595,-2.3595,-2.3595,-2.3595,-2.3595,-2.3595,-2.3595,-2.3595,-2.3595,-2.3595,-2.3595,-2.3595,-2.3595,-2.3595,-2.3595,-2.3603,-2.3575,-2.3465,-2.353,-2.3573,-2.3486,-2.3486,-2.3588,-2.361,-2.3631,-2.3674,-2.3674,-2.3674,-2.3588,-2.348,-2.3282,-2.3046,-2.2581,-2.2603,-2.292,-2.3054,-2.3187,-2.3414,-2.3076,-2.2626,-2.2443,-2.2203,-2.1878,-2.1736,-2.1568,-2.1269,-2.0974,-2.0837,-2.0762,-2.0825,-2.085,-2.0863,-2.0863,-2.0788,-2.0003,-1.9013,-1.864,-1.8139,-1.7684,-1.7306,-1.749,-1.7562,-1.7407,-1.7155,-1.6786,-1.5968,-1.5206,-1.4708,-2.6708,-2.6793,-2.7707,-2.8281,-2.8686,-3.0106,-3.0667,-3.0506,-3.0204,-2.9601,-2.8927,-2.8183,-2.7785,-2.765,-2.7585,-2.748,-2.7165,-2.6761,-2.6033,-2.5345,-2.4799,-2.4231,-2.3819,-2.367,-2.3595,-2.364,-2.3625,-2.3595,-2.3595,-2.361,-2.3595,-2.3595,-2.3595,-2.3595,-2.3595,-2.3595,-2.3595,-2.3595,-2.3595,-2.3595,-2.3595,-2.3595,-2.3595,-2.3595,-2.3595,-2.3595,-2.3595,-2.3595,-2.3595,-2.3595,-2.3595,-2.3595,-2.3595,-2.3595,-2.3573,-2.3551,-2.3551,-2.353,-2.353,-2.3551,-2.3595,-2.3596,-2.3562,-2.3474,-2.3216,-2.292,-2.2725,-2.2762,-2.3009,-2.3157,-2.3179,-2.3399,-2.3595,-2.3595,-2.3508,-2.3355,-2.3157,-2.2889,-2.2663,-2.2235,-2.2235,-2.2406,-2.2475,-2.2529,-2.2762,-2.2867,-2.2388,-2.1959,-2.1736,-2.1544,-2.1375,-2.1291,-2.0999,-2.0875,-2.0737,-2.0737,-2.0775,-2.0725,-2.07,-2.06,-2.0449,-1.9784,-1.8934,-1.8587,-1.8154,-1.7601,-1.7278,-1.7306,-1.7278,-1.7211,-1.6937,-1.6578,-1.5584,-1.4421,-1.3863,-2.6641,-2.6672,-2.7802,-2.8379,-2.871,-3.0099,-3.0559,-3.0251,-2.9783,-2.9088,-2.8076,-2.772,-2.7585,-2.7585,-2.7585,-2.7585,-2.7435,-2.7121,-2.6551,-2.5989,-2.545,-2.4784,-2.4403,-2.4253,-2.4388,-2.4148,-2.3939,-2.3939,-2.3969,-2.3714,-2.3625,-2.3595,-2.3595,-2.3595,-2.3595,-2.3595,-2.3595,-2.3595,-2.3595,-2.3595,-2.3595,-2.3595,-2.3595,-2.3595,-2.3595,-2.3595,-2.3595,-2.3595,-2.3595,-2.3595,-2.3595,-2.3595,-2.3595,-2.3573,-2.3508,-2.3443,-2.3399,-2.3355,-2.3231,-2.3465,-2.3486,-2.3348,-2.3253,-2.3111,-2.2828,-2.2369,-2.2151,-2.2221,-2.2489,-2.2686,-2.2672,-2.286,-2.2972,-2.2883,-2.2905,-2.2793,-2.2558,-2.2319,-2.2142,-2.1921,-2.1955,-2.1908,-2.2025,-2.2081,-2.2165,-2.2212,-2.1732,-2.1375,-2.1193,-2.1059,-2.0985,-2.0936,-2.085,-2.0762,-2.0737,-2.0549,-2.0372,-2.0182,-2.0144,-2.0042,-1.9746,-1.9172,-1.8762,-1.8402,-1.7925,-1.7396,-1.7155,-1.7088,-1.705,-1.7039,-1.6539,-1.5901,-1.5235,-1.4094,-1.3338,-2.6487,-2.6304,-2.7656,-2.8512,-2.8934,-2.9454,-2.9886,-2.9973,-2.9104,-2.8295,-2.7735,-2.7585,-2.766,-2.7675,-2.7764,-2.7839,-2.7914,-2.7735,-2.733,-2.6797,-2.6467,-2.6078,-2.5644,-2.5375,-2.5136,-2.5315,-2.4933,-2.4575,-2.4575,-2.4208,-2.3894,-2.367,-2.3684,-2.3595,-2.3595,-2.3595,-2.3595,-2.3595,-2.3595,-2.3595,-2.3595,-2.3595,-2.3595,-2.3595,-2.3595,-2.3595,-2.3595,-2.3595,-2.3595,-2.3595,-2.3595,-2.3595,-2.3595,-2.3595,-2.3421,-2.3046,-2.3001,-2.2717,-2.2282,-2.3076,-2.3201,-2.3,-2.2929,-2.2884,-2.2686,-2.2197,-2.1688,-2.1752,-2.2049,-2.2142,-2.2128,-2.2198,-2.2276,-2.2346,-2.2392,-2.236,-2.2165,-2.1874,-2.1756,-2.1636,-2.1506,-2.1434,-2.1578,-2.1674,-2.166,-2.1506,-2.1021,-2.0787,-2.0775,-2.0737,-2.0762,-2.0762,-2.0762,-2.0737,-2.0624,-2.0195,-1.9939,-1.9759,-1.9656,-1.9656,-1.9279,-1.875,-1.839,-1.8147,-1.7722,-1.7162,-1.6994,-1.6881,-1.6606,-1.6273,-1.5613,-1.4972,-1.4412,-1.3825,-1.3033,-2.6721,-2.6776,-2.7022,-2.7731,-2.8682,-2.9335,-2.9496,-2.918,-2.8614,-2.8076,-2.766,-2.7585,-2.7899,-2.8128,-2.8293,-2.8468,-2.8798,-2.8918,-2.8562,-2.7859,-2.741,-2.6866,-2.6348,-2.5914,-2.5704,-2.557,-2.5307,-2.5262,-2.527,-2.4866,-2.4582,-2.4358,-2.3894,-2.361,-2.3595,-2.3595,-2.3595,-2.3595,-2.3595,-2.3595,-2.3595,-2.3595,-2.3595,-2.3595,-2.3595,-2.3595,-2.3595,-2.3595,-2.3595,-2.3595,-2.3595,-2.3595,-2.3595,-2.3595,-2.3377,-2.3024,-2.2867,-2.2466,-2.2025,-2.2235,-2.2498,-2.252,-2.2771,-2.2644,-2.2066,-2.1407,-2.1188,-2.1251,-2.1516,-2.1589,-2.1636,-2.1978,-2.2128,-2.2175,-2.2198,-2.2161,-2.1988,-2.166,-2.1447,-2.135,-2.1229,-2.1057,-2.1082,-2.1215,-2.124,-2.1302,-2.0947,-2.0812,-2.0762,-2.0737,-2.0699,-2.0699,-2.0699,-2.0699,-2.0536,-1.9978,-1.9657,-1.9527,-1.9501,-1.9514,-1.903,-1.8255,-1.8093,-1.7902,-1.7446,-1.6983,-1.6729,-1.6407,-1.5843,-1.5352,-1.4855,-1.4569,-1.4282,-1.3563,-1.2636,-2.6423,-2.6333,-2.6301,-2.6823,-2.7743,-2.841,-2.8521,-2.8297,-2.8125,-2.787,-2.7695,-2.7839,-2.8169,-2.8562,-2.8876,-2.8846,-2.928,-2.922,-2.8888,-2.8263,-2.7839,-2.733,-2.6881,-2.6497,-2.6522,-2.6228,-2.6019,-2.5944,-2.5914,-2.5704,-2.536,-2.4859,-2.4276,-2.4103,-2.3954,-2.3819,-2.3595,-2.3595,-2.3595,-2.3595,-2.3595,-2.3595,-2.3595,-2.3595,-2.3595,-2.3595,-2.3595,-2.3595,-2.3573,-2.3573,-2.3573,-2.3573,-2.3573,-2.353,-2.3355,-2.3046,-2.2397,-2.1931,-2.1396,-2.1313,-2.1503,-2.153,-2.2439,-2.2374,-2.1518,-2.0995,-2.081,-2.0823,-2.0997,-2.1082,-2.124,-2.1599,-2.1647,-2.167,-2.1623,-2.1575,-2.1527,-2.118,-2.112,-2.1021,-2.0997,-2.0799,-2.0674,-2.0724,-2.0835,-2.0898,-2.0923,-2.0823,-2.0749,-2.0699,-2.0536,-2.046,-2.0385,-2.0296,-2.0029,-1.9605,-1.9371,-1.9307,-1.9123,-1.8912,-1.8309,-1.7512,-1.7584,-1.7639,-1.714,-1.6673,-1.6322,-1.5921,-1.5352,-1.4855,-1.4392,-1.4163,-1.4112,-1.3329,-1.2359,-2.5649,-2.5069,-2.562,-2.6065,-2.6359,-2.7038,-2.7361,-2.7635,-2.7625,-2.764,-2.7705,-2.8308,-2.8667,-2.8846,-2.9382,-2.943,-2.9131,-2.9026,-2.8637,-2.8124,-2.8004,-2.7735,-2.763,-2.7465,-2.7225,-2.718,-2.7001,-2.6602,-2.6542,-2.6093,-2.5749,-2.5486,-2.4948,-2.4732,-2.4477,-2.4133,-2.3789,-2.3655,-2.3595,-2.3595,-2.3595,-2.3595,-2.3595,-2.3595,-2.3595,-2.3595,-2.3573,-2.353,-2.3508,-2.3486,-2.3486,-2.3486,-2.3493,-2.353,-2.3231,-2.268,-2.1752,-2.1118,-2.0686,-2.0686,-2.0674,-2.0848,-2.135,-2.1432,-2.1256,-2.0759,-2.0573,-2.0549,-2.0674,-2.0674,-2.0761,-2.0823,-2.0873,-2.0823,-2.0749,-2.0749,-2.0761,-2.0699,-2.0712,-2.0687,-2.0762,-2.0687,-2.0662,-2.0662,-2.0599,-2.0599,-2.0649,-2.0649,-2.0574,-2.0574,-2.0385,-1.9991,-1.9914,-1.9773,-1.9475,-1.9135,-1.878,-1.8608,-1.8081,-1.7781,-1.7207,-1.6994,-1.7134,-1.7106,-1.6768,-1.6304,-1.5652,-1.5216,-1.4864,-1.4341,-1.3623,-1.3692,-1.3571,-1.3003,-1.2212,-2.5641,-2.5641,-2.5711,-2.6147,-2.6815,-2.7242,-2.7485,-2.7585,-2.76,-2.7824,-2.8323,-2.8502,-2.9041,-2.9939,-3.0163,-3.0342,-3.0285,-3.0195,-2.9953,-2.9355,-2.8408,-2.8323,-2.8113,-2.7824,-2.766,-2.754,-2.7375,-2.721,-2.7151,-2.6617,-2.6318,-2.6213,-2.5644,-2.5405,-2.5106,-2.4634,-2.4134,-2.3731,-2.3656,-2.3595,-2.3595,-2.3595,-2.3595,-2.3595,-2.3595,-2.3595,-2.3573,-2.329,-2.3201,-2.3135,-2.2748,-2.2529,-2.2392,-2.2438,-2.2291,-2.169,-2.1055,-2.0574,-2.0334,-2.0296,-2.0296,-2.036,-2.0751,-2.0889,-2.0774,-2.0572,-2.0384,-2.046,-2.0423,-2.0448,-2.0498,-2.0537,-2.0537,-2.0511,-2.0461,-2.0436,-2.0448,-2.0448,-2.0461,-2.0537,-2.0587,-2.0587,-2.0562,-2.0537,-2.0473,-2.0398,-2.0347,-2.0347,-2.0309,-2.0309,-2.0067,-1.9643,-1.9331,-1.9148,-1.8977,-1.8673,-1.8244,-1.7836,-1.7435,-1.7084,-1.6881,-1.6779,-1.6779,-1.6609,-1.6332,-1.5594,-1.4708,-1.4392,-1.4163,-1.326,-1.2605,-1.2873,-1.2972,-1.2451,-1.2089,-2.5278,-2.5253,-2.5145,-2.5659,-2.6499,-2.6999,-2.733,-2.7555,-2.7585,-2.7989,-2.8577,-2.8891,-2.9415,-2.9998,-3.0298,-3.0372,-3.0061,-2.9669,-2.934,-2.8771,-2.8637,-2.8248,-2.7989,-2.7854,-2.766,-2.7585,-2.7585,-2.751,-2.748,-2.73,-2.6976,-2.6941,-2.6318,-2.6078,-2.5738,-2.5112,-2.4484,-2.4088,-2.3829,-2.3641,-2.3566,-2.3566,-2.3595,-2.3573,-2.3573,-2.3595,-2.353,-2.3135,-2.2912,-2.2785,-2.2337,-2.2011,-2.1903,-2.195,-2.1738,-2.1248,-2.0908,-2.0536,-2.0258,-2.0144,-2.0118,-2.0131,-2.0309,-2.0436,-2.0498,-2.0409,-2.0397,-2.0448,-2.0347,-2.0271,-2.0322,-2.0385,-2.0385,-2.0372,-2.0322,-2.0271,-2.0271,-2.0271,-2.0322,-2.0372,-2.0398,-2.0398,-2.0398,-2.041,-2.0372,-2.0296,-2.0156,-2.0029,-1.9978,-1.9914,-1.9592,-1.9135,-1.8765,-1.8483,-1.8309,-1.812,-1.7765,-1.7418,-1.7196,-1.687,-1.6637,-1.6524,-1.6563,-1.6285,-1.595,-1.5187,-1.4382,-1.3773,-1.3329,-1.2544,-1.2058,-1.2297,-1.2451,-1.2236,-1.1903,-2.4655,-2.4348,-2.4269,-2.4976,-2.5883,-2.6456,-2.7046,-2.763,-2.7735,-2.8079,-2.8742,-2.937,-2.9759,-3.0193,-3.0402,-2.9983,-2.9594,-2.9146,-2.8727,-2.7735,-2.7854,-2.7764,-2.7735,-2.7585,-2.7585,-2.7585,-2.7585,-2.7585,-2.7585,-2.7465,-2.742,-2.7555,-2.7016,-2.6677,-2.6508,-2.5638,-2.5096,-2.4905,-2.4218,-2.3733,-2.3533,-2.3517,-2.3551,-2.353,-2.3551,-2.3573,-2.3443,-2.3179,-2.2807,-2.2581,-2.2175,-2.1704,-2.1595,-2.1476,-2.1186,-2.1004,-2.066,-2.0422,-2.0131,-2.0003,-1.9952,-1.9927,-1.9965,-2.0144,-2.022,-2.0207,-2.0232,-2.0296,-2.0169,-2.0131,-2.0169,-2.0195,-2.0195,-2.0195,-2.0169,-2.0105,-2.0105,-2.0105,-2.0195,-2.0246,-2.0283,-2.0283,-2.0246,-2.022,-2.0195,-2.0131,-2.0042,-1.9862,-1.9552,-1.9448,-1.903,-1.8566,-1.8217,-1.7859,-1.7567,-1.7401,-1.7207,-1.6965,-1.6853,-1.6712,-1.6534,-1.642,-1.6335,-1.6028,-1.5661,-1.4982,-1.4243,-1.3472,-1.2781,-1.2328,-1.1996,-1.1934,-1.1903,-1.1864,-1.1802,-2.4343,-2.4269,-2.4537,-2.5326,-2.6351,-2.6537,-2.7275,-2.8323,-2.8378,-2.8742,-2.9385,-2.9983,-3.0507,-3.0821,-3.0477,-3.0058,-2.9789,-2.8757,-2.8532,-2.8139,-2.7839,-2.76,-2.7585,-2.7585,-2.7585,-2.7585,-2.7585,-2.756,-2.7458,-2.7509,-2.7575,-2.756,-2.7225,-2.713,-2.72,-2.6293,-2.5904,-2.5697,-2.466,-2.3803,-2.3336,-2.3142,-2.3068,-2.3179,-2.3268,-2.3421,-2.3179,-2.2612,-2.2258,-2.1945,-2.108,-2.0684,-2.0585,-2.0485,-2.0397,-2.0245,-2.0271,-2.0118,-1.9991,-1.9888,-1.9862,-1.9862,-1.9914,-1.9978,-2.0016,-1.9965,-1.9991,-2.0054,-2.0067,-2.0042,-2.0003,-2.0029,-2.0029,-2.0003,-2.0003,-1.9965,-1.9939,-2.0003,-2.0067,-2.0105,-2.0182,-2.0131,-2.0067,-1.999,-1.9978,-1.9939,-1.9888,-1.9669,-1.9095,-1.8789,-1.8363,-1.7929,-1.7633,-1.7296,-1.6983,-1.6864,-1.6779,-1.6694,-1.6581,-1.6477,-1.6402,-1.6345,-1.6249,-1.5787,-1.5332,-1.4628,-1.3786,-1.2795,-1.2197,-1.1957,-1.184,-1.1778,-1.1716,-1.1654,-1.1654,-2.4255,-2.4212,-2.429,-2.5032,-2.6102,-2.6477,-2.735,-2.8547,-2.919,-2.9639,-2.9983,-3.0372,-3.0731,-3.0943,-3.0372,-2.9894,-2.9594,-2.8607,-2.8143,-2.7959,-2.7899,-2.7675,-2.7585,-2.7585,-2.7585,-2.7585,-2.7575,-2.7524,-2.7163,-2.71,-2.7074,-2.71,-2.7086,-2.7148,-2.7323,-2.692,-2.6476,-2.6363,-2.4995,-2.4002,-2.3234,-2.3035,-2.2676,-2.2738,-2.2717,-2.2897,-2.2589,-2.2011,-2.168,-2.1299,-2.0623,-2.022,-2.0118,-2.0055,-1.9978,-1.9939,-1.9914,-1.9862,-1.9824,-1.9798,-1.9798,-1.9837,-1.9862,-1.9914,-1.9888,-1.9863,-1.9927,-1.9978,-2.0016,-2.0003,-1.9914,-1.9888,-1.9914,-1.9888,-1.9888,-1.9862,-1.985,-1.9888,-1.9926,-1.9952,-1.9914,-1.9759,-1.9668,-1.946,-1.937,-1.8951,-1.903,-1.8886,-1.8417,-1.8213,-1.7749,-1.7363,-1.7112,-1.6899,-1.6666,-1.6563,-1.6506,-1.642,-1.6402,-1.6402,-1.6402,-1.6306,-1.6124,-1.5739,-1.5138,-1.4302,-1.3403,-1.2497,-1.2042,-1.1864,-1.1716,-1.1599,-1.1529,-1.1466,-1.1404,-2.4234,-2.4109,-2.3876,-2.4477,-2.5615,-2.6318,-2.744,-2.8801,-2.9953,-3.0537,-3.0627,-3.0657,-3.0597,-3.0298,-2.9849,-2.922,-2.8622,-2.8109,-2.7764,-2.769,-2.7645,-2.7585,-2.7585,-2.7585,-2.7484,-2.7382,-2.7306,-2.6878,-2.639,-2.6363,-2.6363,-2.6324,-2.6431,-2.6549,-2.6904,-2.6759,-2.6224,-2.5882,-2.498,-2.4096,-2.3501,-2.302,-2.2465,-2.2138,-2.2006,-2.2002,-2.1799,-2.1489,-2.1151,-2.0771,-2.0372,-2.0067,-1.9888,-1.985,-1.9824,-1.9824,-1.9824,-1.9824,-1.9798,-1.9798,-1.9798,-1.9798,-1.9798,-1.9798,-1.9798,-1.9824,-1.9888,-1.9914,-1.9952,-1.9926,-1.9862,-1.9798,-1.9798,-1.9721,-1.9721,-1.9669,-1.9643,-1.9669,-1.9708,-1.9708,-1.9604,-1.9448,-1.9239,-1.904,-1.8655,-1.824,-1.7929,-1.7644,-1.7479,-1.7545,-1.7352,-1.7011,-1.6751,-1.6534,-1.6402,-1.6402,-1.6402,-1.6402,-1.6402,-1.6402,-1.6363,-1.6267,-1.6066,-1.5759,-1.5098,-1.4094,-1.3342,-1.2528,-1.2135,-1.174,-1.1584,-1.1435,-1.1348,-1.1279,-1.1115,-2.4088,-2.3861,-2.3696,-2.441,-2.5615,-2.6333,-2.7675,-2.9352,-3.0133,-3.0763,-3.1049,-3.1183,-3.1047,-3.0434,-2.9891,-2.9262,-2.8562,-2.7914,-2.7645,-2.76,-2.7585,-2.7585,-2.7534,-2.7473,-2.7188,-2.693,-2.6669,-2.6256,-2.5701,-2.5618,-2.5632,-2.5605,-2.5591,-2.5646,-2.5728,-2.5646,-2.5646,-2.537,-2.5135,-2.4349,-2.3265,-2.2711,-2.2159,-2.1952,-2.1952,-2.19,-2.1708,-2.131,-2.0968,-2.0572,-2.0182,-1.9914,-1.9837,-1.9798,-1.9798,-1.9798,-1.9798,-1.9798,-1.9798,-1.9798,-1.9798,-1.9798,-1.9798,-1.9798,-1.9798,-1.9798,-1.9824,-1.9824,-1.9862,-1.9862,-1.9798,-1.9798,-1.9798,-1.9566,-1.9462,-1.9239,-1.9133,-1.9186,-1.9239,-1.9265,-1.9265,-1.9069,-1.8857,-1.859,-1.8213,-1.7902,-1.7831,-1.7545,-1.7185,-1.7073,-1.6961,-1.6712,-1.642,-1.6431,-1.6402,-1.6402,-1.6402,-1.6402,-1.6363,-1.6335,-1.6267,-1.621,-1.598,-1.5546,-1.4795,-1.3786,-1.307,-1.2405,-1.195,-1.156,-1.1428,-1.1303,-1.1216,-1.109,-1.0958]},{"header":{"parameterUnit":"m.s-1","parameterCategory":1,"la1":31.0,"la2":29.5877,"lo1":-88.7671,"lo2":-86.6584,"dx":0.0162,"dy":0.0185,"nx":115,"ny":88,"refTime":"2022-12-05T06:00:00:Z","depth":0,"parameterNumber":3,"parameterNumberName":"V-component_of_WINDS"},"data":[0.0,0.0,0.0,0.0,0.0,0.0,0.0,0.0,0.0,0.0,0.0,0.0,0.0,0.0,0.0,0.0,0.0,0.0,0.0,0.0,0.0,0.0,0.0,0.0,0.0,0.0,0.0,0.0,0.0,0.0,0.0,0.0,0.0,0.0,0.0,0.0,0.0,0.0,0.0,0.0,0.0,0.0,0.0,0.0,0.0,0.0,0.0,0.0,0.0,0.0,0.0,0.0,0.0,0.0,0.0,0.0,0.0,0.0,0.0,0.0,0.0,0.0,0.0,0.0,0.0,0.0,0.0,0.0,0.0,0.0,0.0,0.0,0.0,0.0,0.0,0.0,0.0,0.0,0.0,0.0,0.0,0.0,0.0,0.0,0.0,0.0,0.0,0.0,0.0,0.0,0.0,0.0,0.0,0.0,0.0,0.0,0.0,0.0,0.0,0.0,0.0,0.0,0.0,0.0,0.0,0.0,0.0,0.0,0.0,0.0,0.0,0.0,0.0,0.0,0.0,0.0,0.0,0.0,0.0,0.0,0.0,0.0,0.0,0.0,0.0,0.0,0.0,0.0,0.0,0.0,0.0,0.0,0.0,0.0,0.0,0.0,0.0,0.0,0.0,0.0,0.0,0.0,0.0,0.0,0.0,0.0,0.0,0.0,0.0,0.0,0.0,0.0,0.0,0.0,0.0,0.0,0.0,0.0,0.0,0.0,0.0,0.0,0.0,0.0,0.0,0.0,0.0,0.0,0.0,0.0,0.0,0.0,0.0,0.0,0.0,0.0,0.0,0.0,0.0,0.0,0.0,0.0,0.0,0.0,0.0,0.0,0.0,0.0,0.0,0.0,0.0,0.0,0.0,0.0,0.0,0.0,0.0,0.0,0.0,0.0,0.0,0.0,0.0,0.0,0.0,0.0,0.0,0.0,0.0,0.0,0.0,0.0,0.0,0.0,0.0,0.0,0.0,0.0,0.0,0.0,0.0,0.0,0.0,0.0,0.0,0.0,0.0,0.0,0.0,0.0,0.0,0.0,0.0,0.0,0.0,0.0,0.0,0.0,0.0,0.0,0.0,0.0,0.0,0.0,0.0,0.0,0.0,0.0,0.0,0.0,0.0,0.0,0.0,0.0,0.0,0.0,0.0,0.0,0.0,0.0,0.0,0.0,0.0,0.0,0.0,0.0,0.0,0.0,0.0,0.0,0.0,0.0,0.0,0.0,0.0,0.0,0.0,0.0,0.0,0.0,0.0,0.0,0.0,0.0,0.0,0.0,0.0,0.0,0.0,0.0,0.0,0.0,0.0,0.0,0.0,0.0,0.0,0.0,0.0,0.0,0.0,0.0,0.0,0.0,0.0,0.0,0.0,0.0,0.0,0.0,0.0,0.0,0.0,0.0,0.0,0.0,0.0,0.0,0.0,0.0,0.0,0.0,0.0,0.0,0.0,0.0,0.0,0.0,0.0,0.0,0.0,0.0,0.0,0.0,0.0,0.0,0.0,0.0,0.0,0.0,0.0,0.0,0.0,0.0,0.0,0.0,0.0,0.0,0.0,0.0,0.0,0.0,0.0,0.0,0.0,0.0,0.0,0.0,0.0,0.0,0.0,0.0,0.0,0.0,0.0,0.0,0.0,0.0,0.0,0.0,0.0,0.0,0.0,0.0,0.0,0.0,0.0,0.0,0.0,0.0,0.0,0.0,0.0,0.0,0.0,0.0,0.0,0.0,0.0,0.0,0.0,0.0,0.0,0.0,0.0,0.0,0.0,0.0,0.0,0.0,0.0,0.0,0.0,0.0,0.0,0.0,0.0,0.0,0.0,0.0,0.0,0.0,0.0,0.0,0.0,0.0,0.0,0.0,0.0,0.0,0.0,0.0,0.0,0.0,0.0,0.0,0.0,0.0,0.0,0.0,0.0,0.0,0.0,0.0,0.0,0.0,0.0,0.0,0.0,0.0,0.0,0.0,0.0,0.0,0.0,0.0,0.0,0.0,0.0,0.0,0.0,0.0,0.0,0.0,0.0,0.0,0.0,0.0,0.0,0.0,0.0,0.0,0.0,0.0,0.0,0.0,0.0,0.0,0.0,0.0,0.0,0.0,0.0,0.0,0.0,0.0,0.0,0.0,0.0,0.0,0.0,0.0,0.0,0.0,0.0,0.0,0.0,0.0,0.0,0.0,0.0,0.0,0.0,0.0,0.0,0.0,0.0,0.0,0.0,0.0,0.0,0.0,0.0,0.0,0.0,0.0,0.0,0.0,0.0,0.0,0.0,0.0,0.0,0.0,0.0,0.0,0.0,0.0,0.0,0.0,0.0,0.0,0.0,0.0,0.0,0.0,0.0,0.0,0.0,0.0,0.0,0.0,0.0,0.0,0.0,0.0,0.0,0.0,0.0,0.0,0.0,0.0,0.0,0.0,0.0,0.0,0.0,0.0,0.0,0.0,0.0,0.0,0.0,0.0,0.0,0.0,0.0,0.0,0.0,0.0,0.0,0.0,0.0,0.0,0.0,0.0,0.0,0.0,0.0,0.0,0.0,0.0,0.0,0.0,0.0,0.0,0.0,0.0,0.0,0.0,0.0,0.0,0.0,0.0,0.0,0.0,0.0,0.0,0.0,0.0,0.0,0.0,0.0,0.0,0.0,0.0,0.0,0.0,0.0,0.0,0.0,0.0,0.0,0.0,0.0,0.0,0.0,0.0,0.0,0.0,0.0,0.0,0.0,0.0,0.0,0.0,0.0,0.0,0.0,0.0,0.0,0.0,0.0,0.0,0.0,0.0,0.0,0.0,0.0,0.0,0.0,0.0,0.0,0.0,0.0,0.0,0.0,0.0,0.0,0.0,0.0,0.0,0.0,0.0,0.0,0.0,0.0,0.0,0.0,0.0,0.0,0.0,0.0,0.0,0.0,0.0,0.0,0.0,0.0,0.0,0.0,0.0,0.0,0.0,0.0,0.0,0.0,0.0,0.0,0.0,0.0,0.0,0.0,0.0,0.0,0.0,0.0,0.0,0.0,0.0,0.0,0.0,0.0,0.0,0.0,0.0,0.0,0.0,0.0,0.0,0.0,0.0,0.0,0.0,0.0,0.0,0.0,0.0,0.0,0.0,0.0,0.0,0.0,0.0,0.0,0.0,0.0,0.0,0.0,0.0,0.0,0.0,0.0,0.0,0.0,0.0,0.0,0.0,0.0,0.0,0.0,0.0,0.0,0.0,0.0,0.0,0.0,0.0,0.0,0.0,0.0,0.0,0.0,0.0,0.0,0.0,0.0,0.0,0.0,0.0,0.0,0.0,0.0,0.0,0.0,0.0,0.0,0.0,0.0,0.0,0.0,0.0,0.0,0.0,0.0,0.0,0.0,0.0,0.0,0.0,0.0,0.0,0.0,0.0,0.0,0.0,0.0,0.0,0.0,0.0,0.0,0.0,0.0,0.0,0.0,0.0,0.0,0.0,0.0,0.0,0.0,0.0,0.0,0.0,0.0,0.0,0.0,0.0,0.0,0.0,0.0,0.0,0.0,0.0,0.0,0.0,0.0,0.0,0.0,0.0,0.0,0.0,0.0,0.0,0.0,0.0,0.0,0.0,0.0,0.0,0.0,0.0,0.0,0.0,0.0,0.0,0.0,0.0,0.0,0.0,0.0,0.0,0.0,0.0,0.0,0.0,0.0,0.0,0.0,0.0,0.0,0.0,0.0,0.0,0.0,0.0,0.0,0.0,0.0,0.0,0.0,0.0,0.0,0.0,0.0,0.0,0.0,0.0,0.0,0.0,0.0,0.0,0.0,0.0,0.0,0.0,0.0,0.0,0.0,0.0,0.0,0.0,0.0,0.0,0.0,0.0,0.0,0.0,0.0,0.0,0.0,0.0,0.0,0.0,0.0,0.0,0.0,0.0,0.0,0.0,0.0,0.0,0.0,0.0,0.0,0.0,0.0,0.0,0.0,0.0,0.0,0.0,0.0,0.0,0.0,0.0,0.0,0.0,0.0,0.0,0.0,0.0,0.0,0.0,0.0,0.0,0.0,0.0,0.0,0.0,0.0,0.0,0.0,0.0,0.0,0.0,0.0,0.0,0.0,0.0,0.0,0.0,0.0,0.0,0.0,0.0,0.0,0.0,0.0,0.0,0.0,0.0,0.0,0.0,0.0,0.0,0.0,0.0,0.0,0.0,0.0,0.0,0.0,0.0,0.0,0.0,0.0,0.0,0.0,0.0,0.0,0.0,0.0,0.0,0.0,0.0,0.0,0.0,0.0,0.0,0.0,0.0,-0.1996,0.0,0.0,0.0,-0.1375,0.0,0.0,0.0,0.0,0.0,0.0,0.0,0.0,0.0,0.0,0.0,0.0,0.0,0.0,0.0,0.0,0.0,0.0,0.0,0.0,0.0,0.0,0.0,0.0,0.0,0.0,0.0,0.0,0.0,0.0,0.0,0.0,0.0,0.0,0.0,0.0,0.0,0.0,0.0,0.0,0.0,0.0,0.0,0.0,0.0,0.0,0.0,0.0,0.0,0.0,0.0,0.0,0.0,0.0,0.0,0.0,0.0,0.0,0.0,0.0,0.0,0.0,0.0,0.0,0.0,0.0,0.0,0.0,0.0,0.0,0.0,0.0,0.0,0.0,0.0,0.0,0.0,0.0,0.0,0.0,0.0,0.0,0.0,0.0,0.0,0.0,0.0,0.0,0.0,0.0,0.0,0.0,0.0,0.0,0.0,0.0,0.0,0.0,0.0,0.0,0.0,0.0,0.0,0.0,0.0,0.0,0.0,0.0,0.0,0.0,-0.1921,-0.1655,-0.1875,-0.1787,-0.1315,0.0,0.0,0.0,0.0,0.0,0.0,0.0,0.0,0.0,0.0,0.0,0.0,0.0,0.0,0.0,0.0,0.0,0.0,0.0,0.0,0.0,0.0,0.0,0.0,0.0,0.0,0.0,0.0,0.0,0.0,0.0,0.0,0.0,0.0,0.0,0.0,0.0,0.0,0.0,0.0,0.0,0.0,0.0,0.0,0.0,0.0,0.0,0.0,0.0,0.0,0.0,0.0,0.0,0.0,0.0,0.0,0.0,0.0,0.0,0.0,0.0,0.0,0.0,0.0,0.0,0.0,0.0,0.0,0.0,0.0,0.0,0.0,0.0,0.0,0.0,0.0,0.0,0.0,0.0,0.0,0.0,0.0,0.0,0.0,0.0,0.0,0.0,0.0,0.0,0.0,0.0,0.0,0.0,0.0,0.0,0.0,0.0,0.0,0.0,0.0,0.0,0.0,0.0,0.0,0.0,0.0,0.0,0.0,0.0,0.0,0.0,0.0,-0.1784,-0.171,-0.1334,0.0,0.0,0.0,0.0,0.0,0.0,0.0,0.0,0.0,0.0,0.0,0.0,0.0,0.0,0.0,0.0,0.0,0.0,0.0,0.0,0.0,0.0,0.0,0.0,0.0,0.0,0.0,0.0,0.0,0.0,0.0,0.0,0.0,0.0,0.0,0.0,0.0,0.0,0.0,0.0,0.0,0.0,0.0,0.0,0.0,0.0,0.0,0.0,0.0,0.0,0.0,0.0,0.0,0.0,0.0,0.0,0.0,0.0,0.0,0.0,0.0,0.0,0.0,0.0,0.0,0.0,0.0,0.0,0.0,0.0,0.0,0.0,0.0,0.0,0.0,0.0,0.0,0.0,0.0,0.0,0.0,0.0,0.0,0.0,0.0,0.0,0.0,0.0,0.0,0.0,0.0,0.0,0.0,0.0,0.0,0.0,0.0,0.0,0.0,0.0,0.0,0.0,0.0,0.0,0.0,0.0,0.0,0.0,0.0,0.0,-0.1141,-0.1071,-0.1197,0.0,-0.1294,0.0,0.0,0.0,0.0,0.0,0.0,0.0,0.0,0.0,0.0,0.0,0.0,0.0,0.0,0.0,0.0,0.0,0.0,0.0,0.0,0.0,0.0,0.0,0.0,0.0,0.0,0.0,0.0,0.0,0.0,0.0,0.0,0.0,0.0,0.0,0.0,0.0,0.0,0.0,0.0,0.0,0.0,0.0,0.0,0.0,0.0,0.0,0.0,0.0,0.0,0.0,0.0,0.0,0.0,0.0,0.0,0.0,0.0,0.0,0.0,0.0,0.0,0.0,0.0,0.0,0.0,0.0,0.0,0.0,0.0,0.0,0.0,0.0,0.0,0.0,0.0,0.0,0.0,0.0,0.0,0.0,0.0,0.0,0.0,0.0,0.0,0.0,0.0,0.0,0.0,0.0,0.0,0.0,0.0,0.0,0.0,0.0,0.0,0.0,0.0,0.0,0.0,0.0,0.0,0.0,0.0,0.0,0.0,0.0,0.0,-0.1149,-0.1116,-0.117,-0.1189,0.0,0.0,0.0,0.0,0.0,0.0,0.0,0.0,0.0,0.0,0.0,0.0,0.0,0.0,0.0,0.0,0.0,0.0,0.0,0.0,0.0,0.0,0.0,0.0,0.0,0.0,0.0,0.0,0.0,0.0,0.0,0.0,0.0,0.0,0.0,0.0,0.0,0.0,0.0,0.0,0.0,0.0,0.0,0.0,0.0,0.0,0.0,0.0,0.0,0.0,0.0,0.0,0.0,0.0,0.0,0.0,0.0,0.0,0.0,0.0,0.0,0.0,0.0,0.0,0.0,0.0,0.0,0.0,0.0,0.0,0.0,0.0,0.0,0.0,0.0,0.0,0.0,0.0,0.0,0.0,0.0,0.0,0.0,0.0,0.0,0.0,0.0,0.0,0.0,0.0,0.0,0.0,0.0,0.0,0.0,0.0,0.0,0.0,0.0,0.0,0.0,0.0,0.0,0.0,0.0,0.0,0.0,0.0,0.0,0.0,-0.1112,-0.114,-0.1119,-0.1087,-0.105,-0.1037,0.0,0.0,0.0,0.0,0.0,0.0,0.0,0.0,0.0,0.0,0.0,0.0,0.0,0.0,0.0,0.0,0.0,0.0,0.0,0.0,0.0,0.0,0.0,0.0,0.0,0.0,0.0,0.0,0.0,0.0,0.0,0.0,0.0,0.0,0.0,0.0,0.0,0.0,0.0,0.0,0.0,0.0,0.0,0.0,0.0,0.0,0.0,0.0,0.0,0.0,0.0,0.0,0.0,0.0,0.0,0.0,0.0,0.0,0.0,0.0,0.0,0.0,0.0,0.0,0.0,0.0,0.0,0.0,0.0,0.0,0.0,0.0,0.0,0.0,0.0,0.0,0.0,0.0,0.0,0.0,0.0,0.0,0.0,0.0,0.0,0.0,0.0,0.0,0.0,0.0,0.0,0.0,0.0,0.0,0.0,0.0,0.0,0.0,0.0,0.0,0.0,0.0,0.0,0.0,0.0,0.0,0.0,0.0,-0.1097,-0.1038,-0.0985,-0.0914,-0.0793,-0.0779,0.0,0.0,0.0,0.0,0.0,0.0,0.0,0.0,0.0,0.0,0.0,0.0,0.0,0.0,0.0,0.0,0.0,0.0,0.0,0.0,0.0,0.0,0.0,0.0,0.0,0.0,0.0,0.0,0.0,0.0,0.0,0.0,0.0,0.0,0.0,0.0,0.0,0.0,0.0,0.0,0.0,0.0,0.0,0.0,0.0,0.0,0.0,0.0,0.0,0.0,0.0,0.0,0.0,0.0,0.0,0.0,0.0,0.0,0.0,0.0,0.0,0.0,0.0,0.0,0.0,0.0,0.0,0.0,0.0,0.0,0.0,0.0,0.0,0.0,0.0,0.0,0.0,0.0,0.0,0.0,0.0,0.0,0.0,0.0,0.0,0.0,0.0,0.0,0.0,0.0,0.0,0.0,0.0,0.0,0.0,0.0,0.0,0.0,0.0,0.0,0.0,0.0,0.0,0.0,0.0,0.0,0.0,0.0,0.0,-0.0846,-0.0862,-0.0818,-0.0719,-0.0751,-0.0729,0.0,0.0,0.0,0.0,0.0,0.0,0.0,0.0,0.0,0.0,0.0,0.0,0.0,0.0,0.0,0.0,0.0,0.0,0.0,0.0,0.0,0.0,0.0,0.0,0.0,0.0,0.0,0.0,0.0,0.0,0.0,0.0,0.0,0.0,0.0,0.0,0.0,0.0,0.0,0.0,0.0,0.0,0.0,0.0,0.0,0.0,0.0,0.0,0.0,0.0,0.0,0.0,0.0,0.0,0.0,0.0,0.0,0.0,0.0,0.0,0.0,0.0,0.0,0.0,0.0,0.0,0.0,0.0,0.0,0.0,0.0,0.0,0.0,0.0,0.0,0.0,0.0,0.0,0.0,0.0,0.0,0.0,0.0,0.0,0.0,0.0,0.0,0.0,0.0,0.0,0.0,0.0,0.0,0.0,0.0,0.0,0.0,0.0,0.0,0.0,0.0,0.0,0.0,0.0,0.0,0.0,0.0,0.0,0.0,-0.0605,-0.0572,-0.0554,-0.0509,-0.0573,-0.0581,0.0,0.0,0.0,0.0,0.0,0.0,0.0,0.0,0.0,0.0,0.0,0.0,0.0,0.0,0.0,0.0,0.0,0.0,0.0,0.0,0.0,0.0,0.0,0.0,0.0,0.0,0.0,0.0,0.0,0.0,0.0,0.0,0.0,0.0,0.0,0.0,0.0,0.0,0.0,0.0,0.0,0.0,0.0,0.0,0.0,0.0,0.0,0.0,0.0,0.0,0.0,0.0,0.0,0.0,0.0,0.0,0.0,0.0,0.0,0.0,0.0,0.0,0.0,0.0,0.0,0.0,0.0,0.0,0.0,0.0,0.0,0.0,0.0,0.0,0.0,0.0,0.0,0.0,0.0,0.0,0.0,0.0,0.0,0.0,0.0,0.0,0.0,0.0,0.0,0.0,0.0,0.0,0.0,0.0,0.0,0.0,0.0,0.0,0.0,0.0,0.0,0.0,0.0,0.0,0.0,0.0,0.0,0.0,-0.0573,-0.0413,-0.0203,-0.0166,-0.0287,-0.0232,-0.0308,0.0,0.0,0.0,0.0,0.0,0.0,0.0,0.0,0.0,0.0,0.0,0.0,0.0,0.0,0.0,0.0,0.0,0.0,0.0,0.0,0.0,0.0,0.0,0.0,0.0,0.0,0.0,0.0,0.0,0.0,0.0,0.0,0.0,0.0,0.0,0.0,0.0,0.0,0.0,0.0,0.0,0.0,0.0,0.0,0.0,0.0,0.0,0.0,0.0,0.0,0.0,0.0,0.0,0.0,0.0,0.0,0.0,0.0,0.0,0.0,0.0,0.0,0.0,0.0,0.0,0.0,0.0,0.0,0.0,0.0,0.0,0.0,0.0,0.0,0.0,0.0,0.0,0.0,0.0,0.0,0.0,0.0,0.0,0.0,0.0,0.0,0.0,0.0,0.0,0.0,0.0,0.0,0.0,0.0,0.0,0.0,0.0,0.0,0.0,0.0,0.0,0.0,0.0,0.0,0.0,0.0,0.0,0.0,0.0,-0.0373,0.0024,0.0182,0.005,0.0067,-0.0021,0.0,0.0,0.0,0.0,0.0,0.0,0.0,0.0,0.0,0.0,0.0,0.0,0.0,0.0,0.0,0.0,0.0,0.0,0.0,0.0,0.0,0.0,0.0,0.0,0.0,0.0,0.0,0.0,0.0,0.0,0.0,0.0,0.0,0.0,0.0,0.0,0.0,0.0,0.0,0.0,0.0,0.0,0.0,0.0,0.0,0.0,0.0,0.0,0.0,0.0,0.0,0.0,0.0,0.0,0.0,0.0,0.0,0.0,0.0,0.0,0.0,0.0,0.0,0.0,0.0,0.0,0.0,0.0,0.0,0.0,0.0,0.0,0.0,0.0,0.0,0.0,0.0,0.0,0.0,0.0,0.0,0.0,0.0,0.0,0.0,0.0,0.0,0.0,0.0,0.0,0.0,0.0,0.0,0.0,0.0,0.0,0.0,0.0,0.0,0.0,0.0,0.0,0.0,0.0,0.0,0.0,0.0,0.0,0.0,0.0464,0.0826,0.0943,0.0735,0.0556,0.0347,0.0094,0.0,0.0,0.0,0.0,0.0,0.0,0.0,0.0,0.0,0.0,0.0,0.0,0.0,0.0,0.0,0.0,0.0,0.0,0.0,0.0,0.0,0.0,0.0,0.0,0.0,0.0,0.0,0.0,0.0,0.0,0.0,0.0,0.0,0.0,0.0,0.0,0.0,0.0,0.0,0.0,0.0,0.0,0.0,0.0,0.0,0.0,0.0,0.0,0.0,0.0,0.0,0.0,0.0,0.0,0.0,0.0,0.0,0.0,0.0,0.0,0.0,0.0,0.0,0.0,0.0,0.0,0.0,0.0,0.0,0.0,0.0,0.0,0.0,0.0,0.0,0.0,0.0,0.0,0.0,0.0,0.0,0.0,0.0,0.0,0.0,0.0,0.0,0.0,0.0,0.0,0.0,0.0,0.0,0.0,0.0,0.0,0.0,0.0,0.0,0.0,0.0,0.0,0.0,0.0,0.0,0.0,0.0,0.0,0.1849,0.2065,0.2015,0.1628,0.12,0.0793,0.0,0.0,0.0,0.0,0.0,0.0,0.0,0.0,0.0,0.0,0.0,0.0,0.0,0.0,0.0,0.0,0.0,0.0,0.0,0.0,0.0,0.0,0.0,0.0,0.0,0.0,0.0,0.0,0.0,0.0,0.0,0.0,0.0,0.0,0.0,0.0,0.0,0.0,0.0,0.0,0.0,0.0,0.0,0.0,0.0,0.0,0.0,0.0,0.0,0.0,0.0,0.0,0.0,0.0,0.0,0.0,0.0,0.0,0.0,0.0,0.0,0.0,0.0,0.0,0.0,0.0,0.0,0.0,0.0,0.0,0.0,0.0,0.0,0.0,0.0,0.0,0.0,0.0,0.0,0.0,0.0,0.0,0.0,0.0,0.0,0.0,0.0,0.0,0.0,0.0,0.0,0.0,0.0,0.0,0.0,0.0,0.0,0.0,0.0,0.0,0.0,0.0,0.0,0.0,0.0,0.0,0.0,0.0,0.0,0.2398,0.3021,0.2972,0.2231,0.1815,0.1405,0.0,0.0,0.0,0.0,0.0,0.0,0.0,0.0,0.0,0.0,0.0,0.0,0.0,0.0,0.0,0.0,0.0,0.0,0.0,0.0,0.0,0.0,0.0,0.0,0.0,0.0,0.0,0.0,0.0,0.0,0.0,0.0,0.0,0.0,0.0,0.0,0.0,0.0,0.0,0.0,0.0,0.0,0.0,0.0,0.0,0.0,0.0,0.0,0.0,0.0,0.0,0.0,0.0,0.0,0.0,0.0,0.0,0.0,0.0,0.0,0.0,0.0,0.0,0.0,0.0,0.0,0.0,0.0,0.0,0.0,0.0,0.0,0.0,0.0,0.0,0.0,0.0,0.0,0.0,0.0,0.0,0.0,0.0,0.0,0.0,0.0,0.0,0.0,0.0,0.0,0.0,0.0,0.0,0.0,0.0,0.0,0.0,0.0,0.0,0.0,0.0,0.0,0.0,0.0,0.0,0.0,0.0,0.0,0.2509,0.3051,0.3672,0.3741,0.322,0.2528,0.1901,0.0,0.0,0.0,0.0,0.0,0.0,0.0,0.0,0.0,0.0,0.0,0.0,0.0,0.0,0.0,0.0,0.0,0.0,0.0,0.0,0.0,0.0,0.0,0.0,0.0,0.0,0.0,0.0,0.0,0.0,0.0,0.0,0.0,0.0,0.0,0.0,0.0,0.0,0.0,0.0,0.0,0.0,0.0,0.0,0.0,0.0,0.0,0.0,0.0,0.0,0.0,0.0,0.0,0.0,0.0,0.0,0.0,0.0,0.0,0.0,0.0,0.0,0.0,0.0,0.0,0.0,0.0,0.0,0.0,0.0,0.0,0.0,0.0,0.0,0.0,0.0,0.0,0.0,0.0,0.0,0.0,0.0,0.0,0.0,0.0,0.0,0.0,0.0,0.0,0.0,0.0,0.0,0.0,0.0,0.0,0.0,0.0,0.0,0.0,0.0,0.0,0.0,0.0,0.0,0.0,0.0,0.0,0.0,0.2999,0.3825,0.4261,0.4442,0.4335,0.3195,0.2329,0.0,0.0,0.0,0.0,0.0,0.0,0.0,0.0,0.0,0.0,0.0,0.0,0.0,0.0,0.0,0.0,0.0,0.0,0.0,0.0,0.0,0.0,0.0,0.0,0.0,0.0,0.0,0.0,0.0,0.0,0.0,0.0,0.0,0.0,0.0,0.0,0.0,0.0,0.0,0.0,0.0,0.0,0.0,0.0,0.0,0.0,0.0,0.0,0.0,0.0,0.0,0.0,0.0,0.0,0.0,0.0,0.0,0.0,0.0,0.0,0.0,0.0,0.0,0.0,0.0,0.0,0.0,0.0,0.0,0.0,0.0,0.0,0.0,0.0,0.0,0.0,0.0,0.0,0.0,0.0,0.0,0.0,0.0,0.0,0.0,0.0,0.0,0.0,0.0,0.0,0.0,0.0,0.0,0.0,0.0,0.0,0.0,0.0,0.0,0.0,0.0,0.0,0.0,0.0,0.0,0.0,0.0,0.0,0.3724,0.4629,0.5338,0.5462,0.4927,0.3709,0.2793,0.0,0.0,0.0,0.0,0.0,0.0,0.0,0.0,0.0,0.0,0.0,0.0,0.0,0.0,0.0,0.0,0.0,0.0,0.0,0.0,0.0,0.0,0.0,0.0,0.0,0.0,0.0,0.0,0.0,0.0,0.0,0.0,0.0,0.0,0.0,0.0,0.0,0.0,0.0,0.0,0.0,0.0,0.0,0.0,0.0,0.0,0.0,0.0,0.0637,0.0,0.0,0.0,0.0,0.0,0.0,0.0,0.0,0.0,0.0,0.0,0.0,0.0,0.0,0.0,0.0,0.0,0.0,0.0,0.0,0.0,0.0,0.0,0.0,0.0,0.0,0.0,0.0,0.0,0.0,0.0,0.0,0.0,0.0,0.0,0.0,0.0,0.0,0.0,0.0,0.0,0.0,0.0,0.0,0.0,0.0,0.0,0.0,0.0,0.0,0.0,0.0,0.0,0.0,0.0,0.0,0.0,0.0,0.0,0.4322,0.5126,0.576,0.5867,0.5394,0.4759,0.3793,0.0,0.0,0.0,0.0,0.0,0.0,0.0,0.0,0.0,0.0,0.0,0.0,0.0,0.0,0.0,0.0,0.0,0.0,0.0,0.0,0.0,0.0,0.0,0.0,0.0,0.0,0.0,0.0,0.0,0.0,0.0,0.0,0.0,0.0,0.0,0.0,0.0,0.0,0.0,0.0,0.0,0.0,0.0,0.0,0.0,0.0,0.0,0.0,0.0,0.0,0.0,0.0,0.0,0.0,0.0,0.0,0.0,0.0,0.0,0.0,0.0,0.0,0.0,0.0,0.0,0.0,0.0,0.0,0.0,0.0,0.0,0.0,0.0,0.0,0.0,0.0,0.0,0.0,0.0,0.0,0.0,0.0,0.0,0.0,0.0,0.0,0.0,0.0,0.0,0.0,0.0,0.0,0.0,0.0,0.0,0.0,0.0,0.0,0.0,0.0,0.0,0.0,0.0,0.0,0.0,0.0,0.0,0.3991,0.4869,0.5599,0.6163,0.6254,0.5891,0.5929,0.4938,0.2745,0.0,0.0,0.0,0.0,0.0,0.0,0.0,0.0,0.0,0.0,0.0,0.0,0.0,0.0,0.0,0.0,0.0,0.0,0.0,0.0,0.0,0.0,0.0,0.0,0.0,0.0,0.0,0.0,0.0,0.0,0.0,0.0,0.0,0.0,0.0,0.0,0.0,0.0,0.0073,0.0631,0.0,0.0,0.0,0.0,0.0,0.0,0.0,0.0,0.1574,0.0,0.0,0.0,0.0,0.0,0.0,0.0,0.0,0.0,0.0,0.0,0.0,0.0,0.0,0.0,0.0,0.0,0.0,0.0,0.0,0.0,0.0,0.0,0.0,0.0,0.0,0.0,0.0,0.0,0.0,0.0,0.0,0.0,0.0,0.0,0.0,0.0,0.0,0.0,0.0,0.0,0.0,0.0,0.0,0.0,0.0,0.0,0.0,0.0,0.0,0.0,0.0,0.0,0.0,0.0,0.0,0.3466,0.4475,0.5489,0.6557,0.7529,0.7567,0.6671,0.6698,0.5668,0.3469,0.0,0.0,0.0,0.0,0.0,0.0,0.0,0.0,0.0,0.0,0.0,0.0,0.0,0.0,0.0,0.0,0.0,0.0,0.0,0.0,0.0,0.0,0.0,0.0,0.0,0.0,0.0,0.0,0.0,0.0,0.0,0.0,0.0,0.0,0.0,0.0,0.0,0.0,0.0,0.1794,0.1992,0.0,0.0,0.0,0.0,0.0,0.0,0.0,0.0,0.2015,0.0,0.0,0.0,0.0,0.0,0.0,0.0,0.0,0.0,0.0,0.0,0.0,0.0,0.0,0.0,0.0,0.0,0.0,0.0,0.0,0.0,0.0,0.0,0.0,0.0,0.0,0.0,0.0,0.0,0.0,0.0,0.0,0.0,0.0,0.0,0.0,0.0,0.0,0.0,0.0,0.0,0.0,0.0,0.0,0.0,0.0,0.0,0.0,0.0,0.0,0.0,0.0,0.0,0.0,0.0,0.383,0.5173,0.629,0.7145,0.7791,0.7834,0.7183,0.7222,0.6187,0.0,0.0,0.0,0.0,0.0,0.0,0.0,0.0,0.0,0.0,0.0,0.0,0.0,0.0,0.0,0.0,0.0,0.0,0.0,0.0,0.0,0.0,0.0,0.0,0.0,0.0,0.0,0.0,0.0,0.0,0.0,0.0,0.0,0.0,0.0,0.0,0.0,0.0,0.0,0.0,0.2514,0.2886,0.3072,0.0,0.0,0.0,0.0,0.0,0.0,0.2703,0.2476,0.0,0.0,0.0,0.0,0.0,0.0,0.0,0.0,0.0,0.0,0.0,0.0,0.0,0.0,0.0,0.0,0.0,0.0,0.0,0.0,0.0,0.0,0.0,0.0,0.0,0.0,0.0,0.0,0.0,0.0,0.0,0.0,0.0,0.0,0.0,0.0,0.0,0.0,0.0,0.0,0.0,0.0,0.0,0.0,0.0,0.0,0.0,0.0,0.0,0.0,0.0,0.0,0.0,0.0,0.0,0.4189,0.5825,0.6975,0.7567,0.7953,0.7974,0.76,0.757,0.6504,0.0,0.0,0.0,0.0,0.0,0.0,0.0,0.0,0.0,0.0,0.0,0.0,0.0,0.0,0.0,0.0,0.0,0.0,0.0,0.0,0.0,0.0,0.0,0.0,0.0,0.0,0.0,0.0,0.0,0.0,0.0,0.0,0.0,0.0,0.0,0.0,0.0,0.0,0.0,0.0,0.0,0.3718,0.3876,0.3311,0.0,0.0,0.0,0.0,0.4068,0.371,0.0,0.0,0.0,0.0,0.0,0.0,0.0,0.0,0.0,0.0,0.0,0.0,0.0,0.0,0.0,0.0,0.0,0.0,0.0,0.0,0.0,0.0,0.0,0.0,0.0,0.0,0.0,0.0,0.0,0.0,0.0,0.0,0.0,0.0,0.0,0.0,0.0,0.0,0.0,0.0,0.0,0.0,0.0,0.0,0.0,0.0,0.0,0.0,0.0,0.0,0.0,0.0,0.0,0.0,0.0,0.0,0.4716,0.6188,0.7262,0.7853,0.8616,0.8658,0.789,0.7645,0.6463,0.0,0.0,0.0,0.0,0.0,0.0,0.0,0.0,0.0,0.0,0.0,0.0,0.0,0.0,0.0,0.0,0.0,0.0,0.0,0.0,0.0,0.0,0.0,0.0,0.0,0.0,0.0,0.0,0.0,0.0,0.0,0.0,0.0,0.0,0.0,0.0,0.0,0.0,0.0,0.0,0.0,0.4461,0.4263,0.4295,0.4255,0.0,0.0,0.0,0.5683,0.6051,0.0,0.0,0.0,0.0,0.0,0.0,0.0,0.0,0.0,0.0,0.0,0.0,0.0,0.0,0.0,0.0,0.0,0.0,0.0,0.0,0.0,0.0,0.0,0.0,0.0,0.0,0.0,0.0,0.0,0.0,0.0,0.0,0.0,0.0,0.0,0.0,0.0,0.0,0.0,0.0,0.0,0.0,0.0,0.0,0.0,0.0,0.0,0.0,0.0,0.0,0.0,0.0,0.0,0.0,0.0,0.3882,0.4826,0.6511,0.7628,0.8121,0.8683,0.8704,0.8135,0.7723,0.6491,0.0,0.0,0.0,0.0,0.0,0.0,0.0,0.0,0.0,0.0,0.0,0.0,0.0,0.0,0.0,0.0,0.0,0.0,0.0,0.0,0.0,0.0,0.0,0.0,0.0,0.0,0.0,0.0,0.0,0.0,0.0,0.0,0.0,0.0,0.0,0.0,0.0,0.0,0.0,0.0,0.0,0.0,0.5118,0.5307,0.0,0.0,0.0,0.6131,0.611,0.0,0.0,0.0,0.0,0.0,0.0,0.0,0.0,0.0,0.0,0.0,0.0,0.0,0.0,0.0,0.0,0.0,0.0,0.0,0.0,0.0,0.0,0.0,0.0,0.0,0.0,0.0,0.0,0.0,0.0,0.0,0.0,0.0,0.0,0.0,0.0,0.0,0.0,0.0,0.0,0.0,0.0,0.0,0.0,0.0,0.0,0.0,0.0,0.0,0.0,0.0,0.0,0.0,0.0,0.0,0.0,0.0,0.5,0.6834,0.7955,0.8294,0.8697,0.8746,0.8406,0.7863,0.0,0.0,0.0,0.0,0.0,0.0,0.0,0.0,0.0,0.0,0.0,0.0,0.0,0.0,0.0,0.0,0.0,0.0,0.0,0.0,0.0,0.0,0.0,0.0,0.0,0.0,0.0,0.0685,0.0,0.0,0.0,0.0,0.0,0.0,0.0,0.0,0.0,0.0,0.0,0.0,0.0,0.0,0.5342,0.5914,0.6125,0.6275,0.0,0.0,0.6936,0.6945,0.7475,0.7583,0.0,0.0,0.0,0.0,0.0,0.0,0.0,0.0,0.0,0.0,0.0,0.0,0.0,0.0,0.0,0.0,0.0,0.0,0.0,0.0,0.0,0.0,0.0,0.0,0.0,0.0,0.0,0.0,0.0,0.0,0.0,0.0,0.0,0.0,0.0,0.0,0.0,0.0,0.0,0.0,0.0,0.0,0.0,0.0,0.0,0.0,0.0,0.0,0.0,0.0,0.0,0.0,0.0,0.0,0.0,0.5474,0.7182,0.8139,0.8315,0.8875,0.901,0.8665,0.8096,0.6854,0.0,0.0,0.0,0.0,0.0,0.0,0.0,0.0,0.0,0.0,0.0,0.0,0.0,0.0,0.0,0.0,0.0,0.0,0.0,0.0,0.0,0.0,0.0,0.0,0.0,0.0,0.0,0.0,0.0,0.0,0.0,0.0,0.0,0.0,0.0,0.0,0.0,0.0,0.0,0.0,0.0,0.5936,0.6475,0.672,0.7199,0.0,0.0,0.8153,0.8883,0.9536,0.9146,0.6724,0.0,0.0,0.0,0.0,0.0,0.0,0.0,0.0,0.0,0.0,0.0,0.0,0.0,0.0,0.0,0.0,0.0,0.0,0.0,0.0,0.0,0.0,0.0,0.0,0.0,0.0,0.0,0.0,0.0,0.0,0.0,0.0,0.0,0.0,0.0,0.0,0.0,0.0,0.0,0.0,0.0,0.0,0.0,0.0,0.0,0.0,0.0,0.0,0.0,0.0,0.0,0.0,0.0,0.4647,0.5793,0.7327,0.838,0.8941,0.9188,0.9278,0.926,0.8463,0.7305,0.0,0.0,0.0,0.0,0.0,0.0,0.0,0.0,0.0,0.0,0.0,0.0,0.0,0.0,0.0,0.0,0.0,0.0,0.0,0.0,0.0,0.0,0.0,0.0,0.0,0.0,0.0,0.0,0.2672,0.2707,0.2216,0.0,0.0,0.0,0.0,0.0,0.0,0.0,0.0,0.0,0.0,0.6441,0.7556,0.7993,0.0,0.0,0.8728,0.9034,0.9172,0.9455,0.9092,0.747,0.7006,0.0,0.0,0.0,0.0,0.0,0.0,0.0,0.0,0.0,0.0,0.0,0.0,0.0,0.0,0.0,0.0,0.0,0.0,0.0,0.0,0.0,0.0,0.0,0.0,0.0,0.0,0.0,0.0,0.0,0.0,0.0,0.0,0.0,0.0,0.0,0.0,0.0,0.0,0.0,0.0,0.0,0.0,0.0,0.0,0.0,0.0,0.0,0.0,0.0,0.0,0.0,0.0,0.4764,0.5984,0.7425,0.8539,0.9242,0.9309,0.9404,0.9501,0.8789,0.7752,0.0,0.0,0.0,0.0,0.0,0.0,0.0,0.0,0.0,0.0,0.0,0.0,0.0,0.0,0.0,0.0,0.0,0.0,0.0,0.0,0.0,0.0,0.0,0.0,0.0,0.0,0.0,0.0,0.2942,0.2904,0.2332,0.0,0.0,0.0,0.0,0.0,0.0,0.0,0.0,0.0,0.0,0.7028,0.8225,0.8599,0.8767,0.8742,0.9228,0.9541,0.9351,0.9614,0.9471,0.8366,0.0,0.0,0.0,0.0,0.0,0.0,0.0,0.0,0.0,0.0,0.0,0.0,0.0,0.0,0.0,0.0,0.0,0.0,0.0,0.0,0.0,0.0,0.0,0.0,0.0,0.0,0.0,0.0,0.0,0.0,0.0,0.0,0.0,0.0,0.0,0.0,0.0,0.0,0.0,0.0,0.0,0.0,0.0,0.0,0.0,0.0,0.0,0.0,0.0,0.0,0.0,0.0,0.0,0.4865,0.5991,0.7532,0.8529,0.9028,0.914,0.9278,0.9419,0.9013,0.8271,0.7168,0.0,0.0,0.0,0.0,0.0,0.0,0.0,0.0,0.0,0.0,0.0,0.0,0.0,0.0,0.0,0.0,0.0,0.0,0.0,0.0,0.0,0.0,0.0,0.0,0.0,0.0,0.1283,0.2102,0.2765,0.0,0.0,0.0,0.0,0.0,0.0,0.0,0.0,0.0,0.0,0.6532,0.7701,0.8349,0.8321,0.8669,0.9624,0.9686,0.9616,0.9635,1.0397,1.0613,0.0,0.0,0.0,0.0,0.0,0.0,0.0,0.0,0.0,0.0,0.0,0.0,0.0,0.0,0.0,0.0,0.0,0.0,0.0,0.0,0.0,0.0,0.0,0.0,0.0,0.0,0.0,0.0034,0.0017,0.0,0.0,0.0,0.0,0.0,0.0,0.0,0.0,0.0,0.0,0.0,0.4139,0.4351,0.0,0.0,0.0,0.0,0.0,0.0,0.0,0.0,0.0,0.0,0.0,0.0,0.5454,0.6719,0.7889,0.9033,1.0069,0.9733,0.9694,0.9988,0.9565,0.8542,0.6861,0.0,0.0,0.0,0.0,0.0,0.0,0.0,0.0,0.0,0.0,0.0,0.0,0.0,0.0,0.0,0.0,0.0,0.0,0.0,0.0,0.0,0.0,0.0,0.0,0.0,0.2267,0.0,0.0,0.0,0.0,0.0,0.0,0.0,0.0,0.0,0.0,0.0,0.584,0.7453,0.7957,0.8664,1.0004,1.0053,1.0155,0.0,0.0,0.0,0.0,0.0,0.0,0.0,0.0,0.0,0.0,0.0,0.0,0.0,0.0,0.9298,0.8148,0.8297,0.8798,0.9347,0.0,0.0,0.0,0.0,0.0,0.0,0.0,0.0,0.0,0.0,0.0,0.0,0.0,0.0,0.0,0.0,0.1096,0.0,0.0,0.0,0.0,0.0,0.0,0.0,0.0,0.4277,0.4877,0.5544,0.5749,0.5724,0.0,0.5577,0.4879,0.0,0.0,0.0,0.0,0.0,0.0,0.0,0.0,0.6031,0.7326,0.8728,0.9972,1.0987,1.0515,1.0405,1.0726,1.0016,0.8997,0.7665,0.6886,0.5957,0.0,0.0,0.0,0.0,0.0,0.0,0.0,0.0,0.0,0.0,0.0,0.0,0.0,0.0,0.0,0.0,0.0,0.0,0.0,0.0,0.0,0.0,0.0,0.2866,0.0,0.0,0.0,0.0,0.0,0.0,0.0,0.0,0.0,0.4875,0.5837,0.7185,0.8923,0.9032,0.9491,1.09,0.0,0.0,0.0,0.0,0.0,0.0,0.0,1.0762,1.0646,1.0237,0.9791,0.9407,1.0448,1.1414,1.1607,0.0,0.0,1.0358,1.0447,1.1096,1.1929,1.232,1.2492,1.2271,1.2497,1.2915,0.0,0.0,0.0,0.0,0.0,0.0,0.0,0.0,0.1804,0.1912,0.0,0.2491,0.0,0.0,0.0,0.0,0.0,0.0,0.0,0.0,0.6619,0.7312,0.7522,0.7531,0.7538,0.7527,0.6988,0.6488,0.6051,0.5433,0.0,0.0,0.0,0.0,0.0,0.0,0.6572,0.7881,0.9875,1.1201,1.1679,1.1475,1.142,1.1597,1.0359,0.9692,0.9585,0.7822,0.6931,0.7251,0.461,0.0,0.0,0.0,0.0,0.0,0.0,0.0,0.0,0.0,0.0,0.0,0.0,0.0,0.0,0.0,0.0,0.0,0.0,0.0,0.0,0.3313,0.0,0.0,0.0,0.0,0.0,0.0,0.0,0.0,0.0,0.0,0.6254,0.7322,0.8499,0.9481,0.0,0.0,0.0,0.0,1.1563,1.2103,1.2939,1.3096,1.1855,1.2859,1.3648,1.3233,0.0,0.0,1.2811,1.4,1.4648,1.3711,1.4946,1.5517,1.3095,1.2318,1.2326,1.3262,1.371,1.3358,1.2888,1.3934,1.4833,0.1616,0.0,0.0,0.0,0.0,0.0789,0.1278,0.2093,0.2091,0.2265,0.2593,0.271,0.0,0.0,0.0,0.0,0.0,0.0,0.5455,0.6647,0.6995,0.7677,0.8724,0.8705,0.8705,0.8705,0.8778,0.8537,0.8021,0.7993,0.6541,0.3742,0.0,0.0,0.0,0.0,0.7475,0.8785,0.9987,1.108,1.2114,1.2041,1.2162,1.2451,1.1562,1.1032,1.0871,1.0155,0.9088,0.7781,0.6752,0.0,0.0,0.0,0.0,0.0,0.0,0.0,0.0,0.0,0.0,0.0,0.0,0.0,0.0,0.0,0.0,0.0,0.0,0.0,0.2653,0.356,0.4052,0.0,0.0,0.0,0.0,0.0,0.0,0.0,0.0,0.0,0.8617,0.895,0.937,0.0,0.0,1.097,1.1462,1.2061,1.2735,1.3545,0.0,0.0,0.0,1.4393,1.4636,1.4977,1.5258,1.5452,1.5574,1.5867,1.601,1.5775,1.5993,1.6304,1.6819,1.705,1.7568,1.8705,1.9214,1.9409,1.9407,1.9741,2.0131,0.3012,0.2716,0.2059,0.1673,0.1517,0.1793,0.2363,0.3101,0.3125,0.33,0.3605,0.3728,0.3445,0.2896,0.3115,0.0,0.0,0.0,0.6689,0.778,0.8032,0.8587,0.9364,0.9391,0.9391,0.9426,0.965,0.9578,0.9234,0.9275,0.8125,0.5876,0.0,0.0,0.5351,0.6838,0.8157,0.9302,1.0438,1.1385,1.2247,1.2555,1.2709,1.2668,1.2161,1.1787,1.1516,1.1073,1.0314,0.9185,0.8199,0.7094,0.0,0.0,0.0,0.0,0.0,0.0,0.0,0.0,0.0,0.0,0.0,0.2859,0.1983,0.0,0.0,0.0,0.3807,0.4161,0.4356,0.4959,0.0,0.0,0.0,0.0,0.0,0.0,0.0,0.7988,0.8838,0.9534,1.0026,1.0363,1.0611,1.0757,1.1109,1.1587,1.22,0.0,1.365,1.4426,1.5089,1.5389,1.5139,1.5145,1.5227,1.5264,1.5774,1.6123,1.6256,1.6625,1.7047,1.7299,1.7668,1.8282,1.9391,2.0174,2.073,2.1229,2.1571,2.1754,2.1652,2.1834,2.2103,0.4498,0.4322,0.2983,0.2463,0.2546,0.3164,0.3841,0.4505,0.4515,0.4656,0.4922,0.5222,0.4939,0.4265,0.4633,0.0,0.0,0.7433,0.8163,0.8958,0.9529,0.9791,0.9818,0.9811,0.9811,0.9811,1.0009,1.0053,1.0027,0.9787,0.9473,0.9087,0.8051,0.7308,0.6977,0.7918,0.8867,0.9714,1.122,1.2097,1.2346,1.3002,1.31,1.266,1.2479,1.2225,1.1867,1.1207,1.0908,1.1013,0.929,0.8094,0.7644,0.0,0.0,0.0,0.0,0.0,0.0,0.0,0.0,0.0,0.0,0.0,0.0,0.0,0.0,0.0,0.6497,0.0,0.7314,0.6924,0.0,0.0,0.0,0.6037,0.6627,0.7637,0.8488,0.8989,0.0,0.0,0.0,0.0,1.1909,1.1845,1.178,1.2085,1.3074,1.3684,1.4299,1.486,1.558,1.5832,1.5244,1.563,1.5855,1.5265,1.56,1.6176,1.5999,1.6873,1.7873,1.825,1.952,2.0593,2.1049,2.1698,2.2134,2.1483,2.163,2.1643,2.1308,2.148,2.1969,0.4867,0.4819,0.4478,0.3969,0.3425,0.3569,0.4067,0.4776,0.4869,0.5162,0.5633,0.5721,0.569,0.5577,0.6162,0.6949,0.7876,0.8346,0.9155,1.0151,1.0221,1.0413,1.0743,1.0756,1.078,1.0811,1.1281,1.1406,1.1233,1.1623,1.1519,1.0899,1.0609,0.9841,0.8699,0.9859,1.0847,1.1627,1.2305,1.2961,1.3544,1.3738,1.3828,1.3794,1.3948,1.3848,1.3462,1.3041,1.2463,1.1731,1.0985,1.01,0.9057,0.7014,0.0,0.0,0.0,0.0,0.0,0.0,0.0,0.0,0.0,0.419,0.3087,0.0,0.4613,0.0,0.6659,0.7237,0.6818,0.6893,0.0,0.0,0.7091,0.7494,0.9098,0.9611,0.9973,1.0313,1.077,1.1064,1.108,1.1262,1.1549,1.1979,1.2501,1.2935,1.3272,1.3674,1.4326,1.5148,1.5769,1.6186,1.6263,1.6985,1.7441,1.7425,1.7681,1.7807,1.7323,1.7984,1.8676,1.8889,1.9348,2.024,2.1524,2.1881,2.2081,2.247,2.2863,2.3141,2.3131,2.3524,2.3992,0.5147,0.5393,0.5393,0.5159,0.4805,0.4711,0.4966,0.5435,0.5472,0.5733,0.6129,0.6183,0.663,0.7369,0.7573,0.8189,0.9077,0.9493,1.0013,1.0567,1.0591,1.0712,1.0972,1.1008,1.1128,1.1317,1.211,1.2515,1.2572,1.3239,1.3356,1.2961,1.305,1.2584,1.1597,1.1259,1.1268,1.1636,1.2398,1.3199,1.4055,1.4181,1.4137,1.4004,1.4203,1.4048,1.3397,1.3223,1.2711,1.1824,1.1395,1.0659,0.9536,0.7881,0.6712,0.0,0.0,0.0,0.0,0.0,0.0,0.0,0.0,0.0,0.0,0.0,0.5852,0.0,0.781,0.0,0.7581,0.785,0.8157,0.8353,0.8365,0.8924,1.036,1.0681,1.0933,1.1251,1.1492,1.1576,1.1475,1.1658,1.1861,1.2139,1.2808,1.3365,1.3613,1.4024,1.461,1.5329,1.5771,1.6098,1.6383,1.6952,1.736,1.7462,1.7548,1.7658,1.7818,1.8235,1.8688,1.9221,1.9778,2.0454,2.1429,2.1878,2.2233,2.281,2.3188,2.3427,2.3709,2.4306,2.4823,0.549,0.5957,0.5953,0.6073,0.62,0.6018,0.6106,0.628,0.6311,0.6437,0.6623,0.6831,0.7721,0.8966,0.867,0.9155,1.0151,1.0407,1.0555,1.0667,1.0777,1.0884,1.1059,1.1187,1.1453,1.1888,1.2891,1.3574,1.3891,1.4631,1.4956,1.4927,1.506,1.4884,1.4364,1.2431,1.1336,1.1251,1.2142,1.3089,1.4051,1.4141,1.3967,1.3594,1.3853,1.3587,1.2733,1.2778,1.2454,1.1699,1.1268,1.0673,0.9764,0.8628,0.7716,0.0,0.6282,0.0,0.0,0.0,0.0,0.0,0.0,0.0,0.0,0.7418,0.7519,0.7438,0.9225,0.998,0.8984,0.9319,0.9573,0.9526,0.992,1.0481,1.1098,1.1426,1.1721,1.2054,1.2091,1.2054,1.2002,1.2293,1.2423,1.2497,1.3009,1.357,1.4023,1.4459,1.4889,1.5374,1.5654,1.5888,1.61,1.6308,1.6536,1.6593,1.6815,1.6991,1.8008,1.8257,1.8613,1.9563,2.0367,2.1009,2.1292,2.198,2.2554,2.2952,2.3122,2.3295,2.3649,2.4192,2.4663,0.6185,0.6319,0.6286,0.6335,0.6363,0.6335,0.6666,0.7242,0.7365,0.7558,0.7882,0.8525,0.8646,0.8419,0.8742,0.9342,1.0025,0.9951,1.0335,1.1006,1.0874,1.1305,1.2247,1.2451,1.2945,1.3697,1.4629,1.5021,1.4942,1.5588,1.5819,1.5597,1.5313,1.484,1.4186,0.0,0.0,0.0,1.2831,1.2788,1.334,1.2733,1.2511,1.2748,1.3611,0.0,1.3205,1.3278,1.289,1.1997,1.1963,0.0,0.0,0.0,0.0,0.0,0.0,0.0,0.0,0.0,0.0,0.0,0.8856,0.8076,0.7674,0.8671,0.9209,0.8821,0.9758,1.0424,1.0462,1.0889,1.1149,1.118,1.1892,1.2468,1.2596,1.2921,1.3165,1.3128,1.3096,1.3036,1.2849,1.262,1.2672,1.3224,1.3533,1.3849,1.4393,1.4555,1.4794,1.5134,1.5448,1.5755,1.6039,1.6306,1.6743,1.7382,1.7776,1.817,1.8895,1.9113,1.9427,2.0329,2.063,2.1114,2.2034,2.252,2.2812,2.3103,2.3457,2.3771,2.3896,2.4087,2.4327,0.642,0.0,0.642,0.6581,0.0,0.6937,0.7521,0.8425,0.7652,0.7782,0.8624,0.8985,0.9268,0.9486,0.9582,1.004,1.0755,1.123,1.1739,1.2255,1.2491,1.2963,1.3558,1.3704,1.4123,1.478,1.5644,1.6057,1.6155,1.6788,1.7017,1.687,1.6486,1.609,1.5712,1.5303,1.4883,1.4463,1.3894,1.3849,1.4232,1.3858,1.3524,1.3338,0.0,0.0,0.0,0.0,0.0,0.0,0.0,0.0,0.0,0.0,0.0,1.0216,0.9329,0.8515,0.7913,0.8521,0.9669,1.1329,1.0693,0.9839,0.9088,1.0049,1.0582,1.0325,1.0867,1.1218,1.1214,1.1627,1.1832,1.1667,1.2265,1.2774,1.2983,1.3129,1.3264,1.3348,1.3328,1.3298,1.312,1.2951,1.2945,1.3363,1.3804,1.4135,1.4393,1.4716,1.5001,1.51,1.5389,1.5831,1.6423,1.6757,1.7214,1.8097,1.8429,1.8861,1.9695,1.988,2.0152,2.0878,2.1232,2.1653,2.2163,2.2571,2.2927,2.3277,2.3513,2.3761,2.4037,2.4229,2.4328,0.642,0.642,0.6548,0.6937,0.7526,0.7624,0.8361,0.932,0.0,0.0,0.0,0.9321,0.9861,1.0618,1.0578,1.0892,1.1547,1.255,1.3053,1.3184,1.3768,1.4156,1.4363,1.4613,1.5018,1.5501,1.6372,1.6927,1.7202,1.7663,1.794,1.7891,1.7477,1.7155,1.6992,1.6349,1.5625,1.4922,1.469,1.4778,1.5137,1.5022,1.4662,1.4007,1.4443,1.4346,1.3627,1.3929,1.3753,1.3027,1.2503,1.2085,1.173,1.0899,1.0679,1.1166,1.0792,1.0522,1.0475,1.0745,1.1306,1.2248,1.2016,1.1528,1.0854,1.1315,1.1632,1.1709,1.1929,1.1963,1.1641,1.2025,1.2158,1.1839,1.2373,1.2915,1.3204,1.3289,1.345,1.3555,1.3621,1.3503,1.344,1.334,1.3328,1.3447,1.3976,1.4489,1.4531,1.4975,1.5288,1.5309,1.5514,1.5965,1.6713,1.7014,1.7663,1.868,1.8802,1.9129,2.0028,2.0437,2.0723,2.1192,2.1749,2.2025,2.2209,2.2527,2.2955,2.3455,2.3484,2.358,2.4125,2.4365,2.4417,0.642,0.6449,0.7101,0.7391,0.7554,0.8102,0.8646,0.9148,0.9901,1.0091,0.9913,1.0581,1.062,1.0142,1.1109,1.149,1.1535,1.1954,1.2171,0.0,1.2316,1.2828,1.3746,1.4576,1.5386,1.6207,1.7101,1.7516,1.7453,1.7545,1.7632,1.7619,1.6927,1.629,1.5703,1.5566,1.5439,1.5312,1.423,1.386,1.4253,1.3611,1.3373,1.3597,1.3997,1.4153,1.4026,1.4094,1.389,1.3447,1.3233,1.309,1.3032,1.2698,1.2773,1.3221,1.3098,1.288,1.2647,1.2804,1.2964,1.3093,1.3087,1.2865,1.2415,1.2134,1.2177,1.2468,1.2294,1.2082,1.2043,1.2439,1.2695,1.2684,1.351,1.4143,1.4167,1.4485,1.4642,1.4586,1.462,1.4507,1.4282,1.3916,1.3828,1.4227,1.4443,1.4752,1.5341,1.544,1.5503,1.5646,1.5771,1.6106,1.6674,1.6636,1.7392,1.9045,1.8889,1.9061,2.027,2.0655,2.091,2.1182,2.154,2.1853,2.2139,2.2476,2.2878,2.3323,2.3562,2.3837,2.4116,2.4229,2.4311,0.7003,0.7068,0.7749,0.8264,0.8646,0.9422,0.9982,1.0406,1.0943,1.0777,1.0276,1.1011,1.117,1.0919,1.1672,1.2031,1.2093,1.3241,1.3813,1.3951,1.4856,1.5522,1.5997,1.6426,1.6834,1.726,1.7647,1.7828,1.7779,1.7769,1.7803,1.7823,1.7242,1.6568,1.582,1.5762,1.5644,1.541,1.482,1.4628,1.4796,1.4445,1.4348,1.4541,1.4708,1.4824,1.4806,1.4796,1.4736,1.4551,1.4208,1.3984,1.3886,1.3489,1.3371,1.3585,1.3459,1.3441,1.3532,1.3506,1.3497,1.3414,1.3349,1.3312,1.335,1.2977,1.2833,1.3003,1.2863,1.2762,1.2753,1.2976,1.3124,1.3134,1.3645,1.408,1.4361,1.4569,1.4754,1.488,1.488,1.48,1.4627,1.437,1.4236,1.4491,1.4699,1.5255,1.6107,1.6315,1.6241,1.5962,1.5733,1.6066,1.6909,1.7095,1.7761,1.9207,1.9218,1.9461,2.0331,2.0663,2.0796,2.1039,2.1354,2.172,2.2065,2.2483,2.2832,2.3081,2.3382,2.3646,2.3899,2.4115,2.4321,0.7587,0.7782,0.8458,0.9134,0.9837,1.0548,1.1138,1.1565,1.1579,1.1279,1.0911,1.1445,1.1722,1.1727,1.2257,1.2528,1.2854,1.438,1.5194,1.5438,1.6802,1.7476,1.751,1.7657,1.775,1.7794,1.7906,1.8008,1.8008,1.8008,1.7959,1.7832,1.7441,1.6877,1.6105,1.5997,1.5782,1.543,1.542,1.542,1.542,1.542,1.541,1.542,1.541,1.542,1.542,1.542,1.542,1.5391,1.4983,1.4677,1.4573,1.411,1.3811,1.3821,1.37,1.3728,1.4007,1.3949,1.3838,1.3737,1.3626,1.3699,1.3964,1.3755,1.3544,1.3451,1.3332,1.3268,1.3304,1.347,1.3581,1.3603,1.394,1.4283,1.4512,1.4654,1.4762,1.496,1.4937,1.4823,1.4697,1.465,1.4593,1.4535,1.4915,1.5557,1.6216,1.668,1.6686,1.6335,1.5923,1.6222,1.7274,1.7455,1.7994,1.9148,1.9133,1.9319,1.9873,2.0239,2.0462,2.0747,2.1118,2.1431,2.1805,2.2268,2.259,2.2784,2.3056,2.3412,2.3753,2.4018,2.4284,0.7879,0.8458,0.9134,0.9907,1.0674,1.0965,1.133,1.1728,1.1775,1.1966,1.2229,1.2394,1.2359,1.2319,1.2863,1.3064,1.3095,1.4143,1.4748,1.4843,1.5525,1.5921,1.6132,1.6724,1.701,1.7148,1.7725,1.8008,1.8008,1.8008,1.7812,1.7432,1.697,1.6521,1.6095,1.5674,1.5459,1.542,1.542,1.542,1.542,1.542,1.542,1.542,1.542,1.542,1.542,1.542,1.542,1.5381,1.5245,1.5119,1.5109,1.4963,1.4857,1.4838,1.4653,1.4534,1.4453,1.4433,1.4396,1.4405,1.4359,1.4378,1.4433,1.438,1.4225,1.3911,1.3543,1.3369,1.335,1.3781,1.4036,1.4053,1.4862,1.5534,1.5154,1.5463,1.56,1.5131,1.504,1.488,1.4857,1.48,1.4719,1.4581,1.4823,1.5142,1.5412,1.5957,1.6488,1.6633,1.6868,1.7103,1.7328,1.7282,1.7763,1.8593,1.8368,1.8549,1.9152,1.9681,2.0006,2.0212,2.0649,2.1007,2.1228,2.1612,2.2108,2.2293,2.2708,2.3313,2.3678,2.3878,2.4067,0.8903,0.9326,0.9964,1.0579,1.1083,1.1185,1.1489,1.1898,1.1906,1.2254,1.2824,1.3242,1.32,1.2806,1.363,1.4001,1.4064,1.5352,1.5948,1.6018,1.6698,1.7063,1.7088,1.7373,1.7545,1.7545,1.7862,1.8008,1.8008,1.8008,1.7666,1.7061,1.6785,1.6356,1.5723,1.5498,1.542,1.542,1.542,1.542,1.542,1.542,1.542,1.542,1.542,1.542,1.542,1.542,1.542,1.5381,1.5362,1.5293,1.5205,1.5156,1.5098,1.5,1.4804,1.4715,1.4803,1.4634,1.4536,1.4616,1.4536,1.4485,1.4485,1.4485,1.4433,1.4277,1.4102,1.4011,1.4003,1.4035,1.4015,1.4088,1.4546,1.4935,1.5065,1.5559,1.5789,1.56,1.5532,1.5313,1.4994,1.4846,1.4753,1.4627,1.4674,1.4777,1.5062,1.5457,1.5923,1.647,1.682,1.7081,1.727,1.7369,1.7683,1.8096,1.8196,1.8326,1.8745,1.9035,1.9321,1.963,2.0056,2.0417,2.0618,2.1118,2.1612,2.1813,2.2266,2.2853,2.3057,2.3555,2.3958,0.9716,1.0066,1.0643,1.1021,1.1272,1.1514,1.176,1.2014,1.2191,1.2654,1.3314,1.3877,1.4002,1.3855,1.4569,1.4887,1.5065,1.6298,1.6906,1.6966,1.7657,1.8008,1.8008,1.8008,1.8008,1.8008,1.8008,1.8008,1.8008,1.8008,1.7627,1.696,1.6765,1.6317,1.5664,1.5488,1.542,1.542,1.542,1.542,1.542,1.542,1.542,1.542,1.542,1.542,1.542,1.542,1.542,1.542,1.542,1.5352,1.5254,1.5264,1.5215,1.5059,1.4902,1.4843,1.4902,1.4675,1.4577,1.4636,1.4556,1.4485,1.4485,1.4485,1.4595,1.4754,1.4773,1.4715,1.4469,1.4377,1.4315,1.4335,1.4583,1.4932,1.5173,1.5688,1.6004,1.5869,1.5826,1.5681,1.512,1.488,1.4811,1.4708,1.4616,1.4593,1.4937,1.5108,1.5424,1.6083,1.63,1.6655,1.7216,1.745,1.7639,1.7774,1.7948,1.8114,1.8533,1.863,1.8803,1.921,1.9503,1.9808,2.0141,2.0632,2.1134,2.1368,2.1803,2.2324,2.2613,2.3212,2.3621,0.9907,1.0593,1.0933,1.1122,1.1185,1.1996,1.2249,1.2056,1.2636,1.3344,1.3913,1.4156,1.4669,1.5501,1.5641,1.5675,1.5781,1.6541,1.6975,1.7044,1.7691,1.8008,1.8008,1.8008,1.8008,1.8008,1.8008,1.8008,1.8008,1.7998,1.7783,1.7334,1.6882,1.6494,1.6027,1.5635,1.541,1.5468,1.5468,1.541,1.542,1.542,1.542,1.542,1.542,1.542,1.542,1.542,1.542,1.542,1.542,1.5381,1.5391,1.5391,1.5332,1.5205,1.5176,1.5029,1.4775,1.4715,1.4666,1.4536,1.4545,1.4485,1.4485,1.4485,1.4704,1.5245,1.5186,1.502,1.4704,1.5012,1.5264,1.5332,1.583,1.5955,1.5642,1.6224,1.6194,1.5939,1.5883,1.5692,1.5188,1.4983,1.4915,1.4869,1.48,1.4776,1.4799,1.4845,1.5085,1.5463,1.5709,1.5988,1.7073,1.7344,1.7434,1.7537,1.7611,1.7788,1.8055,1.8299,1.8553,1.8784,1.8997,1.9295,1.9675,2.0085,2.0564,2.0926,2.1291,2.1728,2.2255,2.2552,2.3033,1.0485,1.0933,1.1279,1.1639,1.1973,1.1942,1.2072,1.2359,1.257,1.2933,1.3566,1.4635,1.5495,1.6045,1.683,1.6906,1.655,1.726,1.7604,1.7613,1.7872,1.8008,1.8008,1.8008,1.8008,1.8008,1.8008,1.8008,1.8008,1.8008,1.7646,1.7051,1.6785,1.6531,1.6264,1.606,1.5968,1.5968,1.5968,1.5806,1.5468,1.542,1.542,1.542,1.542,1.542,1.542,1.542,1.542,1.542,1.542,1.542,1.542,1.542,1.5391,1.5342,1.5254,1.5156,1.502,1.4941,1.4813,1.4636,1.4614,1.4593,1.4524,1.4515,1.4595,1.4803,1.4852,1.4823,1.5186,1.5604,1.5968,1.6065,1.65,1.6746,1.6784,1.7126,1.7337,1.6833,1.6341,1.5796,1.5613,1.5269,1.5017,1.4903,1.4869,1.4846,1.4822,1.4799,1.4994,1.5359,1.5527,1.5758,1.6448,1.6918,1.7115,1.7144,1.7248,1.755,1.7814,1.7909,1.8095,1.8201,1.8436,1.8765,1.9109,1.9424,1.9914,2.028,2.0667,2.1258,2.1934,2.2224,2.2767,1.0909,1.1153,1.1615,1.2066,1.242,1.2282,1.2444,1.2818,1.2826,1.3145,1.387,1.5034,1.5859,1.6435,1.7229,1.7321,1.6972,1.7649,1.8008,1.8008,1.8008,1.8008,1.8008,1.8008,1.8008,1.8008,1.8008,1.8008,1.8008,1.8008,1.7525,1.6746,1.6697,1.6463,1.612,1.6187,1.6301,1.6301,1.6301,1.6169,1.5968,1.5767,1.57,1.569,1.569,1.5584,1.542,1.542,1.542,1.542,1.542,1.542,1.542,1.542,1.542,1.5391,1.5313,1.5235,1.5186,1.5127,1.5,1.4813,1.4714,1.4634,1.4556,1.4536,1.4595,1.4734,1.4852,1.5137,1.5921,1.6482,1.6652,1.6454,1.6669,1.6894,1.6961,1.7435,1.7594,1.7314,1.6841,1.6349,1.5947,1.559,1.528,1.4994,1.4983,1.4926,1.4903,1.4903,1.4994,1.5289,1.5368,1.5446,1.5869,1.6281,1.6765,1.6892,1.6997,1.7303,1.7427,1.7522,1.7638,1.7706,1.7915,1.822,1.8533,1.8841,1.9188,1.9579,2.0058,2.0618,2.1256,2.19,2.2428,1.1122,1.1279,1.1965,1.2297,1.2512,1.3078,1.345,1.3411,1.348,1.3996,1.4749,1.5136,1.5789,1.6512,1.6772,1.6733,1.6876,1.7525,1.7891,1.7939,1.7988,1.8008,1.8008,1.8008,1.8008,1.7998,1.7988,1.7978,1.7949,1.7871,1.7418,1.6794,1.6629,1.6292,1.5468,1.6083,1.6358,1.6386,1.6443,1.6652,1.7034,1.6585,1.6312,1.6312,1.6312,1.6083,1.5526,1.5439,1.542,1.542,1.542,1.542,1.542,1.542,1.542,1.542,1.5381,1.5342,1.5244,1.5215,1.5147,1.5029,1.4872,1.4863,1.4834,1.4784,1.4931,1.5323,1.5497,1.5979,1.7017,1.7352,1.7213,1.6539,1.6641,1.6641,1.6613,1.6922,1.7285,1.7413,1.7304,1.6973,1.6234,1.5843,1.5624,1.5292,1.512,1.5062,1.5051,1.5051,1.5097,1.5131,1.5255,1.5434,1.5512,1.5678,1.6238,1.668,1.682,1.7023,1.7005,1.7081,1.7303,1.7413,1.7727,1.8036,1.826,1.8572,1.8841,1.9225,1.9633,2.0112,2.0814,2.1484,2.1991,1.1514,1.1934,1.2266,1.2726,1.313,1.3381,1.348,1.3571,1.3953,1.4354,1.478,1.5465,1.598,1.6287,1.6541,1.6687,1.6726,1.6999,1.7285,1.7568,1.7861,1.7998,1.7998,1.7998,1.8008,1.7949,1.7705,1.7611,1.7562,1.7295,1.6785,1.6377,1.6341,1.6198,1.6038,1.6585,1.6912,1.694,1.7341,1.7451,1.723,1.7034,1.6922,1.6922,1.6922,1.681,1.6624,1.5864,1.5439,1.5439,1.542,1.542,1.541,1.542,1.542,1.542,1.542,1.5381,1.5371,1.5332,1.5284,1.5225,1.542,1.5594,1.5584,1.5796,1.5997,1.6112,1.5882,1.6102,1.7045,1.7045,1.7129,1.7689,1.7733,1.7595,1.7484,1.765,1.7813,1.7817,1.7599,1.7258,1.689,1.6487,1.59,1.5636,1.536,1.5154,1.5119,1.5119,1.5119,1.5108,1.53,1.5445,1.5534,1.58,1.6303,1.6637,1.6744,1.682,1.6774,1.6816,1.7026,1.7227,1.7529,1.7808,1.8055,1.8293,1.8548,1.8898,1.9321,1.9904,2.0553,2.1132,2.1655,1.2004,1.242,1.3,1.3463,1.3863,1.3872,1.3992,1.4192,1.441,1.4608,1.4969,1.5535,1.585,1.5879,1.6093,1.621,1.626,1.6365,1.6631,1.6973,1.7539,1.7773,1.785,1.8041,1.7989,1.7895,1.7797,1.7804,1.7784,1.751,1.7165,1.6838,1.6767,1.6572,1.6438,1.7118,1.7462,1.7352,1.7754,1.8011,1.7836,1.7644,1.7545,1.7545,1.7534,1.7424,1.7174,1.6454,1.6083,1.6083,1.6054,1.5968,1.5777,1.5748,1.5633,1.5439,1.542,1.541,1.542,1.5391,1.5362,1.5371,1.5797,1.6056,1.6075,1.6443,1.6641,1.6528,1.633,1.65,1.7268,1.7324,1.7556,1.8356,1.8367,1.8313,1.8139,1.8084,1.8084,1.802,1.7825,1.7611,1.7255,1.6982,1.6267,1.5992,1.5624,1.5269,1.52,1.5119,1.5119,1.5131,1.5244,1.539,1.5546,1.591,1.6423,1.6595,1.6701,1.6744,1.6731,1.6829,1.701,1.7123,1.7352,1.7645,1.7875,1.7989,1.8195,1.8597,1.9039,1.9564,2.0183,2.0797,2.1353,1.2535,1.2787,1.3974,1.441,1.4469,1.4499,1.4765,1.5118,1.4824,1.4883,1.5303,1.543,1.5459,1.5439,1.5517,1.5566,1.5508,1.585,1.6075,1.633,1.6877,1.7298,1.7432,1.7942,1.8047,1.7833,1.817,1.8391,1.8319,1.822,1.823,1.7752,1.76,1.7356,1.6828,1.7562,1.7781,1.7479,1.7902,1.8429,1.8827,1.8429,1.8147,1.8147,1.812,1.7929,1.7534,1.7368,1.7257,1.7202,1.7062,1.681,1.6472,1.6358,1.6122,1.57,1.5555,1.5584,1.5517,1.569,1.5546,1.5439,1.6017,1.6161,1.6332,1.6782,1.7107,1.7062,1.7017,1.7234,1.7722,1.7831,1.817,1.8494,1.8518,1.8356,1.8177,1.8166,1.8193,1.8139,1.8077,1.7951,1.7557,1.7396,1.6901,1.6336,1.5992,1.5671,1.5383,1.5291,1.5131,1.5164,1.5277,1.5423,1.5623,1.6032,1.6522,1.6786,1.6837,1.6837,1.6816,1.6913,1.7115,1.7206,1.7269,1.7509,1.7713,1.7868,1.8055,1.8422,1.8836,1.9251,1.9849,2.0566,2.1197,1.3092,1.4004,1.438,1.4499,1.4558,1.4942,1.4971,1.4795,1.5059,1.5235,1.541,1.542,1.542,1.542,1.542,1.542,1.5459,1.5537,1.5586,1.5664,1.6163,1.6686,1.7175,1.7802,1.8101,1.7983,1.8261,1.8342,1.8349,1.8129,1.7862,1.7679,1.7712,1.7478,1.7268,1.7793,1.8011,1.7957,1.8456,1.8801,1.8934,1.8854,1.8762,1.8762,1.8735,1.8682,1.8509,1.8509,1.8066,1.7257,1.7213,1.7146,1.7006,1.6978,1.6866,1.668,1.6641,1.6557,1.6397,1.6528,1.6312,1.5671,1.6708,1.7379,1.6961,1.7809,1.824,1.8224,1.7952,1.787,1.829,1.817,1.8251,1.8625,1.8625,1.8506,1.8452,1.8452,1.8437,1.834,1.8313,1.8155,1.7924,1.7648,1.7327,1.6936,1.649,1.602,1.5753,1.5498,1.5383,1.5357,1.5434,1.5579,1.58,1.6207,1.6595,1.6955,1.7047,1.7034,1.7013,1.7013,1.7331,1.7611,1.7529,1.7672,1.7794,1.7935,1.8161,1.8403,1.8926,1.9482,1.9984,2.0614,2.1166,1.3795,1.4499,1.4765,1.4883,1.4913,1.5274,1.5216,1.4971,1.5235,1.542,1.542,1.542,1.542,1.542,1.542,1.542,1.542,1.542,1.542,1.5517,1.6077,1.6467,1.69,1.761,1.8032,1.8021,1.851,1.8746,1.8744,1.8491,1.8375,1.8414,1.8282,1.812,1.7902,1.8375,1.8456,1.8348,1.8827,1.9131,1.9013,1.9052,1.9052,1.9013,1.9013,1.9013,1.8999,1.8987,1.8655,1.8093,1.7957,1.7847,1.76,1.7562,1.7479,1.7268,1.7213,1.7062,1.695,1.709,1.6866,1.6528,1.7451,1.7781,1.7781,1.8444,1.8934,1.8813,1.8533,1.8533,1.8652,1.8464,1.8491,1.8786,1.8813,1.8721,1.8614,1.8587,1.8572,1.8518,1.8464,1.8422,1.8259,1.7959,1.7701,1.7399,1.7049,1.6565,1.6161,1.5893,1.567,1.5688,1.556,1.5616,1.5724,1.6076,1.6402,1.6795,1.738,1.7346,1.7305,1.7284,1.7421,1.7693,1.7713,1.7774,1.7915,1.8075,1.8319,1.8655,1.9199,1.966,2.0122,2.0614,2.1182,1.4558,1.4656,1.5177,1.542,1.5381,1.542,1.5381,1.5391,1.5381,1.542,1.542,1.542,1.542,1.542,1.542,1.542,1.542,1.5555,1.5661,1.5902,1.6358,1.6717,1.6842,1.7799,1.8109,1.8123,1.8958,1.9314,1.9338,1.9354,1.9382,1.9291,1.933,1.9107,1.875,1.9107,1.8987,1.8682,1.904,1.9237,1.9105,1.9117,1.9117,1.9025,1.9013,1.9013,1.9013,1.9013,1.8934,1.8987,1.9013,1.8655,1.8228,1.8174,1.7972,1.7617,1.76,1.7534,1.7451,1.7534,1.7368,1.733,1.7781,1.812,1.8174,1.8617,1.8987,1.8999,1.9013,1.8893,1.8825,1.8798,1.8839,1.8946,1.8999,1.8881,1.8721,1.864,1.864,1.8625,1.8614,1.8533,1.8464,1.836,1.8205,1.7823,1.7508,1.719,1.6807,1.6514,1.6255,1.6053,1.5869,1.5619,1.5739,1.5888,1.6204,1.657,1.7462,1.7747,1.7727,1.7686,1.7618,1.7693,1.7848,1.7989,1.8089,1.8274,1.847,1.886,1.9347,1.9749,2.0174,2.0681,2.1229,1.4795,1.5216,1.5352,1.542,1.542,1.542,1.542,1.542,1.542,1.542,1.542,1.542,1.542,1.542,1.542,1.542,1.5555,1.5921,1.6368,1.6961,1.7101,1.7385,1.7629,1.8354,1.8573,1.8724,1.9305,1.9682,1.9708,1.9682,1.9734,1.9708,1.9591,1.9512,1.9396,1.9356,1.9368,1.9198,1.9342,1.9316,1.9184,1.9196,1.9158,1.9052,1.904,1.9013,1.9013,1.9013,1.9013,1.9013,1.8987,1.8907,1.8762,1.8735,1.8655,1.8548,1.8536,1.8575,1.8575,1.8483,1.8321,1.7836,1.8282,1.8629,1.8186,1.8655,1.896,1.9013,1.9013,1.8999,1.8946,1.8934,1.896,1.8987,1.9013,1.8987,1.8907,1.8907,1.8839,1.8798,1.8771,1.8706,1.856,1.8545,1.8386,1.8189,1.7985,1.7774,1.7472,1.7142,1.692,1.6669,1.6345,1.6113,1.5994,1.613,1.629,1.6642,1.7428,1.8075,1.8075,1.8062,1.7996,1.8009,1.8083,1.8183,1.8248,1.8347,1.8523,1.8993,1.9508,2.0018,2.0486,2.0908,2.1584,1.5118,1.541,1.542,1.542,1.542,1.542,1.542,1.542,1.542,1.542,1.542,1.542,1.542,1.542,1.5507,1.5652,1.6036,1.6613,1.7285,1.7793,1.7929,1.8174,1.8605,1.891,1.9107,1.9054,1.9488,1.9773,1.9798,1.9798,1.9798,1.9798,1.9734,1.9708,1.9708,1.9617,1.9539,1.9512,1.9565,1.9486,1.9328,1.9342,1.9316,1.921,1.9172,1.9158,1.9105,1.9105,1.909,1.909,1.9078,1.9052,1.9013,1.9013,1.9013,1.9013,1.9013,1.9013,1.8987,1.8987,1.8789,1.8402,1.8789,1.8762,1.8655,1.8854,1.896,1.9013,1.9013,1.9013,1.9013,1.9013,1.9013,1.9013,1.9013,1.9013,1.9013,1.9013,1.8999,1.8893,1.8893,1.8813,1.8759,1.8706,1.8602,1.8427,1.8469,1.827,1.7928,1.7634,1.7581,1.7338,1.6955,1.6657,1.6431,1.6406,1.6497,1.6896,1.7469,1.8022,1.8288,1.8327,1.8347,1.8341,1.8321,1.8341,1.842,1.8498,1.8817,1.9335,1.9891,2.0387,2.0987,2.1614,2.2443,1.542,1.542,1.542,1.542,1.542,1.542,1.542,1.542,1.542,1.542,1.542,1.542,1.542,1.5449,1.5691,1.6132,1.6821,1.7385,1.8027,1.8605,1.8658,1.8936,1.9317,1.9434,1.9434,1.9198,1.9578,1.9798,1.9798,1.9798,1.9798,1.9798,1.9798,1.9773,1.9811,1.9785,1.9734,1.9656,1.9708,1.9656,1.946,1.9512,1.9486,1.9394,1.9368,1.9316,1.9249,1.9223,1.9235,1.9223,1.9223,1.917,1.9105,1.9052,1.9052,1.9052,1.9013,1.9025,1.9052,1.9025,1.8987,1.9025,1.9013,1.8987,1.8999,1.8972,1.8999,1.9013,1.9013,1.9013,1.9013,1.9013,1.9013,1.9013,1.9013,1.9013,1.9013,1.9013,1.8999,1.8999,1.8972,1.8907,1.8866,1.8839,1.8732,1.8706,1.8747,1.8705,1.8362,1.8165,1.8102,1.7922,1.7531,1.7364,1.7149,1.7393,1.7388,1.771,1.807,1.8534,1.8931,1.9113,1.9176,1.8621,1.8517,1.8627,1.8896,1.9243,1.9577,1.9872,2.0508,2.1313,2.1903,2.2423,2.3227,1.542,1.542,1.542,1.542,1.542,1.542,1.543,1.542,1.543,1.542,1.5449,1.542,1.5478,1.5604,1.6007,1.6849,1.7765,1.8282,1.8727,1.9253,1.9331,1.9526,1.963,1.963,1.9604,1.9682,1.9773,1.9798,1.9798,1.9798,1.9798,1.9798,1.9798,1.9798,1.9798,1.9798,1.9798,1.9747,1.9773,1.9708,1.963,1.9591,1.9565,1.9473,1.9447,1.942,1.9368,1.9342,1.9368,1.9368,1.938,1.938,1.9342,1.9237,1.9196,1.9143,1.9066,1.9078,1.9143,1.9066,1.9078,1.9117,1.9105,1.904,1.9013,1.9013,1.9052,1.9013,1.9013,1.9013,1.9013,1.9013,1.9013,1.9013,1.9013,1.9013,1.9013,1.9013,1.9013,1.9013,1.8987,1.8987,1.8946,1.8919,1.8866,1.8813,1.8866,1.8866,1.8687,1.8584,1.8594,1.839,1.8097,1.7995,1.7903,1.8326,1.8599,1.8957,1.9354,1.9802,2.0114,2.0237,2.006,1.9555,1.9227,1.9221,1.957,2.0006,2.058,2.1075,2.1716,2.2308,2.2738,2.3214,2.3949,1.542,1.542,1.542,1.542,1.542,1.542,1.5547,1.5733,1.5625,1.5802,1.6089,1.6096,1.6178,1.6481,1.6839,1.7655,1.8494,1.9069,1.9384,1.9682,1.9708,1.9734,1.9798,1.9708,1.9734,1.9773,1.9798,1.9798,1.9798,1.9798,1.9798,1.9798,1.9798,1.9798,1.9798,1.9798,1.9798,1.9798,1.9798,1.9773,1.9708,1.9708,1.9668,1.9642,1.9591,1.9591,1.9512,1.9486,1.9486,1.9512,1.9486,1.9551,1.9539,1.9486,1.9368,1.9302,1.9237,1.9237,1.9302,1.9225,1.9263,1.9302,1.9237,1.921,1.921,1.921,1.9184,1.9105,1.9013,1.9013,1.9013,1.904,1.9078,1.9013,1.904,1.9052,1.9013,1.9013,1.9013,1.9025,1.9025,1.9013,1.9013,1.8972,1.8946,1.8972,1.8999,1.8946,1.8893,1.8886,1.8895,1.9051,1.8882,1.8945,1.8918,1.9227,1.9554,1.9966,2.0402,2.0862,2.1058,2.1074,2.0909,2.0567,2.0303,2.0262,2.0514,2.1078,2.1671,2.225,2.2616,2.3034,2.3481,2.4023,2.4687,1.542,1.542,1.542,1.5459,1.5537,1.5576,1.5851,1.6186,1.6138,1.6417,1.6999,1.7015,1.7191,1.761,1.8068,1.8662,1.934,1.9764,1.9858,1.9773,1.9798,1.9798,1.9798,1.9798,1.9798,1.9798,1.9798,1.9798,1.9798,1.9798,1.9798,1.9798,1.9798,1.9798,1.9798,1.9798,1.9798,1.9798,1.9798,1.9798,1.9798,1.9798,1.9798,1.9798,1.9798,1.9734,1.963,1.963,1.963,1.963,1.963,1.9682,1.9747,1.9708,1.9591,1.9486,1.942,1.942,1.9447,1.9394,1.9394,1.942,1.942,1.9394,1.9394,1.9342,1.9342,1.9237,1.9158,1.9093,1.9119,1.9184,1.9184,1.9158,1.9196,1.9196,1.9131,1.9105,1.9105,1.9105,1.9052,1.9052,1.9078,1.9131,1.9131,1.9052,1.9078,1.9013,1.8972,1.8972,1.9099,1.9609,1.9787,1.9916,2.0009,2.0087,2.0363,2.0639,2.1092,2.157,2.1692,2.1752,2.173,2.1884,2.1836,2.1839,2.1994,2.2196,2.2867,2.3356,2.3469,2.3809,2.4365,2.4739,2.5191,1.542,1.542,1.542,1.5625,1.6007,1.6127,1.6455,1.6852,1.6979,1.7163,1.7469,1.7849,1.8117,1.8517,1.9442,2.0025,2.0256,2.0289,2.0196,1.9962,1.9836,1.9798,1.9798,1.9798,1.9798,1.9798,1.9798,1.9798,1.9798,1.9798,1.9798,1.9798,1.9798,1.9798,1.9798,1.9798,1.9798,1.9798,1.9798,1.9798,1.9798,1.9798,1.9798,1.9798,1.9811,1.9785,1.9747,1.9747,1.9747,1.9773,1.9773,1.9773,1.9798,1.9798,1.9773,1.9682,1.9565,1.9447,1.9539,1.9512,1.9486,1.9539,1.9486,1.9447,1.9447,1.9434,1.9408,1.9368,1.9342,1.9316,1.9303,1.9368,1.9368,1.9342,1.9342,1.9368,1.9316,1.921,1.921,1.9237,1.9237,1.9223,1.9223,1.9263,1.9316,1.9237,1.9158,1.9146,1.9265,1.9474,1.9604,2.0181,2.069,2.0858,2.0969,2.1092,2.1181,2.1389,2.1724,2.2167,2.2338,2.2581,2.3389,2.3498,2.3398,2.3346,2.346,2.3742,2.4227,2.4403,2.4449,2.4834,2.5365,2.5617,2.5688,1.542,1.543,1.5703,1.5919,1.6114,1.639,1.6784,1.7175,1.7238,1.7757,1.849,1.877,1.9283,2.0018,2.0734,2.0964,2.0994,2.0799,2.0537,2.0225,1.9999,1.9811,1.9798,1.9798,1.9798,1.9798,1.9798,1.9798,1.9798,1.9798,1.9798,1.9798,1.9798,1.9798,1.9798,1.9798,1.9798,1.9798,1.9798,1.9798,1.9798,1.9798,1.9798,1.9798,1.9798,1.9798,1.9798,1.9798,1.9798,1.9798,1.9798,1.9798,1.9798,1.9798,1.9798,1.9798,1.9708,1.9656,1.9708,1.963,1.9656,1.9682,1.9656,1.963,1.963,1.9566,1.9514,1.9512,1.9447,1.942,1.9447,1.946,1.9447,1.9447,1.9486,1.9525,1.9499,1.9368,1.9316,1.9368,1.9447,1.9473,1.9447,1.942,1.9565,1.9734,1.9785,1.9875,2.0194,2.0635,2.0759,2.0957,2.1417,2.1795,2.1918,2.2011,2.2015,2.2172,2.2195,2.2624,2.2958,2.342,2.4015,2.4533,2.4463,2.4544,2.4798,2.4742,2.4694,2.5035,2.5413,2.5581,2.5733,2.5923,2.6127,1.542,1.5449,1.5909,1.6153,1.63,1.6731,1.7194,1.7603,1.7853,1.853,1.9501,1.9955,2.0748,2.1547,2.1815,2.185,2.1681,2.1282,2.093,2.0629,2.0289,1.9974,1.9849,1.9798,1.9798,1.9798,1.9798,1.9798,1.9798,1.9798,1.9798,1.9798,1.9798,1.9798,1.9798,1.9798,1.9798,1.9798,1.9798,1.9798,1.9798,1.9798,1.9798,1.9798,1.9798,1.9798,1.9798,1.9798,1.9798,1.9798,1.9798,1.9798,1.9798,1.9798,1.9798,1.9798,1.9747,1.9773,1.9773,1.9773,1.9798,1.9798,1.9798,1.9747,1.9773,1.9697,1.9645,1.963,1.9591,1.9539,1.9539,1.9604,1.9617,1.9591,1.9604,1.9642,1.9668,1.9694,1.9888,2.0182,2.0182,1.9888,1.9823,1.9629,1.9759,2.0144,2.0371,2.0547,2.0944,2.141,2.1506,2.153,2.1949,2.2324,2.2463,2.2615,2.2735,2.2772,2.2795,2.2841,2.3037,2.3538,2.4156,2.465,2.5064,2.5253,2.5225,2.515,2.5075,2.532,2.5543,2.5754,2.5939,2.6175,2.6522,1.542,1.542,1.5919,1.636,1.6721,1.729,1.778,1.8328,1.915,1.9608,2.0149,2.1194,2.2147,2.2733,2.2727,2.2581,2.2246,2.2209,2.1556,2.0981,2.0591,2.0225,1.9974,1.9798,1.9798,1.9798,1.9798,1.9798,1.9798,1.9798,1.9798,1.9798,1.9798,1.9798,1.9798,1.9798,1.9798,1.9798,1.9798,1.9798,1.9798,1.9798,1.9798,1.9798,1.9798,1.9798,1.9798,1.9798,1.9798,1.9798,1.9798,1.9798,1.9798,1.9798,1.9798,1.9798,1.9798,1.9798,1.9798,1.9798,1.9798,1.9798,1.9849,1.9913,1.9952,1.9875,1.9824,1.9927,1.9927,1.9837,1.9811,1.9785,1.9734,1.9734,1.9734,1.9837,1.9965,2.0195,2.0434,2.0919,2.0894,2.0547,2.0396,2.0245,2.0042,2.0371,2.087,2.1066,2.1348,2.1736,2.1878,2.2044,2.2413,2.2689,2.2789,2.2857,2.2826,2.2803,2.2818,2.2818,2.2886,2.3524,2.4281,2.4569,2.4966,2.5314,2.5597,2.5448,2.5375,2.5505,2.5675,2.5848,2.6315,2.674,2.7018,1.542,1.5508,1.6648,1.7246,1.7407,1.7734,1.8245,1.8924,1.9474,2.0344,2.1259,2.2267,2.2854,2.3047,2.3095,2.3007,2.2744,2.2406,2.1845,2.1267,2.0855,2.0377,1.9987,1.9861,1.9798,1.9836,1.9823,1.9798,1.9798,1.9811,1.9798,1.9798,1.9798,1.9798,1.9798,1.9798,1.9798,1.9798,1.9798,1.9798,1.9798,1.9798,1.9798,1.9798,1.9798,1.9798,1.9798,1.9798,1.9798,1.9798,1.9798,1.9798,1.9798,1.9798,1.9824,1.985,1.985,1.9875,1.9875,1.985,1.9798,1.9888,2.0079,2.0271,2.0271,2.0547,2.0733,2.0721,2.0446,2.0308,2.0283,2.0029,1.9798,1.9798,1.9901,2.008,2.0308,2.061,2.0858,2.1286,2.1286,2.1077,2.1004,2.0917,2.0721,2.0635,2.1153,2.1626,2.1878,2.2067,2.2231,2.2338,2.2666,2.2781,2.288,2.288,2.2872,2.2917,2.2939,2.3029,2.3164,2.3683,2.4343,2.4609,2.493,2.5371,2.5616,2.5597,2.5616,2.5637,2.5772,2.5959,2.6522,2.7194,2.7504,1.5497,1.5829,1.7205,1.7647,1.7593,1.8354,1.8911,1.9365,2.0042,2.1037,2.2433,2.2902,2.3095,2.3095,2.3095,2.3095,2.297,2.2706,2.223,2.1807,2.1355,2.0842,2.0476,2.0351,2.0464,2.0263,2.0087,2.0087,2.0112,1.9899,1.9823,1.9798,1.9798,1.9798,1.9798,1.9798,1.9798,1.9798,1.9798,1.9798,1.9798,1.9798,1.9798,1.9798,1.9798,1.9798,1.9798,1.9798,1.9798,1.9798,1.9798,1.9798,1.9798,1.9824,1.9901,1.9978,2.0029,2.008,2.0194,1.9952,1.9927,2.0118,2.0347,2.0537,2.0736,2.1088,2.1205,2.1272,2.1017,2.0833,2.082,2.0584,2.0459,2.0559,2.0534,2.0658,2.0944,2.1226,2.1382,2.1636,2.1575,2.1623,2.1503,2.1417,2.1358,2.131,2.1827,2.2231,2.2431,2.2583,2.2652,2.2698,2.2803,2.2857,2.288,2.3023,2.3179,2.3319,2.3378,2.3466,2.3689,2.4156,2.4451,2.4699,2.5072,2.5489,2.5675,2.5696,2.5698,2.5682,2.5961,2.6333,2.6724,2.7365,2.7806,1.5758,1.6397,1.7366,1.743,1.7299,1.9265,1.9922,1.9792,2.1049,2.2156,2.2914,2.3095,2.3158,2.317,2.3246,2.3308,2.3371,2.3221,2.2882,2.2485,2.2209,2.1882,2.1518,2.1292,2.1091,2.1242,2.0968,2.0666,2.0666,2.0313,2.0049,1.9861,1.9874,1.9798,1.9798,1.9798,1.9798,1.9798,1.9798,1.9798,1.9798,1.9798,1.9798,1.9798,1.9798,1.9798,1.9798,1.9798,1.9798,1.9798,1.9798,1.9798,1.9798,1.9798,2.0003,2.0434,2.0485,2.0771,2.1237,2.0371,2.0258,2.0574,2.0828,2.0878,2.0833,2.1156,2.1594,2.1752,2.1479,2.1382,2.1369,2.1296,2.1186,2.1113,2.1064,2.1126,2.1358,2.1684,2.1803,2.1921,2.2077,2.2147,2.2006,2.1912,2.1898,2.2077,2.2592,2.2834,2.2872,2.288,2.2857,2.2857,2.2857,2.288,2.2955,2.3282,2.3501,2.3653,2.3739,2.3739,2.4021,2.4436,2.4684,2.4863,2.5192,2.5624,2.5735,2.5809,2.5941,2.6105,2.6505,2.6872,2.7177,2.7502,2.795,1.5976,1.6894,1.7632,1.8225,1.8805,1.9833,2.0462,2.091,2.171,2.2433,2.3005,2.3095,2.3358,2.3602,2.374,2.3835,2.4111,2.4211,2.3966,2.3376,2.3,2.2493,2.2108,2.1744,2.1568,2.1455,2.1282,2.1245,2.1204,2.0865,2.0627,2.0439,2.0049,1.9811,1.9798,1.9798,1.9798,1.9798,1.9798,1.9798,1.9798,1.9798,1.9798,1.9798,1.9798,1.9798,1.9798,1.9798,1.9798,1.9798,1.9798,1.9798,1.9798,1.9798,2.0055,2.0459,2.0635,2.1042,2.1503,2.1286,2.0979,2.1184,2.1374,2.1536,2.1684,2.2119,2.2328,2.2296,2.2039,2.1969,2.1921,2.1551,2.1369,2.1321,2.1296,2.1307,2.1513,2.1898,2.2161,2.2254,2.237,2.2532,2.2509,2.2356,2.2333,2.2301,2.2661,2.2812,2.2857,2.288,2.2888,2.2888,2.2888,2.2888,2.3008,2.3443,2.3687,2.3794,2.3815,2.3831,2.4194,2.4784,2.4902,2.504,2.5384,2.5719,2.5885,2.6067,2.6368,2.6657,2.6937,2.7115,2.7289,2.7654,2.8132,1.6391,1.7471,1.8076,1.9001,2.0064,2.0641,2.1346,2.2058,2.2372,2.272,2.3085,2.3308,2.3584,2.3966,2.423,2.4205,2.4569,2.4519,2.4186,2.3715,2.3308,2.2882,2.2506,2.2234,2.2205,2.2008,2.1832,2.1769,2.1744,2.1568,2.128,2.0905,2.0415,2.0225,2.01,1.9987,1.9798,1.9798,1.9798,1.9798,1.9798,1.9798,1.9798,1.9798,1.9798,1.9798,1.9798,1.9798,1.9824,1.9824,1.9824,1.9824,1.9824,1.9875,2.008,2.0434,2.1115,2.1599,2.2156,2.2263,2.2025,2.2053,2.2196,2.2179,2.2283,2.2563,2.276,2.2775,2.2615,2.2509,2.2333,2.1931,2.1884,2.186,2.1908,2.1955,2.2002,2.2417,2.25,2.2592,2.2615,2.2797,2.291,2.2865,2.2737,2.2706,2.2684,2.2775,2.2843,2.2888,2.3008,2.3075,2.3142,2.3194,2.3399,2.373,2.3921,2.3948,2.4095,2.4261,2.4744,2.5362,2.5288,2.525,2.5591,2.5921,2.612,2.6367,2.6657,2.6937,2.721,2.7352,2.74,2.7789,2.8255,1.7017,1.813,1.87,1.9641,2.0826,2.1604,2.2355,2.3035,2.3078,2.309,2.3195,2.3753,2.4054,2.4205,2.46,2.4695,2.4443,2.4356,2.4029,2.3547,2.3446,2.3221,2.3133,2.2995,2.2794,2.2757,2.2606,2.2322,2.2272,2.1895,2.1606,2.1433,2.0981,2.0752,2.0539,2.025,1.9962,1.9849,1.9798,1.9798,1.9798,1.9798,1.9798,1.9798,1.9798,1.9798,1.9824,1.9875,1.9901,1.9927,1.9927,1.9927,1.9888,1.9875,2.0194,2.0782,2.1752,2.2449,2.2873,2.2873,2.291,2.2752,2.2498,2.2339,2.2399,2.2754,2.2949,2.3023,2.291,2.291,2.2806,2.2775,2.2729,2.2775,2.2843,2.2843,2.2806,2.2888,2.2902,2.2925,2.2857,2.2925,2.2947,2.2947,2.2978,2.2978,2.2933,2.2933,2.3,2.3,2.3142,2.3458,2.3523,2.3616,2.3837,2.411,2.4364,2.4471,2.4887,2.5102,2.557,2.5735,2.5642,2.5661,2.5883,2.6155,2.6505,2.6757,2.6954,2.7258,2.7624,2.7612,2.7672,2.7965,2.834,1.7623,1.8672,1.8939,2.0018,2.157,2.2407,2.291,2.3095,2.3108,2.3296,2.3766,2.3916,2.4368,2.5121,2.531,2.546,2.5468,2.5393,2.5134,2.4632,2.3785,2.3766,2.359,2.3296,2.3158,2.3058,2.292,2.2782,2.2732,2.2334,2.2083,2.1995,2.1518,2.1317,2.1066,2.0717,2.0341,2.0001,1.9938,1.9798,1.9798,1.9798,1.9798,1.9798,1.9798,1.9798,1.9824,2.0156,2.0258,2.0334,2.0708,2.0917,2.1064,2.1015,2.1199,2.1785,2.248,2.3,2.3187,2.3246,2.3246,2.3216,2.2946,2.2847,2.282,2.2897,2.3091,2.3075,2.3135,2.3112,2.3068,2.306,2.306,2.3082,2.3127,2.3149,2.3112,2.3112,2.3127,2.306,2.3015,2.3015,2.3037,2.306,2.309,2.3157,2.3201,2.3201,2.3209,2.3209,2.3392,2.3724,2.3979,2.4126,2.4235,2.4446,2.4768,2.5063,2.5368,2.5629,2.5809,2.5899,2.5899,2.6008,2.6137,2.6539,2.7018,2.721,2.7352,2.78,2.8146,2.8003,2.7979,2.8214,2.8393,1.8072,1.89,1.9077,2.0137,2.165,2.2455,2.2882,2.307,2.3095,2.3434,2.3979,2.4243,2.4682,2.5172,2.5423,2.5485,2.528,2.4895,2.4619,2.4142,2.4029,2.3703,2.3434,2.3321,2.3158,2.3095,2.3095,2.3032,2.3007,2.2857,2.2636,2.2556,2.2083,2.1882,2.1741,2.1542,2.1283,2.0756,2.0307,1.9925,1.9862,1.9862,1.9798,1.9824,1.9824,1.9798,1.9875,2.0334,2.0585,2.0696,2.1151,2.1489,2.1571,2.1524,2.1738,2.2244,2.2618,2.3008,2.3253,2.3378,2.34,2.3363,2.326,2.3149,2.3068,2.3068,2.3105,2.3112,2.3201,2.3268,2.3223,2.3194,2.3194,2.3179,2.3223,2.3268,2.3268,2.3268,2.3223,2.3179,2.3157,2.3157,2.3157,2.3171,2.3179,2.3246,2.3341,2.3451,2.3494,2.3523,2.3767,2.411,2.44,2.4639,2.4744,2.4883,2.5137,2.5403,2.5554,2.5793,2.599,2.6063,2.6061,2.6189,2.6349,2.6774,2.7192,2.755,2.7789,2.8174,2.8406,2.8282,2.8214,2.8309,2.8471,1.8494,1.9023,1.9218,2.018,2.1384,2.2101,2.2644,2.3133,2.3221,2.3509,2.4117,2.4644,2.4971,2.5335,2.5511,2.5159,2.4833,2.4456,2.4104,2.3221,2.3321,2.3246,2.3221,2.3095,2.3095,2.3095,2.3095,2.3095,2.3095,2.2995,2.2957,2.307,2.2619,2.2385,2.2342,2.2189,2.2008,2.1841,2.1053,2.045,2.0233,2.0041,1.985,1.9875,1.985,1.9824,1.9978,2.0283,2.0671,2.0919,2.1321,2.1799,2.188,2.1997,2.2276,2.2475,2.2844,2.3083,2.3363,2.3473,2.3516,2.3486,2.3428,2.3326,2.326,2.3246,2.3224,2.3246,2.3356,2.3363,2.3356,2.3334,2.3334,2.3334,2.3356,2.3385,2.3385,2.3385,2.3334,2.329,2.3231,2.3231,2.329,2.3312,2.3334,2.3363,2.3414,2.3566,2.3824,2.3909,2.4194,2.4527,2.4788,2.5095,2.5323,2.5438,2.557,2.5754,2.5828,2.5919,2.6079,2.6151,2.6205,2.6348,2.6522,2.6889,2.7288,2.7698,2.8045,2.8268,2.8432,2.8458,2.8471,2.8466,2.8492,1.8934,1.9218,1.9914,2.0924,2.2013,2.2217,2.2887,2.3766,2.376,2.4117,2.4657,2.5159,2.5598,2.5862,2.5573,2.5222,2.4996,2.413,2.3941,2.3559,2.3308,2.3108,2.3095,2.3095,2.3095,2.3095,2.3095,2.3125,2.3245,2.3185,2.3138,2.3125,2.2946,2.2968,2.2824,2.2655,2.2567,2.2685,2.235,2.1811,2.1713,2.0883,2.0409,2.0283,2.0182,2.0003,2.0283,2.0856,2.1261,2.1612,2.2457,2.2822,2.2912,2.3001,2.3105,2.3238,2.3216,2.3348,2.3458,2.3545,2.3566,2.3566,2.3523,2.3494,2.3436,2.3428,2.3406,2.3429,2.3444,2.3466,2.3473,2.3451,2.3451,2.3473,2.3473,2.348,2.3501,2.3473,2.3444,2.3385,2.3319,2.3363,2.3444,2.3509,2.3494,2.3501,2.3545,2.3702,2.4168,2.4431,2.4704,2.502,2.5182,2.5462,2.5719,2.5844,2.5899,2.5954,2.6026,2.6115,2.6185,2.6221,2.6258,2.647,2.6691,2.7083,2.75,2.7996,2.8304,2.8427,2.8497,2.8523,2.8549,2.8574,2.8574,1.9078,1.9259,1.9846,2.0819,2.1854,2.2167,2.2949,2.3954,2.4494,2.487,2.5159,2.5485,2.5787,2.6021,2.5485,2.5084,2.4833,2.4004,2.3615,2.3409,2.3358,2.317,2.3095,2.3095,2.3095,2.3095,2.3138,2.3198,2.356,2.3662,2.3691,2.3662,2.3649,2.3547,2.3284,2.3094,2.3219,2.3376,2.3513,2.3587,2.3335,2.2342,2.1332,2.1065,2.0771,2.0572,2.0881,2.1489,2.1823,2.2249,2.2904,2.326,2.3348,2.3377,2.3494,2.3501,2.3523,2.3566,2.3573,2.3595,2.3595,2.3588,2.3566,2.3523,2.3545,2.3515,2.3486,2.3494,2.3487,2.3473,2.3523,2.3545,2.3523,2.3545,2.3545,2.3566,2.3551,2.3545,2.3538,2.3516,2.3523,2.3653,2.3754,2.3925,2.3973,2.4256,2.4194,2.4282,2.4664,2.4839,2.5173,2.5441,2.561,2.5775,2.5972,2.6061,2.6097,2.6151,2.6185,2.6185,2.6185,2.6222,2.6312,2.6521,2.6824,2.7257,2.771,2.8151,2.837,2.8466,2.8549,2.8618,2.8625,2.865,2.8675,1.9105,1.9263,1.9551,2.0357,2.1493,2.2083,2.3025,2.4167,2.5134,2.5624,2.5699,2.5724,2.5674,2.5423,2.5046,2.4519,2.4017,2.3534,2.3246,2.3183,2.3145,2.3095,2.3095,2.3095,2.3215,2.3335,2.3424,2.3884,2.4394,2.4423,2.4423,2.4494,2.4379,2.4221,2.3855,2.3989,2.4401,2.4508,2.4709,2.5061,2.4549,2.3683,2.2613,2.1945,2.1578,2.1527,2.1704,2.2011,2.2337,2.2717,2.3127,2.3392,2.3545,2.3551,2.3573,2.3573,2.3573,2.3573,2.3595,2.3595,2.3595,2.3595,2.3595,2.3595,2.3595,2.3573,2.3545,2.3523,2.3516,2.3538,2.3566,2.3595,2.3595,2.3659,2.3659,2.3702,2.3724,2.3702,2.3696,2.3696,2.3782,2.3909,2.4078,2.4261,2.4533,2.4819,2.502,2.5198,2.5313,2.5291,2.5424,2.5701,2.5917,2.6079,2.6185,2.6185,2.6185,2.6185,2.6185,2.6185,2.6187,2.6224,2.6347,2.6555,2.6891,2.7365,2.7739,2.8138,2.8331,2.8518,2.8582,2.8662,2.8718,2.8724,2.8767,1.9289,1.9539,1.9708,2.0437,2.1493,2.2096,2.317,2.4575,2.5285,2.5871,2.6168,2.6282,2.6109,2.5594,2.5026,2.4499,2.3966,2.3371,2.3145,2.3108,2.3095,2.3095,2.3155,2.3258,2.3531,2.3826,2.4118,2.4538,2.5091,2.5175,2.5189,2.5217,2.5203,2.5147,2.5063,2.5147,2.5147,2.526,2.5356,2.5602,2.5279,2.4408,2.3453,2.2732,2.2048,2.1852,2.1851,2.2212,2.2535,2.2897,2.3268,2.3523,2.3588,2.3595,2.3595,2.3595,2.3595,2.3595,2.3595,2.3595,2.3595,2.3595,2.3595,2.3595,2.3595,2.3595,2.3573,2.3573,2.3566,2.3566,2.3595,2.3595,2.3595,2.3788,2.3873,2.4078,2.4162,2.412,2.4078,2.4057,2.4057,2.4188,2.4354,2.4558,2.4839,2.504,2.5114,2.5291,2.5538,2.5612,2.5687,2.5919,2.6151,2.6168,2.6185,2.6185,2.6185,2.6185,2.6187,2.6205,2.6224,2.6259,2.6399,2.6657,2.7037,2.75,2.7869,2.8192,2.8409,2.8612,2.8644,2.8694,2.8749,2.8798,2.8827]}]]